[[{"header":{"parameterUnit":"m.s-1","parameterCategory":1,"la1":30.6,"la2":28.766,"lo1":-90.7593,"lo2":-88.6598,"dy":0.0162,"dx":0.0183,"nx":116,"ny":114,"refTime":"2023-03-24T12:00:00:Z","depth":0,"parameterNumber":2,"parameterNumberName":"U-component_of_WINDS"},"data":[0.0,0.0,0.0,0.0,0.0,0.0,0.0,0.0,0.0,0.0,0.0,0.0,0.0,0.0,0.0,0.0,0.0,0.0,0.0,0.0,0.0,0.0,0.0,0.0,0.0,0.0,0.0,0.0,0.0,0.0,0.0,0.0,0.0,0.0,0.0,0.0,0.0,0.0,0.0,0.0,0.0,0.0,0.0,0.0,0.0,0.0,0.0,0.0,0.0,0.0,0.0,0.0,0.0,0.0,0.0,0.0,0.0,0.0,0.0,0.0,0.0,0.0,0.0,0.0,0.0,0.0,0.0,0.0,0.0,0.0,0.0,0.0,0.0,0.0,0.0,0.0,0.0,0.0,0.0,0.0,0.0,0.0,0.0,0.0,0.0,0.0,0.0,0.0,0.0,0.0,0.0,0.0,0.0,0.0,0.0,0.0,0.0,0.0,0.0,0.0,0.0,0.0,0.0,0.0,0.0,0.0,0.0,0.0,0.0,0.0,0.0,0.0,0.0,0.0,0.0,0.0,0.0,0.0,0.0,0.0,0.0,0.0,0.0,0.0,0.0,0.0,0.0,0.0,0.0,0.0,0.0,0.0,0.0,0.0,0.0,0.0,0.0,0.0,0.0,0.0,0.0,0.0,0.0,0.0,0.0,0.0,0.0,0.0,0.0,0.0,0.0,0.0,0.0,0.0,0.0,0.0,0.0,0.0,0.0,0.0,0.0,0.0,0.0,0.0,0.0,0.0,0.0,0.0,0.0,0.0,0.0,0.0,0.0,0.0,0.0,0.0,0.0,0.0,0.0,0.0,0.0,0.0,0.0,0.0,0.0,0.0,0.0,0.0,0.0,0.0,0.0,0.0,0.0,0.0,0.0,0.0,0.0,0.0,0.0,0.0,0.0,0.0,0.0,0.0,0.0,0.0,0.0,0.0,0.0,0.0,0.0,0.0,0.0,0.0,0.0,0.0,0.0,0.0,0.0,0.0,0.0,0.0,0.0,0.0,0.0,0.0,0.0,0.0,0.0,0.0,0.0,0.0,0.0,0.0,0.0,0.0,0.0,0.0,0.0,0.0,0.0,0.0,0.0,0.0,0.0,0.0,0.0,0.0,0.0,0.0,0.0,0.0,0.0,0.0,0.0,0.0,0.0,0.0,0.0,0.0,0.0,0.0,0.0,0.0,0.0,0.0,0.0,0.0,0.0,0.0,0.0,0.0,0.0,0.0,0.0,0.0,0.0,0.0,0.0,0.0,0.0,0.0,0.0,0.0,0.0,0.0,0.0,0.0,0.0,0.0,0.0,0.0,0.0,0.0,0.0,0.0,0.0,0.0,0.0,0.0,0.0,0.0,0.0,0.0,0.0,0.0,0.0,0.0,0.0,0.0,0.0,0.0,0.0,0.0,0.0,0.0,0.0,0.0,0.0,0.0,0.0,0.0,0.0,0.0,0.0,0.0,0.0,0.0,0.0,0.0,0.0,0.0,0.0,0.0,0.0,0.0,0.0,0.0,0.0,0.0,0.0,0.0,0.0,0.0,0.0,0.0,0.0,0.0,0.0,0.0,0.0,0.0,0.0,0.0,0.0,0.0,0.0,0.0,0.0,0.0,0.0,0.0,0.0,0.0,0.0,0.0,0.0,0.0,0.0,0.0,0.0,0.0,0.0,0.0,0.0,0.0,0.0,0.0,0.0,0.0,0.0,0.0,0.0,0.0,0.0,0.0,0.0,0.0,0.0,0.0,0.0,0.0,0.0,0.0,0.0,0.0,0.0,0.0,0.0,0.0,0.0,0.0,0.0,0.0,0.0,0.0,0.0,0.0,0.0,0.0,0.0,0.0,0.0,0.0,0.0,0.0,0.0,0.0,0.0,0.0,0.0,0.0,0.0,0.0,0.0,0.0,0.0,0.0,0.0,0.0,0.0,0.0,0.0,0.0,0.0,0.0,0.0,0.0,0.0,0.0,0.0,0.0,0.0,0.0,0.0,0.0,0.0,0.0,0.0,0.0,0.0,0.0,0.0,0.0,0.0,0.0,0.0,0.0,0.0,0.0,0.0,0.0,0.0,0.0,0.0,0.0,0.0,0.0,0.0,0.0,0.0,0.0,0.0,0.0,0.0,0.0,0.0,0.0,0.0,0.0,0.0,0.0,0.0,0.0,0.0,0.0,0.0,0.0,0.0,0.0,0.0,0.0,0.0,0.0,0.0,0.0,0.0,0.0,0.0,0.0,0.0,0.0,0.0,0.0,0.0,0.0,0.0,0.0,0.0,0.0,0.0,0.0,0.0,0.0,0.0,0.0,0.0,0.0,0.0,0.0,0.0,0.0,0.0,0.0,0.0,0.0,0.0,0.0,0.0,0.0,0.0,0.0,0.0,0.0,0.0,0.0,0.0,0.0,0.0,0.0,0.0,0.0,0.0,0.0,0.0,0.0,0.0,0.0,0.0,0.0,0.0,0.0,0.0,0.0,0.0,0.0,0.0,0.0,0.0,0.0,0.0,0.0,0.0,0.0,0.0,0.0,0.0,0.0,0.0,0.0,0.0,0.0,0.0,0.0,0.0,0.0,0.0,0.0,0.0,0.0,0.0,0.0,0.0,0.0,0.0,0.0,0.0,0.0,0.0,0.0,0.0,0.0,0.0,0.0,0.0,0.0,0.0,0.0,0.0,0.0,0.0,0.0,0.0,0.0,0.0,0.0,0.0,0.0,0.0,0.0,0.0,0.0,0.0,0.0,0.0,0.0,0.0,0.0,0.0,0.0,0.0,0.0,0.0,0.0,0.0,0.0,0.0,0.0,0.0,0.0,0.0,0.0,0.0,0.0,0.0,0.0,0.0,0.0,0.0,0.0,0.0,0.0,0.0,0.0,0.0,0.0,0.0,0.0,0.0,0.0,0.0,0.0,0.0,0.0,0.0,0.0,0.0,0.0,0.0,0.0,0.0,0.0,0.0,0.0,0.0,0.0,0.0,0.0,0.0,0.0,0.0,0.0,0.0,0.0,0.0,0.0,0.0,0.0,0.0,0.0,0.0,0.0,0.0,0.0,0.0,0.0,0.0,0.0,0.0,0.0,0.0,0.0,0.0,0.0,0.0,0.0,0.0,0.0,0.0,0.0,0.0,0.0,0.0,0.0,0.0,0.0,0.0,0.0,0.0,0.0,0.0,0.0,0.0,0.0,0.0,0.0,0.0,0.0,0.0,0.0,0.0,0.0,0.0,0.0,0.0,0.0,0.0,0.0,0.0,0.0,0.0,0.0,0.0,0.0,0.0,0.0,0.0,0.0,0.0,0.0,0.0,0.0,0.0,0.0,0.0,0.0,0.0,0.0,0.0,0.0,0.0,0.0,0.0,0.0,0.0,0.0,0.0,0.0,0.0,0.0,0.0,0.0,0.0,0.0,0.0,0.0,0.0,0.0,0.0,0.0,0.0,0.0,0.0,0.0,0.0,0.0,0.0,0.0,0.0,0.0,0.0,0.0,0.0,0.0,0.0,0.0,0.0,0.0,0.0,0.0,0.0,0.0,0.0,0.0,0.0,0.0,0.0,0.0,0.0,0.0,0.0,0.0,0.0,0.0,0.0,0.0,0.0,0.0,0.0,0.0,0.0,0.0,0.0,0.0,0.0,0.0,0.0,0.0,0.0,0.0,0.0,0.0,0.0,0.0,0.0,0.0,0.0,0.0,0.0,0.0,0.0,0.0,0.0,0.0,0.0,0.0,0.0,0.0,0.0,0.0,0.0,0.0,0.0,0.0,0.0,0.0,0.0,0.0,0.0,0.0,0.0,0.0,0.0,0.0,0.0,0.0,0.0,0.0,0.0,0.0,0.0,0.0,0.0,0.0,0.0,0.0,0.0,0.0,0.0,0.0,0.0,0.0,0.0,0.0,0.0,0.0,0.0,0.0,0.0,0.0,0.0,0.0,0.0,0.0,0.0,0.0,0.0,0.0,0.0,0.0,0.0,0.0,0.0,0.0,0.0,0.0,0.0,0.0,0.0,0.0,0.0,0.0,0.0,0.0,0.0,0.0,0.0,0.0,0.0,0.0,0.0,0.0,0.0,0.0,0.0,0.0,0.0,0.0,0.0,0.0,0.0,0.0,0.0,0.0,0.0,0.0,0.0,0.0,0.0,0.0,0.0,0.0,0.0,0.0,0.0,0.0,0.0,0.0,0.0,0.0,0.0,0.0,0.0,0.0,0.0,0.0,0.0,0.0,0.0,0.0,0.0,0.0,0.0,0.0,0.0,0.0,0.0,0.0,0.0,0.0,0.0,0.0,0.0,0.0,0.0,0.0,0.0,0.0,0.0,0.0,0.0,0.0,0.0,0.0,0.0,0.0,0.0,0.0,0.0,0.0,0.0,0.0,0.0,0.0,0.0,0.0,0.0,0.0,0.0,0.0,0.0,0.0,0.0,0.0,0.0,0.0,0.0,0.0,0.0,0.0,0.0,0.0,0.0,0.0,0.0,0.0,0.0,0.0,0.0,0.0,0.0,0.0,0.0,0.0,0.0,0.0,0.0,0.0,0.0,0.0,0.0,0.0,0.0,0.0,0.0,0.0,0.0,0.0,0.0,0.0,0.0,0.0,0.0,0.0,0.0,0.0,0.0,0.0,0.0,0.0,0.0,0.0,0.0,0.0,0.0,0.0,0.0,0.0,0.0,0.0,0.0,0.0,0.0,0.0,0.0,0.0,0.0,0.0,0.0,0.0,0.0,0.0,0.0,0.0,0.0,0.0,0.0,0.0,0.0,0.0,0.0,0.0,0.0,0.0,0.0,0.0,0.0,0.0,0.0,0.0,0.0,0.0,0.0,0.0,0.0,0.0,0.0,0.0,0.0,0.0,0.0,0.0,0.0,0.0,0.0,0.0,0.0,0.0,0.0,0.0,0.0,0.0,0.0,0.0,0.0,0.0,0.0,0.0,0.0,0.0,0.0,0.0,0.0,0.0,0.0,0.0,0.0,0.0,0.0,0.0,0.0,0.0,0.0,0.0,0.0,0.0,0.0,0.0,0.0,0.0,0.0,0.0,0.0,0.0,0.0,0.0,0.0,0.0,0.0,0.0,0.0,0.0,0.0,0.0,0.0,0.0,0.0,0.0,0.0,0.0,0.0,0.0,0.0,0.0,0.0,0.0,0.0,0.0,0.0,0.0,0.0,0.0,0.0,0.0,0.0,0.0,0.0,0.0,0.0,0.0,0.0,0.0,0.0,0.0,0.0,0.0,0.0,0.0,0.0,0.0,0.0,0.0,0.0,0.0,0.0,0.0,0.0,0.0,0.0,0.0,0.0,0.0,0.0,0.0,0.0,0.0,0.0,0.0,0.0,0.0,0.0,0.0,0.0,0.0,0.0,0.0,0.0,0.0,0.0,0.0,0.0,0.0,0.0,0.0,0.0,0.0,0.0,0.0,0.0,0.0,0.0,0.0,0.0,0.0,0.0,0.0,0.0,0.0,0.0,0.0,0.0,0.0,0.0,0.0,0.0,0.0,0.0,0.0,0.0,0.0,0.0,0.0,0.0,0.0,0.0,0.0,0.0,0.0,0.0,0.0,0.0,0.0,0.0,0.0,0.0,0.0,0.0,0.0,0.0,0.0,0.0,0.0,0.0,0.0,0.0,0.0,0.0,0.0,0.0,0.0,0.0,0.0,0.0,0.0,0.0,0.0,0.0,0.0,0.0,0.0,0.0,0.0,0.0,0.0,0.0,0.0,0.0,0.0,0.0,0.0,0.0,0.0,0.0,0.0,0.0,0.0,0.0,0.0,0.0,0.0,0.0,0.0,0.0,0.0,0.0,0.0,0.0,0.0,0.0,0.0,0.0,0.0,0.0,0.0,0.0,0.0,0.0,0.0,0.0,0.0,0.0,0.0,0.0,0.0,0.0,0.0,0.0,0.0,0.0,0.0,0.0,0.0,0.0,0.0,0.0,0.0,0.0,0.0,0.0,0.0,0.0,0.0,0.0,0.0,0.0,0.0,0.0,0.0,0.0,0.0,0.0,0.0,0.0,0.0,0.0,0.0,0.0,0.0,0.0,0.0,0.0,0.0,0.0,0.0,0.0,0.0,0.0,0.0,0.0,0.0,0.0,0.0,0.0,0.0,0.0,0.0,0.0,0.0,0.0,0.0,-1.3414,0.0,0.0,0.0,0.0,0.0,0.0,0.0,0.0,0.0,0.0,0.0,0.0,0.0,0.0,0.0,0.0,0.0,0.0,0.0,0.0,0.0,0.0,0.0,0.0,0.0,0.0,0.0,0.0,0.0,0.0,0.0,0.0,0.0,0.0,0.0,0.0,0.0,0.0,0.0,-2.1211,-2.1211,-2.1191,-2.0306,-1.8909,-1.7164,0.0,0.0,0.0,0.0,0.0,0.0,0.0,0.0,0.0,0.0,0.0,0.0,0.0,0.0,0.0,0.0,0.0,0.0,0.0,0.0,0.0,0.0,0.0,0.0,0.0,0.0,0.0,0.0,0.0,0.0,0.0,0.0,0.0,0.0,0.0,0.0,0.0,0.0,0.0,0.0,0.0,0.0,0.0,0.0,0.0,0.0,0.0,0.0,0.0,0.0,0.0,0.0,0.0,0.0,0.0,0.0,0.0,0.0,0.0,0.0,0.0,0.0,0.0,0.0,0.0,0.0,0.0,0.0,0.0,0.0,0.0,-1.3627,0.0,0.0,0.0,0.0,0.0,0.0,0.0,0.0,0.0,0.0,0.0,0.0,0.0,0.0,0.0,0.0,0.0,0.0,0.0,0.0,0.0,0.0,0.0,0.0,-2.084,-2.084,-2.084,-2.0977,0.0,0.0,0.0,0.0,0.0,0.0,0.0,-2.1915,-2.1915,-2.1915,-2.1915,-2.1915,-2.1915,-2.1915,-2.0669,-1.8429,-1.7955,0.0,0.0,0.0,0.0,0.0,0.0,0.0,0.0,0.0,0.0,0.0,0.0,0.0,0.0,0.0,0.0,0.0,0.0,0.0,0.0,0.0,0.0,0.0,0.0,0.0,0.0,0.0,0.0,0.0,0.0,0.0,0.0,0.0,0.0,0.0,0.0,0.0,0.0,0.0,0.0,0.0,0.0,0.0,0.0,0.0,0.0,0.0,0.0,0.0,0.0,0.0,0.0,0.0,0.0,0.0,0.0,0.0,0.0,0.0,0.0,0.0,0.0,0.0,-1.5008,-1.5098,-1.5241,-1.5075,-1.5098,-1.5214,-1.4529,-1.4263,-1.4263,0.0,0.0,0.0,0.0,0.0,0.0,0.0,0.0,0.0,0.0,0.0,0.0,0.0,0.0,0.0,0.0,0.0,0.0,0.0,0.0,0.0,0.0,-2.1484,-2.1739,-2.1739,-2.1739,-2.1759,-2.1797,0.0,0.0,0.0,0.0,0.0,-2.1915,-2.1915,-2.1915,-2.1915,-2.1915,-2.1915,-2.1915,-2.1915,-2.1301,-2.0236,-1.9786,-1.8909,-1.7738,0.0,0.0,0.0,0.0,0.0,0.0,0.0,0.0,0.0,0.0,0.0,0.0,0.0,0.0,0.0,0.0,0.0,0.0,0.0,0.0,0.0,0.0,0.0,0.0,0.0,0.0,0.0,0.0,0.0,0.0,0.0,0.0,0.0,0.0,0.0,0.0,0.0,0.0,0.0,0.0,0.0,-1.5228,-1.5228,0.0,0.0,0.0,0.0,0.0,0.0,0.0,0.0,0.0,0.0,0.0,0.0,0.0,-1.4914,-1.4932,-1.4932,-1.4946,-1.5008,-1.5008,-1.5442,-1.6191,-1.5375,-1.5442,-1.6154,-1.527,0.0,-1.4865,-1.4865,0.0,0.0,0.0,0.0,0.0,0.0,0.0,0.0,0.0,0.0,0.0,0.0,0.0,0.0,0.0,0.0,0.0,0.0,0.0,0.0,0.0,-2.1777,-2.1915,-2.1915,-2.1915,-2.2013,-2.2227,-2.2246,0.0,0.0,0.0,-2.2576,-2.2576,-2.2576,-2.2576,-2.2576,-2.2576,-2.2576,-2.2576,-2.2576,-2.2364,-2.1983,-2.1543,-2.0345,-1.8558,-1.7228,0.0,0.0,0.0,0.0,0.0,0.0,0.0,0.0,0.0,0.0,0.0,0.0,0.0,0.0,0.0,0.0,0.0,0.0,0.0,0.0,0.0,0.0,0.0,0.0,0.0,0.0,0.0,0.0,0.0,0.0,0.0,0.0,0.0,0.0,0.0,0.0,0.0,0.0,0.0,-1.5519,-1.5938,-1.5456,-1.5197,-1.5425,0.0,0.0,0.0,0.0,0.0,0.0,0.0,0.0,0.0,-1.6944,-1.6421,-1.6586,-1.7581,-1.7596,-1.7662,-1.7819,-1.7819,-1.8014,-1.8411,-1.7991,-1.8014,-1.8411,-1.7991,-1.7819,-1.7665,-1.5777,-1.5008,-1.5008,0.0,0.0,0.0,0.0,-1.4705,-1.4598,0.0,0.0,0.0,0.0,0.0,0.0,0.0,0.0,0.0,0.0,0.0,0.0,-2.2051,-2.2148,-2.2207,-2.2207,-2.2207,-2.2344,-2.2635,-2.2654,-2.2791,-2.3081,-2.3101,-2.3101,-2.3101,-2.3101,-2.3101,-2.3101,-2.3101,-2.3101,-2.3101,-2.3101,-2.3101,-2.3081,-2.2791,-2.1593,-1.9741,-1.8478,-1.8066,-1.8095,0.0,0.0,0.0,0.0,0.0,0.0,0.0,0.0,0.0,0.0,0.0,0.0,0.0,0.0,0.0,0.0,0.0,0.0,0.0,0.0,0.0,0.0,0.0,0.0,0.0,0.0,0.0,0.0,0.0,0.0,0.0,0.0,0.0,0.0,0.0,0.0,0.0,-1.6385,-1.701,-1.6106,-1.6189,-1.6624,0.0,0.0,0.0,0.0,0.0,0.0,-1.8654,-1.7743,-1.7741,-1.8858,-1.8164,-1.8388,-1.9701,-1.9805,-1.9958,-2.0142,-2.0263,-2.0459,-2.0679,-2.0434,-2.0459,-2.0679,-2.0434,-2.0295,-2.0077,-1.71,-1.6026,-1.6218,-1.5658,-1.5571,-1.5709,-1.5435,-1.5267,-1.52,0.0,0.0,0.0,0.0,0.0,0.0,0.0,0.0,0.0,0.0,0.0,-2.248,-2.248,-2.281,-2.3042,-2.3042,-2.3042,-2.3042,-2.3062,-2.3062,-2.3081,-2.3101,-2.3101,-2.3101,-2.3101,-2.3101,-2.3101,-2.3101,-2.3101,-2.3101,-2.3101,-2.3101,-2.3101,-2.3101,-2.3081,-2.2785,-2.2229,-2.0694,-1.9943,-1.9607,-1.7532,0.0,0.0,0.0,0.0,0.0,0.0,0.0,0.0,0.0,0.0,0.0,0.0,0.0,0.0,0.0,0.0,0.0,0.0,0.0,0.0,0.0,0.0,0.0,0.0,0.0,0.0,0.0,0.0,0.0,0.0,0.0,0.0,0.0,0.0,0.0,0.0,0.0,0.0,-1.7699,-1.7715,0.0,0.0,0.0,0.0,-1.9602,-1.8952,-1.9136,-2.0673,-1.9915,-1.9605,-1.9918,-1.9886,-1.9902,-1.9982,-2.0352,-2.0553,-2.057,-2.0958,-2.1626,-2.2542,-2.1576,-2.1651,-2.2517,-2.155,-2.1144,-2.0978,-1.9024,-1.8835,-1.9539,-1.745,-1.7072,-1.7625,-1.6604,-1.6032,-1.5768,0.0,0.0,0.0,0.0,0.0,0.0,0.0,0.0,-2.2674,-2.2674,-2.2791,-2.2888,-2.2888,-2.3003,-2.3101,-2.3101,-2.3101,-2.3101,-2.3101,-2.3101,-2.3101,-2.3101,-2.3101,-2.3101,-2.3101,-2.3101,-2.3101,-2.3101,-2.3396,-2.3555,-2.3574,-2.3806,-2.3942,-2.3923,-2.3672,-2.3477,-2.3235,-2.1614,-2.0634,-2.0077,-1.8616,-1.7922,0.0,0.0,0.0,0.0,0.0,0.0,0.0,0.0,0.0,0.0,0.0,0.0,0.0,0.0,0.0,0.0,0.0,0.0,0.0,0.0,0.0,0.0,0.0,0.0,0.0,0.0,0.0,0.0,0.0,0.0,0.0,0.0,0.0,0.0,0.0,0.0,0.0,-1.8763,-1.9139,0.0,-2.0218,-2.0224,-2.0674,-2.1731,-2.1524,-2.1684,-2.2524,-2.1728,-2.1784,-2.306,-2.2458,-2.2561,-2.3472,-2.362,-2.3691,-2.3691,-2.3832,-2.4083,-2.4435,-2.4057,-2.4083,-2.441,-2.4057,-2.3902,-2.3789,-2.2389,-2.0858,-1.9254,-1.8216,-1.7527,-1.7084,-1.6702,-1.6486,-1.6393,0.0,0.0,0.0,0.0,0.0,0.0,0.0,0.0,-2.3101,-2.3101,-2.3101,-2.3101,-2.3101,-2.3101,-2.3101,-2.3101,-2.3101,-2.3101,-2.3101,-2.3101,-2.3101,-2.3101,-2.3101,-2.3101,-2.3101,-2.3259,-2.3337,-2.3337,-2.3789,-2.4004,-2.4004,-2.4277,-2.4391,-2.4391,-2.4121,-2.4004,-2.3939,-2.2749,-2.1786,-2.0985,-1.9908,-1.929,-1.9011,0.0,0.0,0.0,0.0,0.0,0.0,0.0,0.0,0.0,0.0,0.0,0.0,0.0,0.0,0.0,0.0,0.0,0.0,0.0,0.0,0.0,0.0,0.0,0.0,0.0,0.0,0.0,0.0,0.0,0.0,0.0,0.0,0.0,0.0,0.0,-2.0833,-2.0058,-2.0684,-2.1296,-2.1611,-2.1949,-2.2488,-2.3273,-2.3468,-2.3724,-2.4109,-2.3538,-2.3763,-2.4959,-2.435,-2.445,-2.5388,-2.5535,-2.559,-2.559,-2.5737,-2.5811,-2.5811,-2.5811,-2.5811,-2.5811,-2.5811,-2.5811,-2.5739,-2.4845,-2.3034,-2.0659,-1.9489,-1.8807,-1.8357,-1.7586,-1.7301,-1.7301,0.0,0.0,0.0,0.0,0.0,0.0,0.0,-2.3101,-2.3101,-2.3101,-2.3101,-2.3101,-2.3101,-2.3101,-2.3101,-2.3101,-2.3101,-2.3101,-2.3101,-2.3101,-2.3101,-2.3101,-2.3101,-2.3101,-2.312,-2.3574,-2.3811,-2.3831,-2.4238,-2.441,-2.441,-2.443,-2.443,-2.443,-2.443,-2.441,-2.441,-2.4202,-2.3469,-2.2372,-2.1445,-2.1311,-2.1539,0.0,0.0,0.0,0.0,0.0,0.0,0.0,0.0,0.0,0.0,0.0,0.0,0.0,0.0,0.0,0.0,0.0,0.0,0.0,0.0,0.0,0.0,0.0,0.0,0.0,0.0,0.0,0.0,0.0,0.0,0.0,0.0,0.0,-2.2295,-2.2314,-2.2137,-2.1616,-2.2369,-2.2577,-2.1678,-2.2793,-2.3743,-2.4202,-2.4599,-2.5003,-2.5388,-2.5407,-2.5425,-2.5443,-2.5443,-2.5443,-2.5443,-2.5811,-2.6039,-2.6013,-2.6416,-2.6591,-2.6591,-2.6591,-2.6591,-2.6591,-2.6591,-2.6591,-2.6554,-2.6178,-2.538,-2.4115,-2.1445,-2.1009,-2.1641,-1.9429,-1.8601,-1.8601,0.0,0.0,0.0,0.0,0.0,0.0,0.0,-2.3101,-2.3101,-2.3101,-2.3101,-2.3101,-2.3101,-2.3101,-2.3101,-2.3101,-2.3101,-2.3101,-2.3101,-2.3101,-2.3101,-2.3101,-2.3101,-2.3259,-2.3613,-2.373,-2.3945,-2.4238,-2.4687,-2.4906,-2.4926,-2.5215,-2.5347,-2.5328,-2.5039,-2.4906,-2.4887,-2.4481,-2.4048,-2.3564,-2.2809,-2.1861,-2.0939,0.0,0.0,0.0,0.0,0.0,0.0,0.0,0.0,0.0,0.0,0.0,0.0,0.0,0.0,0.0,0.0,0.0,0.0,0.0,0.0,0.0,0.0,0.0,0.0,0.0,0.0,0.0,0.0,0.0,0.0,0.0,0.0,-2.262,-2.235,-2.2547,-2.2782,-2.2943,-2.3469,-2.3877,-2.3877,-2.4477,-2.4948,-2.5058,-2.5168,-2.5407,-2.5811,-2.5855,-2.5958,-2.627,-2.6288,-2.6288,-2.6288,-2.6398,-2.6435,-2.6435,-2.6563,-2.6591,-2.6591,-2.6591,-2.6591,-2.6591,-2.6591,-2.6591,-2.6573,-2.649,-2.6245,-2.5765,-2.3593,-2.2461,-2.1952,-2.1349,-2.1105,-2.1105,0.0,0.0,0.0,0.0,0.0,0.0,0.0,-2.3101,-2.3101,-2.3101,-2.3101,-2.3101,-2.3101,-2.3101,-2.3101,-2.3101,-2.3101,-2.3101,-2.3101,-2.3101,-2.3101,-2.3101,-2.3298,-2.3535,-2.3789,-2.4163,-2.4476,-2.4687,-2.5137,-2.5449,-2.5649,-2.5879,-2.6089,-2.6225,-2.582,-2.5649,-2.561,-2.5132,-2.4793,-2.4481,-2.4086,-2.3035,-2.1685,-2.1965,-2.1731,-2.1226,-2.1709,-2.1385,-2.0771,-2.1211,0.0,0.0,0.0,0.0,0.0,0.0,0.0,0.0,0.0,0.0,0.0,0.0,0.0,0.0,0.0,0.0,0.0,0.0,0.0,0.0,0.0,0.0,0.0,0.0,-2.3211,-2.3363,-2.3125,-2.3308,-2.3675,-2.4244,-2.4544,-2.4783,-2.504,-2.5407,-2.5645,-2.5645,-2.5811,-2.6013,-2.6233,-2.6251,-2.6361,-2.6591,-2.6591,-2.6591,-2.6591,-2.6591,-2.6591,-2.6591,-2.6591,-2.6591,-2.6591,-2.6591,-2.6591,0.0,-2.6591,-2.6591,-2.6591,-2.6591,-2.6591,0.0,0.0,0.0,0.0,0.0,-2.248,-2.248,0.0,0.0,0.0,0.0,0.0,0.0,0.0,-2.3101,-2.3101,-2.3101,-2.3101,-2.3101,-2.3101,-2.3101,-2.3101,-2.3101,-2.3101,-2.3101,-2.3101,-2.3101,-2.3101,-2.3101,-2.3555,-2.3809,-2.3867,-2.4672,-2.5121,-2.516,-2.5586,-2.5991,-2.6387,-2.6445,-2.666,-2.6967,-2.6621,-2.6426,-2.6367,-2.5952,-2.5547,-2.516,-2.5078,-2.4334,-2.315,-2.2486,-2.2295,-2.2387,-2.2172,-2.2106,-2.2061,-2.182,0.0,0.0,0.0,0.0,0.0,0.0,0.0,0.0,0.0,0.0,0.0,0.0,0.0,0.0,0.0,0.0,0.0,0.0,0.0,0.0,0.0,0.0,0.0,0.0,-2.3804,-2.4349,-2.4404,-2.4404,-2.4679,-2.537,-2.5462,-2.548,-2.5535,-2.5847,-2.6068,-2.6068,-2.6398,-2.6591,-2.6591,0.0,0.0,0.0,0.0,-2.671,-2.6719,-2.6747,-2.6747,-2.6747,-2.6747,-2.6747,-2.6747,-2.6747,-2.6747,-2.6747,-2.6747,-2.6747,-2.6747,-2.6747,-2.6729,-2.6564,-2.5449,-2.5,-2.4861,-2.3787,-2.3396,0.0,0.0,0.0,0.0,0.0,0.0,0.0,0.0,-2.3101,-2.3101,-2.3101,-2.3101,-2.3101,-2.3101,-2.3101,-2.3101,-2.3101,-2.3101,-2.3101,-2.3101,-2.3101,-2.3101,-2.3101,-2.3555,-2.3945,-2.4277,-2.4828,-2.5278,-2.5581,-2.6055,-2.6309,-2.6412,-2.6738,-2.6934,-2.7012,-2.6934,-2.6699,-2.6387,-2.6289,-2.6016,-2.5542,-2.5,-2.4437,-2.3821,-2.315,-2.2794,-2.2602,-2.224,-2.2106,-2.2087,-2.2039,-2.2039,-2.1995,-2.1754,-2.1687,0.0,0.0,0.0,0.0,0.0,0.0,0.0,0.0,0.0,0.0,0.0,0.0,0.0,0.0,0.0,0.0,0.0,0.0,0.0,-2.4427,-2.4856,-2.5278,-2.5617,-2.5653,-2.5727,-2.5874,-2.5866,-2.6013,-2.6343,-2.6453,-2.6463,-2.6463,-2.6563,-2.6591,-2.6591,-2.6591,-2.6765,-2.7077,-2.7096,-2.7243,-2.7555,-2.7573,-2.7573,-2.7573,0.0,0.0,-2.7573,-2.7573,-2.7573,-2.7573,-2.7573,-2.7573,-2.7573,-2.7573,-2.7371,-2.7031,-2.6454,-2.6245,-2.6218,-2.5999,-2.5916,-2.5916,0.0,0.0,0.0,0.0,0.0,0.0,0.0,-2.3101,-2.3101,-2.3101,-2.3101,-2.3101,-2.3101,-2.3101,-2.3101,-2.3101,-2.3101,-2.3101,-2.3101,-2.3101,-2.3101,-2.3101,-2.3728,-2.4199,-2.4391,-2.5059,-2.5484,-2.5693,-2.5932,-2.6264,-2.6699,-2.6914,-2.7246,-2.7637,-2.7181,-2.6894,-2.668,-2.625,-2.5913,-2.5674,-2.5344,-2.5082,-2.4806,-2.394,-2.3442,-2.3209,-2.2865,-2.2523,-2.222,-2.2128,-2.1998,-2.1865,-2.1731,-2.1856,-2.2039,0.0,0.0,0.0,0.0,0.0,0.0,0.0,0.0,0.0,0.0,0.0,0.0,0.0,0.0,-2.4225,-2.4452,0.0,-2.5095,-2.5095,-2.5443,-2.5756,-2.5958,-2.6159,-2.6306,-2.6306,-2.6306,-2.638,-2.6573,-2.6591,-2.6664,-2.6894,-2.6912,-2.7004,-2.7187,-2.7206,-2.7298,-2.75,-2.75,-2.7591,-2.7793,-2.7793,-2.7793,-2.7793,-2.7793,-2.7793,-2.7793,-2.7793,-2.7793,-2.7793,-2.7793,-2.7793,-2.7793,-2.7793,-2.7683,-2.7481,-2.7279,-2.6967,-2.6591,-2.6591,-2.6591,-2.6591,0.0,0.0,0.0,0.0,0.0,0.0,0.0,-2.3042,-2.3101,-2.3101,-2.3101,-2.3101,-2.3101,-2.3101,-2.3101,-2.3101,-2.3101,-2.3101,-2.3101,-2.3101,-2.3101,-2.3101,-2.3864,-2.4336,-2.4391,-2.5171,-2.562,-2.5693,-2.5796,-2.6186,-2.6894,-2.6947,-2.7383,-2.8008,-2.7324,-2.6973,-2.6855,-2.6128,-2.5796,-2.5693,-2.5693,-2.5693,-2.5615,-2.4748,-2.4171,-2.3816,-2.347,-2.298,-2.2441,-2.222,-2.2099,-2.2017,-2.1927,-2.2162,-2.2511,-2.2538,-2.2748,0.0,0.0,0.0,0.0,0.0,0.0,0.0,0.0,-2.4202,-2.422,-2.4312,-2.4562,-2.4838,-2.4911,-2.5242,-2.5517,-2.5517,-2.5847,-2.6104,-2.6104,-2.6398,-2.6591,-2.6591,-2.6591,-2.6628,-2.6729,-2.6729,-2.6894,-2.7298,-2.7316,-2.7463,-2.7775,-2.7793,-2.783,-2.7922,-2.7922,-2.7958,-2.8032,-2.8032,-2.8032,-2.8032,-2.8032,-2.8032,-2.8032,-2.8032,-2.8032,-2.8032,-2.8032,-2.8032,-2.8032,-2.794,-2.7922,-2.7903,-2.783,-2.7408,-2.6811,-2.6765,-2.6729,-2.671,0.0,0.0,0.0,0.0,0.0,0.0,0.0,0.0,-2.3101,-2.3101,-2.3101,-2.3101,-2.3101,-2.3101,-2.3101,-2.3101,-2.3101,-2.3101,-2.3101,-2.3101,-2.3101,-2.3101,-2.3571,-2.4043,-2.4391,-2.4883,-2.5332,-2.5693,-2.6133,-2.6367,-2.6465,-2.6836,-2.7045,-2.7123,-2.7025,-2.6816,-2.6445,-2.6348,-2.6094,-2.5693,-2.5693,-2.5693,-2.5698,-2.5552,-2.4912,-2.3994,-2.3358,-2.298,-2.2706,-2.2441,-2.2754,-2.3149,-2.2719,-2.2861,-2.3205,-2.3314,-2.3389,-2.3523,-2.3938,-2.4048,-2.4073,-2.4103,-2.4165,-2.4202,0.0,-2.4202,-2.4312,-2.4654,-2.4783,-2.4911,-2.526,-2.5645,-2.5921,-2.5921,-2.627,-2.6518,-2.6518,-2.6554,-2.6591,-2.6591,-2.6591,-2.6719,-2.7096,-2.7132,-2.7298,-2.7701,-2.772,-2.7738,-2.7793,-2.7793,-2.7958,-2.8315,-2.8333,-2.8498,-2.8876,-2.8876,-2.8876,-2.8876,-2.8876,-2.8876,-2.8876,-2.8876,-2.8876,-2.8876,-2.8876,-2.8876,-2.884,-2.8462,-2.8333,-2.8278,-2.794,-2.7738,-2.761,-2.7261,-2.7132,-2.7096,0.0,0.0,0.0,0.0,0.0,0.0,0.0,0.0,0.0,-2.3062,-2.3101,-2.3101,-2.3101,-2.3101,-2.3101,-2.3101,-2.3101,-2.3101,-2.3101,-2.3101,-2.3101,-2.3101,-2.3555,-2.3867,-2.4043,-2.475,-2.518,-2.5352,-2.5801,-2.6133,-2.6387,-2.6562,-2.6777,-2.6986,-2.6758,-2.6562,-2.6367,-2.6113,-2.5874,-2.5693,-2.5693,-2.5693,-2.5693,-2.5693,-2.528,-2.4668,-2.4357,-2.3671,0.0,-2.3108,-2.3137,-2.3056,-2.2871,-2.3078,-2.3428,-2.3492,-2.3688,-2.3957,-2.4165,-2.4202,-2.4202,-2.4202,-2.4202,-2.4257,-2.4489,-2.4544,-2.4654,-2.5058,-2.5333,-2.5535,-2.57,-2.6068,-2.6361,-2.6361,-2.6508,-2.6591,-2.6591,-2.682,-2.6967,-2.6967,-2.7169,-2.7279,-2.7206,-2.7408,-2.772,-2.8124,-2.816,-2.8271,-2.8491,-2.8509,-2.8583,-2.8737,-2.8737,-2.881,-2.9005,-2.9005,-2.9005,-2.9005,-2.9005,-2.9005,-2.9005,-2.9005,-2.9005,-2.9005,-2.9005,-2.9005,-2.9005,-2.881,-2.8737,-2.8718,-2.8564,-2.8509,-2.8417,-2.7775,-2.7555,-2.7518,0.0,0.0,0.0,0.0,0.0,0.0,0.0,0.0,0.0,0.0,-2.3023,-2.3101,-2.3101,-2.3101,-2.3101,-2.3101,-2.3101,-2.3101,-2.3101,-2.3101,-2.3101,-2.3101,-2.3415,-2.3672,-2.3789,-2.4418,-2.4848,-2.5082,-2.5391,-2.5781,-2.6211,-2.6211,-2.6367,-2.6615,-2.6348,-2.6211,-2.6191,-2.5854,-2.5693,-2.5698,-2.5581,-2.5523,-2.5523,-2.5386,-2.5176,-2.4902,-2.4972,-2.4311,-2.3435,-2.3717,-2.3673,-2.3485,-2.3433,-2.364,-2.3882,-2.3809,-2.3987,-2.4202,-2.4202,-2.4202,-2.4238,-2.4349,-2.4385,-2.4452,-2.4874,-2.4966,-2.5076,-2.548,-2.5792,-2.6013,-2.6141,-2.6416,-2.6591,-2.6591,-2.6591,-2.6628,-2.6765,-2.7022,-2.7243,-2.7353,-2.772,-2.7848,-2.7573,-2.7793,-2.8142,-2.8546,-2.8553,-2.8682,-2.8975,-2.9005,-2.9005,-2.9005,-2.9005,-2.9005,-2.9005,-2.9005,-2.9005,-2.9005,-2.9005,-2.9005,-2.9005,-2.9005,-2.9005,-2.9005,-2.9005,-2.9005,-2.9005,-2.9005,-2.9005,-2.9005,-2.9005,-2.9005,-2.8931,-2.8344,-2.8069,-2.7958,0.0,0.0,0.0,0.0,0.0,0.0,0.0,0.0,0.0,0.0,0.0,0.0,0.0,-2.3101,-2.3101,-2.3101,-2.3101,-2.3101,-2.3101,-2.3101,-2.3101,-2.3101,-2.3101,-2.3337,-2.3769,-2.3831,-2.4261,-2.5082,-2.5102,-2.5312,-2.5737,-2.5737,-2.5713,-2.5732,-2.5737,-2.5737,-2.5737,-2.5718,-2.5693,-2.5679,-2.5297,-2.5121,-2.5063,-2.4609,-2.443,-2.4446,-2.4643,-2.4555,-2.4325,-2.4137,-2.452,-2.4987,-2.4746,-2.4726,-2.4805,-2.4535,-2.4332,-2.4202,-2.4202,-2.4202,-2.4293,-2.4691,-2.4783,-2.4893,-2.5297,-2.5388,-2.5499,-2.5911,-2.6002,-2.6104,-2.6527,-2.6573,-2.6591,-2.6591,-2.6591,-2.6747,-2.7132,-2.7206,-2.7353,-2.7738,-2.8142,-2.837,0.0,-2.837,-2.8535,-2.8968,-2.8975,-2.9005,-2.9005,-2.9005,-2.9005,-2.9005,-2.9005,-2.9005,-2.9005,-2.9005,-2.9005,-2.9005,-2.9005,-2.9005,-2.9005,-2.9005,-2.9005,-2.9005,-2.9005,-2.9005,-2.9005,-2.9005,-2.9005,-2.9005,-2.9005,-2.9005,-2.9005,-2.8957,-2.87,-2.8315,0.0,0.0,0.0,0.0,0.0,0.0,0.0,0.0,0.0,0.0,0.0,0.0,0.0,0.0,0.0,0.0,-2.3101,-2.3101,-2.3101,-2.3101,-2.3101,-2.3101,-2.3101,-2.3159,-2.3337,-2.3633,-2.3926,-2.4242,-2.4492,-2.4684,-2.484,-2.484,-2.484,-2.484,-2.484,-2.484,-2.484,-2.484,-2.484,-2.482,-2.4687,-2.4629,-2.4648,-2.4828,-2.4867,-2.4879,0.0,-2.49,-2.4619,-2.4837,-2.4794,-2.469,-2.4592,-2.4509,-2.4424,-2.4325,-2.4251,-2.4202,-2.4202,-2.4379,-2.4636,-2.4764,-2.5003,-2.5297,-2.57,-2.5792,-2.5902,-2.6325,-2.6398,-2.6453,-2.6582,-2.6591,-2.6591,-2.6591,-2.6591,-2.6719,-2.7151,-2.7426,-2.7757,-2.816,-2.8535,0.0,0.0,0.0,0.0,-2.9005,-2.9005,-2.9005,-2.9005,-2.9005,-2.9005,-2.9005,-2.9262,-2.9409,-2.9409,-2.9654,-2.98,-2.98,-2.98,-2.9654,-2.9409,-2.9409,-2.9262,-2.9005,-2.9005,-2.9005,-2.9005,-2.9005,-2.9005,-2.9005,-2.9005,-2.9005,-2.9005,-2.9005,-2.8902,-2.8803,0.0,0.0,0.0,0.0,0.0,0.0,0.0,0.0,0.0,0.0,0.0,0.0,0.0,0.0,0.0,0.0,0.0,-2.3101,-2.3101,-2.3101,-2.3101,-2.3101,-2.3101,-2.3101,-2.3101,-2.3396,-2.3633,-2.3789,-2.4062,-2.4277,-2.4391,-2.4391,-2.4391,-2.4391,-2.4391,-2.4391,-2.4391,-2.4391,-2.4391,-2.4391,-2.4258,-2.4199,-2.4176,-2.4244,-2.4524,0.0,-2.487,-2.4886,-2.4938,-2.5091,-2.4941,-2.4627,-2.4627,-2.448,-2.4301,-2.4226,-2.4202,-2.4263,-2.4492,-2.4675,-2.4874,-2.5279,-2.5503,-2.5719,-2.6123,-2.6215,-2.6288,-2.6563,-2.6591,-2.6591,-2.6591,-2.6591,-2.6628,-2.6802,-2.6793,-2.7022,-2.7545,-2.7867,-2.8179,-2.8553,-2.8828,-2.9005,0.0,0.0,0.0,-2.9005,-2.9005,-2.9048,-2.9225,-2.9225,-2.9299,-2.9415,-2.9702,-2.98,-2.98,-3.0057,-3.0204,-3.0204,-3.0204,-3.0057,-2.98,-2.98,-2.9654,-2.9415,-2.9299,-2.9225,-2.9207,-2.9078,-2.9005,-2.9005,-2.9005,-2.9005,-2.9005,-2.9005,-2.9005,-2.9005,0.0,0.0,0.0,0.0,0.0,0.0,0.0,0.0,0.0,0.0,0.0,0.0,0.0,0.0,0.0,0.0,0.0,0.0,-2.3101,-2.3101,-2.3101,-2.3101,-2.3101,-2.3101,-2.3101,-2.3101,-2.3318,-2.375,-2.375,-2.3965,-2.4332,-2.4332,-2.4332,-2.4332,-2.4332,-2.4332,-2.4332,-2.4332,-2.4332,-2.4293,-2.3926,-2.375,-2.3666,-2.3075,-2.3467,-2.4345,-2.4152,-2.4574,-2.5211,-2.5015,-2.4898,-2.4917,-2.4867,-2.4701,-2.4455,-2.4251,-2.422,-2.4362,-2.5,-2.5023,-2.5109,-2.6127,-2.6199,-2.6123,-2.6499,-2.6591,-2.6591,-2.6591,-2.6591,-2.6591,-2.6591,-2.6591,-2.6719,-2.7114,-2.7187,-2.7481,-2.826,-2.8388,-2.8535,-2.8968,-2.9005,-2.9005,-2.9005,0.0,0.0,-2.9042,0.0,-2.9225,-2.9611,-2.9629,-2.9813,-3.0185,-3.0222,-3.0241,-3.0241,-3.0241,-3.0259,-3.0259,-3.0259,-3.0241,-3.0241,-3.0241,-3.0222,-3.0185,-2.9813,-2.9629,-2.9611,-2.9225,-2.906,-2.9042,-2.9042,-2.9023,-2.9005,-2.9005,-2.9005,-2.9005,0.0,0.0,0.0,0.0,0.0,0.0,0.0,0.0,0.0,0.0,0.0,0.0,0.0,0.0,0.0,0.0,0.0,0.0,-2.3101,-2.3101,-2.3101,-2.3101,-2.3101,-2.3101,-2.3101,-2.3101,-2.3162,-2.3279,-2.3279,-2.3337,-2.3413,-2.3413,-2.3413,-2.3413,-2.3413,-2.3413,-2.3413,-2.3413,-2.3413,-2.3435,-2.3337,-2.3191,-2.3075,-2.3201,-2.3514,-2.3873,-2.3914,-2.4269,-2.475,-2.5088,-2.5064,-2.4843,-2.4498,-2.443,-2.4455,-2.4251,-2.4397,-2.4672,-2.484,-2.5275,-2.5764,-2.6045,-2.6287,-2.649,-2.6582,-2.6591,-2.6591,-2.6591,-2.6591,-2.6591,-2.6591,-2.6591,-2.6628,-2.6747,-2.7004,-2.7389,-2.7885,-2.8215,-2.8535,-2.8968,-2.9005,-2.9005,-2.9005,-2.928,0.0,0.0,-2.9445,-2.9629,-3.002,-3.0039,-3.0094,-3.0204,-3.0479,-3.0644,-3.0644,-3.0919,-3.1084,-3.1084,-3.1084,-3.0951,-3.0644,-3.0644,-3.0479,-3.0185,-3.0094,-3.0039,-3.0039,-2.9929,-2.9709,-2.9445,-2.9445,-2.9262,-2.9005,-2.9005,-2.9005,-2.9005,0.0,0.0,0.0,0.0,0.0,0.0,0.0,0.0,0.0,0.0,0.0,0.0,0.0,0.0,0.0,0.0,0.0,0.0,0.0,-2.3101,-2.3101,-2.3101,-2.3101,-2.3101,-2.3101,-2.3101,-2.3101,-2.3101,-2.3101,-2.3101,-2.3101,-2.3101,-2.3101,-2.3101,-2.3101,-2.3101,-2.3101,-2.3101,-2.3101,0.0,0.0,-2.2947,-2.2901,-2.2863,-2.3138,-2.3579,-2.3622,-2.4001,-2.4529,-2.4745,-2.472,-2.4548,-2.4276,-2.4276,-2.435,-2.4226,-2.4471,-2.4863,-2.5149,-2.5621,-2.6084,-2.6357,-2.6516,-2.6591,-2.6591,-2.6591,-2.6591,-2.6591,-2.6591,-2.6591,-2.6591,-2.6591,-2.6646,-2.6811,-2.7206,-2.761,-2.8014,-2.8417,-2.8737,-2.8957,-2.9005,-2.9078,-2.9262,-2.9482,-2.9758,0.0,-2.9947,-3.002,-3.0442,-3.0461,-3.0534,-3.0717,-3.0969,-3.1047,-3.1047,-3.13,-3.141,-3.141,-3.141,-3.13,-3.1047,-3.1047,-3.0919,-3.0717,0.0,-3.0461,-3.0442,-3.0277,-3.0057,-2.9855,-2.9855,-2.9739,-2.9489,-2.9335,-2.9262,-2.9243,0.0,0.0,0.0,0.0,0.0,0.0,0.0,0.0,0.0,0.0,0.0,0.0,0.0,0.0,0.0,0.0,0.0,0.0,0.0,0.0,-2.3101,-2.3101,-2.3101,-2.3101,-2.3101,-2.3101,-2.3101,-2.3101,-2.3101,-2.3101,-2.3101,-2.3101,-2.3101,-2.3101,-2.3101,-2.3101,-2.3101,-2.3079,-2.3057,-2.3035,-2.2838,-2.2838,-2.2904,0.0,-2.2595,-2.3259,-2.3299,-2.3829,-2.443,-2.4251,-2.4226,-2.4226,-2.4202,-2.4226,-2.4226,-2.4202,-2.4507,-2.5017,-2.56,-2.5922,-2.624,-2.6788,-2.6763,-2.6591,-2.6591,-2.6591,-2.6591,-2.6591,-2.6591,-2.6591,-2.6591,-2.6591,-2.6701,-2.7077,-2.75,-2.7922,-2.826,-2.87,-2.9005,-2.9005,-2.9005,-2.917,-2.9556,-2.9647,-2.9996,-3.0736,-3.0516,-3.0497,-3.0846,-3.0864,-3.1029,-3.1391,-3.141,-3.141,-3.141,-3.141,-3.141,-3.141,-3.141,-3.141,-3.141,-3.141,-3.141,-3.1391,0.0,0.0,-3.0846,-3.0497,-3.0332,-3.0277,-3.0277,-3.0241,-3.0167,-2.9831,-2.9684,-2.9629,0.0,0.0,0.0,0.0,0.0,0.0,0.0,0.0,0.0,0.0,-2.1539,-2.2053,0.0,0.0,0.0,0.0,0.0,0.0,0.0,0.0,0.0,-2.3101,-2.3101,-2.3101,-2.3101,-2.3101,-2.3101,-2.3101,-2.3101,-2.3101,-2.3101,-2.3101,-2.3101,-2.3101,-2.3101,-2.3101,-2.3101,-2.2925,-2.2838,-2.2816,-2.2574,-2.2397,-2.2264,-2.2132,0.0,0.0,-2.3233,-2.3797,-2.4251,-2.4202,-2.4325,-2.4406,-2.4251,-2.4325,-2.4424,-2.4251,-2.4709,-2.5315,-2.544,-2.5966,-2.6527,-2.6655,-2.6646,-2.6591,-2.6591,-2.6591,-2.6591,-2.6591,-2.6591,-2.6591,-2.6591,-2.6591,-2.6609,-2.6683,-2.7316,-2.7812,-2.7885,-2.8546,-2.9005,-2.9005,-2.9005,-2.917,-2.9556,-2.9892,0.0,0.0,-3.1029,-3.1226,-3.13,-3.13,-3.1336,-3.141,-3.141,-3.141,-3.141,-3.141,-3.141,-3.141,-3.141,-3.141,-3.141,-3.141,-3.141,-3.141,-3.1336,0.0,-3.13,-3.1226,-3.1006,-3.0681,-3.0681,-3.0497,-3.0185,-3.0112,-3.0094,-3.0075,0.0,0.0,0.0,0.0,0.0,0.0,0.0,-1.9853,-2.0289,-2.097,-2.1276,-2.1781,-2.2629,-2.2772,-2.2772,0.0,0.0,0.0,0.0,0.0,0.0,0.0,0.0,0.0,-2.2947,-2.3057,-2.3101,-2.3101,0.0,-2.2947,-2.2947,-2.2947,-2.2882,-2.275,-2.2882,-2.2882,-2.2728,-2.264,-2.2596,-2.2574,-2.2331,-2.2242,-2.222,0.0,0.0,0.0,-2.3041,-2.3639,-2.4202,-2.4202,-2.4251,-2.4325,-2.4226,-2.4276,-2.4325,-2.4226,-2.479,-2.5388,-2.5388,-2.5994,-2.6591,-2.6591,-2.6591,-2.6591,-2.6591,-2.6591,-2.6591,-2.6591,-2.6591,-2.6591,-2.6591,-2.6591,-2.6591,-2.6591,-2.7279,-2.7793,-2.7793,-2.8491,-2.9005,-2.9005,-2.9188,-2.9482,-2.9855,-3.0277,-3.0662,-3.1066,-3.13,-3.141,-3.141,-3.141,-3.141,-3.141,-3.141,-3.141,-3.141,-3.141,-3.141,-3.141,-3.141,-3.141,-3.141,-3.141,-3.141,-3.141,-3.141,0.0,-3.141,-3.141,-3.13,-3.1134,-3.1134,-3.0974,-3.0791,-3.0589,-3.0497,-3.0479,0.0,0.0,0.0,0.0,0.0,0.0,0.0,-1.9835,-2.0346,-2.0871,-2.116,-2.1556,-2.2183,-2.2485,-2.2574,0.0,0.0,0.0,0.0,0.0,0.0,0.0,0.0,0.0,0.0,0.0,0.0,-2.2947,-2.2794,0.0,0.0,0.0,0.0,0.0,-2.2618,-2.2596,-2.2397,-2.2353,-2.2331,0.0,0.0,-2.2109,0.0,0.0,0.0,0.0,0.0,-2.3474,-2.4202,-2.4202,-2.4202,-2.4202,-2.4202,-2.4202,-2.422,-2.4312,-2.4838,-2.5407,-2.5499,-2.6068,-2.6591,-2.6591,-2.6591,-2.6591,-2.6591,-2.6591,-2.6591,-2.6591,-2.6591,-2.6591,-2.6591,-2.6591,-2.6591,-2.6591,-2.7279,-2.7793,-2.7793,-2.8491,-2.9005,-2.9005,-2.9354,-2.9776,-3.0167,-3.0552,0.0,-3.1373,-3.141,0.0,-3.141,-3.141,-3.141,-3.141,-3.141,-3.141,-3.141,-3.141,-3.141,-3.141,-3.141,-3.141,-3.141,-3.141,-3.141,-3.141,-3.141,0.0,0.0,-3.141,-3.141,-3.141,-3.141,-3.141,-3.1373,-3.1061,-3.0919,-3.0864,0.0,0.0,0.0,0.0,0.0,0.0,0.0,-1.9877,-2.0209,-2.0983,-2.1111,-2.1295,-2.1717,-2.1998,-2.222,0.0,0.0,0.0,0.0,0.0,0.0,0.0,0.0,0.0,0.0,0.0,0.0,-2.2463,-2.2441,0.0,0.0,0.0,0.0,0.0,0.0,-2.2419,-2.2397,-2.2198,0.0,0.0,0.0,0.0,0.0,0.0,0.0,0.0,0.0,-2.3474,-2.4202,-2.4202,-2.4202,-2.4202,-2.4202,-2.4202,-2.4275,-2.4636,-2.5058,-2.548,-2.5855,-2.627,-2.6591,-2.6591,-2.6591,-2.6591,-2.6591,-2.6591,-2.6591,-2.6591,-2.6591,-2.6591,-2.6591,-2.6591,-2.6591,-2.6591,-2.7279,-2.7793,-2.7793,-2.8491,-2.9005,-2.9005,-2.9354,-2.9776,-3.0167,-3.0552,-3.0956,-3.1373,0.0,0.0,-3.141,-3.141,-3.141,-3.141,-3.141,-3.141,-3.141,-3.141,-3.141,-3.141,-3.141,-3.141,-3.141,-3.141,-3.141,-3.141,-3.141,0.0,0.0,-3.141,-3.141,-3.141,-3.141,-3.141,-3.141,-3.1373,-3.1355,-3.1355,0.0,0.0,0.0,0.0,0.0,0.0,-2.0243,-2.0463,-2.0738,-2.1071,-2.1306,-2.1526,-2.1668,-2.1798,-2.1887,-2.1976,0.0,0.0,0.0,0.0,0.0,0.0,0.0,0.0,0.0,0.0,-2.2397,-2.2397,-2.2287,0.0,0.0,0.0,0.0,0.0,0.0,-2.2132,-2.1976,-2.1887,0.0,0.0,0.0,0.0,0.0,0.0,0.0,0.0,0.0,0.0,-2.4202,-2.4202,-2.4202,-2.4202,-2.4202,-2.4202,-2.4293,-2.4691,-2.5076,-2.548,-2.5884,-2.6288,-2.6591,-2.6591,-2.6591,-2.6591,-2.6591,-2.6591,-2.6591,-2.6591,-2.6591,-2.6591,-2.6591,-2.6591,-2.6591,-2.6591,-2.7279,-2.7793,-2.7793,-2.8491,-2.9005,-2.9005,-2.9562,-3.002,0.0,0.0,-3.1244,-3.1391,0.0,0.0,-3.141,-3.141,-3.141,-3.141,-3.141,-3.141,-3.141,-3.141,-3.141,-3.141,-3.141,-3.141,-3.141,-3.141,-3.141,-3.141,-3.141,0.0,0.0,-3.141,-3.141,-3.141,-3.141,-3.141,-3.141,-3.141,-3.141,-3.141,0.0,0.0,0.0,0.0,0.0,-2.0219,-2.0604,-2.0688,-2.0818,-2.1229,-2.1526,-2.1687,-2.1687,-2.1687,-2.1687,-2.1687,-2.1998,0.0,0.0,0.0,0.0,0.0,0.0,0.0,0.0,0.0,-2.2198,-2.2198,-2.2043,-2.1995,0.0,0.0,-2.1865,-2.1709,0.0,0.0,0.0,0.0,0.0,0.0,0.0,0.0,0.0,0.0,0.0,0.0,0.0,0.0,0.0,0.0,0.0,-2.4202,-2.4202,-2.4202,-2.4312,-2.4819,-2.5186,-2.5517,-2.6031,-2.6398,-2.6591,-2.6591,-2.6591,-2.6591,-2.6591,-2.6591,-2.6591,-2.6591,-2.6591,-2.6591,-2.6591,-2.6591,-2.6591,-2.6591,-2.7279,-2.7793,-2.7793,-2.8491,-2.906,-2.917,-2.9764,-3.0241,-3.0369,-3.1006,-3.141,-3.141,0.0,0.0,-3.141,-3.141,-3.141,-3.141,-3.141,-3.141,-3.141,-3.141,-3.141,-3.141,-3.141,-3.141,-3.141,-3.141,-3.141,-3.141,0.0,0.0,0.0,-3.141,-3.141,-3.141,-3.141,-3.141,-3.141,-3.141,-3.141,-3.141,0.0,0.0,0.0,0.0,0.0,0.0,-2.0883,-2.0307,-2.0201,-2.1521,-2.1709,-2.1687,-2.1687,-2.1687,-2.1687,-2.1687,-2.1687,0.0,0.0,0.0,0.0,0.0,0.0,0.0,0.0,0.0,-2.1709,-2.1709,-2.1709,-2.1687,-2.1687,-2.1687,-2.1687,-2.1687,0.0,0.0,0.0,0.0,0.0,0.0,0.0,0.0,0.0,0.0,0.0,0.0,0.0,0.0,0.0,0.0,0.0,0.0,0.0,-2.4202,-2.4367,-2.515,-2.5388,-2.5572,-2.6398,-2.6618,-2.6591,-2.6591,-2.6591,-2.6591,-2.6591,-2.6591,-2.6591,-2.6591,-2.6591,-2.6591,-2.6591,-2.6591,-2.6591,-2.6591,-2.7279,-2.7793,-2.7793,-2.8491,-2.9152,-2.9556,-2.9947,-3.0351,-3.0754,-3.1171,-3.141,0.0,0.0,0.0,-3.141,-3.141,-3.141,-3.141,-3.141,-3.141,-3.141,-3.141,-3.141,-3.141,-3.141,-3.141,-3.141,-3.141,-3.141,0.0,0.0,0.0,0.0,-3.141,-3.141,-3.141,-3.141,-3.141,-3.141,-3.141,-3.141,-3.141,0.0,0.0,0.0,0.0,0.0,0.0,0.0,-2.0846,-2.0989,-2.0777,-2.1289,-2.1687,-2.1687,-2.1687,-2.1687,-2.1687,-2.1687,0.0,0.0,0.0,0.0,0.0,0.0,0.0,0.0,0.0,-2.1687,-2.1687,-2.1687,-2.1687,-2.1687,-2.1687,-2.1687,-2.1687,-2.1687,-2.1687,0.0,0.0,0.0,0.0,0.0,0.0,0.0,0.0,0.0,0.0,0.0,0.0,0.0,0.0,0.0,0.0,0.0,0.0,0.0,-2.5242,-2.5388,-2.5572,-2.6398,-2.6591,-2.6591,-2.6591,-2.6591,-2.6591,-2.6591,-2.6591,-2.6591,-2.6591,-2.6591,-2.6591,-2.6591,-2.6591,-2.6591,-2.6591,-2.7279,-2.7793,-2.7793,-2.8491,-2.906,-2.9188,-2.9782,-3.0461,0.0,0.0,-3.141,0.0,0.0,0.0,-3.141,-3.141,-3.141,-3.141,-3.141,-3.141,-3.141,-3.141,-3.141,-3.141,-3.141,-3.141,-3.141,-3.141,0.0,0.0,0.0,0.0,0.0,-3.141,-3.141,-3.141,-3.141,-3.141,-3.141,-3.141,-3.141,-3.141,0.0,0.0,0.0,0.0,0.0,0.0,0.0,-2.0235,-2.0529,-2.0325,-2.1109,-2.1687,-2.1687,-2.1687,-2.1687,-2.1687,-2.1687,0.0,0.0,0.0,0.0,0.0,0.0,0.0,0.0,-2.1687,-2.1687,-2.1687,-2.1687,-2.1687,-2.1687,-2.1687,-2.1687,-2.1687,-2.1687,-2.1687,0.0,0.0,0.0,0.0,0.0,0.0,-2.1727,0.0,0.0,0.0,0.0,0.0,0.0,0.0,0.0,0.0,0.0,0.0,0.0,0.0,-2.5499,-2.5756,-2.6408,-2.6591,-2.6591,-2.6591,-2.6591,-2.6591,-2.6591,-2.6591,-2.6591,-2.6591,-2.6591,-2.6591,-2.6591,-2.6591,-2.6591,-2.6591,-2.7279,-2.7793,-2.7793,-2.8491,-2.9104,-2.9415,-3.002,0.0,0.0,-3.141,0.0,0.0,0.0,0.0,-3.141,-3.141,-3.141,-3.141,-3.141,-3.141,-3.141,-3.141,-3.141,-3.141,-3.141,-3.141,-3.141,-3.141,0.0,0.0,0.0,0.0,0.0,-3.141,-3.141,-3.141,-3.141,-3.141,-3.141,-3.141,-3.141,-3.141,0.0,0.0,0.0,0.0,0.0,0.0,0.0,-1.8934,-1.9324,-2.019,-2.1109,-2.1687,-2.1687,-2.1687,-2.1687,-2.1687,0.0,0.0,0.0,0.0,0.0,0.0,0.0,0.0,0.0,-2.1687,-2.1687,-2.1687,-2.1687,-2.1687,-2.1687,-2.1687,-2.1687,-2.1687,-2.1687,-2.1687,0.0,0.0,0.0,0.0,0.0,0.0,0.0,0.0,0.0,0.0,0.0,0.0,0.0,0.0,0.0,0.0,0.0,0.0,0.0,0.0,0.0,0.0,0.0,-2.6591,-2.6591,-2.6591,-2.6591,-2.6591,-2.6591,-2.6591,0.0,-2.6591,-2.6591,-2.6591,-2.6591,-2.6591,-2.6591,-2.6591,-2.7279,-2.7793,-2.7793,-2.8491,-2.9287,-3.0112,-3.0516,0.0,-3.1373,-3.141,0.0,0.0,0.0,0.0,-3.141,-3.141,-3.141,-3.141,-3.141,-3.141,-3.141,-3.141,-3.141,-3.141,-3.141,-3.141,-3.141,-3.141,0.0,0.0,0.0,0.0,0.0,-3.141,-3.141,-3.141,-3.141,-3.141,-3.141,-3.141,-3.141,-3.141,0.0,0.0,0.0,0.0,0.0,0.0,0.0,0.0,0.0,0.0,-2.1109,-2.1687,-2.1687,-2.1687,-2.1687,0.0,0.0,0.0,0.0,0.0,0.0,0.0,0.0,0.0,0.0,-2.1687,-2.1687,-2.1687,-2.1687,-2.1687,-2.1687,-2.1687,-2.1687,-2.1687,-2.1687,-2.1687,0.0,0.0,0.0,0.0,0.0,0.0,0.0,0.0,0.0,0.0,-2.3462,-2.3804,0.0,0.0,0.0,0.0,0.0,0.0,0.0,0.0,-2.5902,-2.649,-2.6554,0.0,-2.6591,-2.6591,-2.6591,-2.6591,0.0,-2.6591,-2.6591,-2.6591,-2.6591,-2.6591,-2.6591,-2.6591,-2.6591,-2.6591,-2.7279,-2.7793,-2.7793,-2.8491,-2.9287,-3.0112,-3.0277,-3.0607,-3.1336,-3.141,0.0,0.0,0.0,-3.141,-3.141,-3.141,-3.141,-3.141,-3.141,-3.141,-3.141,-3.141,-3.141,-3.141,-3.141,-3.141,-3.141,-3.141,0.0,0.0,0.0,0.0,-3.141,-3.141,-3.141,-3.141,-3.141,-3.141,-3.141,-3.141,-3.141,-3.141,0.0,0.0,0.0,0.0,0.0,0.0,0.0,0.0,0.0,0.0,0.0,-2.1687,-2.1687,-2.1687,0.0,0.0,0.0,0.0,0.0,0.0,0.0,0.0,0.0,-2.1687,-2.1687,-2.1687,-2.1687,-2.1687,-2.1687,-2.1687,-2.1687,-2.1687,-2.1687,-2.1687,-2.1687,-2.1687,0.0,0.0,0.0,0.0,-2.1687,0.0,0.0,0.0,0.0,0.0,-2.3724,-2.3993,0.0,-2.4202,-2.4202,-2.4202,0.0,0.0,0.0,0.0,-2.5976,-2.6591,-2.6591,-2.6591,-2.6591,-2.6591,-2.6591,-2.6591,-2.6591,-2.6591,-2.6591,-2.6591,-2.6591,-2.6591,-2.6591,-2.6591,-2.6646,-2.6857,-2.7389,-2.7922,-2.8307,-2.8895,-2.9519,-3.013,-3.0369,-3.0717,0.0,0.0,0.0,0.0,0.0,-3.141,-3.141,-3.141,-3.141,-3.141,-3.141,-3.141,-3.141,-3.141,-3.141,-3.141,-3.141,-3.141,-3.141,-3.141,-3.141,0.0,0.0,0.0,-3.141,-3.141,-3.141,-3.141,-3.141,-3.141,-3.141,-3.141,-3.141,-3.141,0.0,0.0,0.0,0.0,0.0,0.0,0.0,0.0,0.0,0.0,0.0,0.0,0.0,0.0,0.0,0.0,0.0,0.0,0.0,0.0,0.0,0.0,0.0,-2.1687,-2.1687,-2.1687,-2.1687,-2.1687,-2.1687,-2.1687,-2.1687,-2.1687,-2.1687,-2.1687,-2.1687,-2.1687,0.0,0.0,0.0,0.0,-2.1782,0.0,0.0,0.0,0.0,0.0,0.0,0.0,0.0,-2.4202,-2.4202,-2.422,-2.4275,0.0,0.0,0.0,0.0,0.0,-2.6591,-2.6591,-2.6591,-2.6591,-2.6591,-2.6591,-2.6591,-2.6591,-2.6591,-2.6591,-2.6591,-2.6591,-2.6591,-2.6591,-2.6719,-2.7132,-2.7591,-2.816,-2.8913,-2.9299,-2.9684,-3.0149,-3.0497,0.0,0.0,0.0,0.0,0.0,0.0,-3.141,-3.141,-3.141,-3.141,-3.141,-3.141,-3.141,-3.141,-3.141,-3.141,-3.141,-3.141,-3.141,-3.141,-3.141,-3.141,0.0,0.0,0.0,-3.141,-3.141,-3.141,-3.141,-3.141,-3.141,-3.141,-3.141,-3.141,-3.141,0.0,0.0,0.0,0.0,0.0,0.0,0.0,0.0,0.0,0.0,0.0,0.0,0.0,0.0,0.0,0.0,0.0,0.0,0.0,0.0,0.0,-2.0551,-2.1266,-2.1687,-2.1687,-2.1687,-2.1687,-2.1687,-2.1687,-2.1687,-2.1687,-2.1687,-2.1687,-2.1687,-2.1687,-2.1687,-2.1687,0.0,0.0,0.0,0.0,0.0,0.0,0.0,0.0,0.0,0.0,0.0,0.0,-2.4202,-2.4202,-2.4257,-2.4599,0.0,0.0,0.0,0.0,0.0,-2.6591,-2.6591,-2.6591,-2.6591,-2.6591,-2.6591,-2.6591,-2.6591,-2.6591,-2.6591,-2.6591,-2.6591,-2.6591,-2.6591,-2.6719,-2.7132,-2.7801,-2.8462,0.0,0.0,-2.939,-3.0112,0.0,0.0,0.0,0.0,0.0,0.0,0.0,-3.141,-3.141,-3.141,-3.141,-3.141,-3.141,-3.141,-3.141,-3.141,-3.141,-3.141,-3.141,-3.141,-3.141,-3.141,-3.141,0.0,0.0,-3.141,-3.141,-3.141,-3.141,-3.141,-3.141,-3.141,-3.141,-3.141,-3.141,-3.141,0.0,0.0,0.0,0.0,0.0,0.0,0.0,0.0,0.0,0.0,0.0,0.0,0.0,0.0,0.0,0.0,0.0,0.0,0.0,0.0,0.0,-2.1042,-2.1463,-2.1687,-2.1687,-2.1687,-2.1687,-2.1687,-2.1687,-2.1687,-2.1687,-2.1687,-2.1687,-2.1687,-2.1687,-2.1687,-2.1705,-2.1925,0.0,0.0,0.0,0.0,0.0,0.0,0.0,0.0,0.0,0.0,0.0,0.0,-2.4202,-2.4275,-2.4672,0.0,0.0,0.0,0.0,0.0,-2.6591,-2.6591,-2.6591,-2.6591,-2.6591,-2.6591,-2.6591,-2.6591,-2.6591,-2.6591,-2.6591,-2.6591,-2.6591,-2.6591,-2.682,-2.7426,-2.8215,-2.8803,-2.8957,-2.9188,-2.9556,0.0,0.0,0.0,0.0,0.0,0.0,0.0,0.0,0.0,-3.141,-3.141,-3.141,-3.141,-3.141,-3.141,-3.141,-3.141,-3.141,-3.141,-3.141,-3.141,-3.141,-3.141,-3.141,-3.141,0.0,-3.141,-3.141,-3.141,-3.141,-3.141,-3.141,-3.141,-3.141,-3.141,-3.141,-3.141,0.0,0.0,0.0,0.0,0.0,0.0,0.0,0.0,0.0,0.0,0.0,0.0,0.0,0.0,0.0,0.0,0.0,0.0,0.0,0.0,-2.0844,-2.1351,-2.1575,-2.1687,-2.1687,-2.1687,-2.1687,-2.1687,-2.1687,-2.1687,-2.1687,-2.1687,-2.1687,-2.1705,-2.1819,-2.1833,-2.1874,-2.2277,-2.2442,0.0,0.0,0.0,0.0,0.0,0.0,0.0,0.0,0.0,0.0,0.0,0.0,0.0,0.0,0.0,0.0,-2.6013,-2.6361,-2.6591,-2.6591,-2.6591,-2.6591,-2.6591,-2.6591,-2.6591,-2.6591,-2.6591,-2.6591,-2.6591,-2.6591,-2.6591,-2.6591,-2.6738,-2.7114,-2.783,-2.8546,-2.9005,-2.9005,-2.928,-2.9647,-3.013,0.0,0.0,0.0,0.0,0.0,0.0,0.0,0.0,-3.141,-3.141,-3.141,-3.141,-3.141,-3.141,-3.141,-3.141,-3.141,-3.141,-3.141,-3.141,-3.141,-3.141,-3.141,-3.141,-3.141,-3.141,-3.141,-3.141,-3.141,-3.141,-3.141,-3.141,-3.141,-3.141,-3.141,-3.141,0.0,0.0,0.0,0.0,0.0,0.0,0.0,0.0,0.0,0.0,0.0,0.0,0.0,0.0,0.0,0.0,0.0,0.0,0.0,0.0,-2.1244,-2.0439,-2.1244,-2.1687,-2.1687,-2.1687,-2.1687,-2.1687,-2.1687,-2.1687,-2.1687,-2.1687,-2.1687,-2.1727,-2.2094,-2.2259,-2.2277,-2.2675,-2.2858,-2.2895,0.0,0.0,0.0,0.0,0.0,0.0,0.0,0.0,0.0,0.0,0.0,0.0,0.0,0.0,-2.6031,-2.6453,-2.6582,-2.6591,-2.6591,-2.6591,-2.6591,-2.6591,-2.6591,-2.6591,-2.6591,-2.6591,-2.6591,-2.6591,-2.6591,-2.6591,-2.6591,-2.7224,-2.7848,-2.8278,-2.87,-2.9005,-2.9005,0.0,-2.9324,0.0,0.0,0.0,0.0,0.0,0.0,0.0,0.0,0.0,-3.141,-3.141,-3.141,-3.141,-3.141,-3.141,-3.141,-3.141,-3.141,-3.141,-3.141,-3.141,-3.141,-3.141,-3.141,-3.141,-3.141,-3.141,-3.141,-3.141,-3.141,-3.141,-3.141,-3.141,-3.141,-3.141,-3.141,-3.141,0.0,0.0,0.0,0.0,0.0,0.0,0.0,0.0,0.0,0.0,0.0,0.0,0.0,0.0,0.0,0.0,0.0,0.0,0.0,-1.9826,-2.0704,-2.097,-2.0885,-2.0822,-2.0822,-2.1396,-2.1687,-2.1687,-2.1687,-2.1687,-2.1687,-2.1687,-2.1815,-2.2094,-2.224,-2.2442,-2.2693,-2.3096,-2.3279,-2.3316,-2.3767,0.0,0.0,0.0,0.0,0.0,0.0,0.0,0.0,0.0,-2.4477,-2.4874,-2.5278,-2.5664,-2.6068,-2.649,-2.6591,-2.6591,-2.6591,-2.6591,-2.6591,-2.6591,-2.6591,-2.6591,-2.6591,-2.6591,-2.6591,-2.6591,-2.6591,-2.6692,-2.693,-2.7426,-2.7922,-2.8333,-2.8718,-2.9005,-2.9005,-2.9005,0.0,0.0,0.0,0.0,0.0,0.0,0.0,0.0,0.0,0.0,-3.141,-3.141,-3.141,-3.141,-3.141,-3.141,-3.141,-3.141,-3.141,-3.141,-3.141,-3.141,-3.141,-3.141,-3.141,-3.141,-3.141,-3.141,-3.141,-3.141,-3.141,-3.141,-3.141,-3.141,-3.141,-3.141,-3.141,-3.141,0.0,0.0,0.0,0.0,0.0,0.0,0.0,0.0,0.0,0.0,0.0,0.0,0.0,0.0,0.0,0.0,0.0,0.0,-1.8496,-1.9758,-2.0501,-2.0586,-2.0682,-2.0666,-2.0474,-2.1419,-2.168,-2.1244,-2.168,-2.1892,-2.1892,-2.2016,-2.2217,-2.2474,-2.2625,-2.2821,-2.3114,-2.3541,-2.3706,-2.3767,-2.4067,-2.4202,0.0,0.0,0.0,0.0,0.0,0.0,0.0,0.0,-2.4654,-2.5058,-2.5462,-2.5866,-2.6233,-2.6527,-2.6591,-2.6591,-2.6591,-2.6591,-2.6591,-2.6591,-2.6591,-2.6591,-2.6591,-2.6591,-2.6591,-2.6591,-2.6683,-2.6912,-2.7316,-2.772,-2.8124,0.0,-2.881,-2.9005,-2.9005,-2.9005,0.0,0.0,0.0,0.0,0.0,0.0,0.0,0.0,0.0,0.0,0.0,-3.141,-3.141,-3.141,-3.141,-3.141,-3.141,-3.141,-3.141,-3.141,-3.141,-3.141,-3.141,-3.141,-3.141,-3.141,-3.141,-3.141,-3.141,-3.141,-3.141,-3.141,-3.141,-3.141,-3.141,-3.141,-3.141,-3.141,0.0,0.0,0.0,0.0,0.0,0.0,0.0,0.0,0.0,0.0,0.0,0.0,0.0,0.0,0.0,0.0,0.0,0.0,-1.8865,-2.0614,-2.0835,-1.8888,-2.0659,-2.1459,-2.0933,-2.1831,-2.1639,-2.0303,-2.1661,-2.2314,-2.2314,-2.2712,-2.2913,-2.2931,-2.3316,-2.3499,-2.3535,-2.4012,-2.4202,-2.4202,-2.4202,-2.4202,-2.4202,0.0,0.0,0.0,0.0,0.0,0.0,0.0,-2.5076,-2.548,-2.5866,-2.627,-2.6591,-2.6591,-2.6591,-2.6591,-2.6591,-2.6591,-2.6591,-2.6591,-2.6591,-2.6591,-2.6591,-2.6591,-2.6591,-2.6591,-2.693,-2.7334,-2.772,-2.8142,-2.8517,-2.892,-2.9005,-2.9005,-2.9005,0.0,0.0,0.0,0.0,0.0,0.0,0.0,0.0,0.0,0.0,0.0,0.0,-3.141,-3.141,-3.141,-3.141,-3.141,-3.141,-3.141,-3.141,-3.141,-3.141,-3.141,-3.141,-3.141,-3.141,-3.141,-3.141,-3.141,-3.141,-3.141,-3.141,-3.141,-3.141,-3.141,-3.141,-3.141,-3.141,-3.141,0.0,0.0,0.0,0.0,0.0,0.0,0.0,0.0,0.0,0.0,0.0,0.0,0.0,0.0,0.0,0.0,0.0,0.0,-1.8105,-2.0004,-2.0874,-2.0305,-2.1109,-2.1491,-2.1328,-2.1589,-2.1866,-2.2134,-2.2517,-2.2712,-2.273,-2.284,-2.3059,-2.3316,-2.3444,-2.3669,-2.4012,-2.4146,-2.4202,-2.4202,-2.4202,-2.4202,-2.4202,0.0,0.0,0.0,0.0,0.0,0.0,0.0,0.0,0.0,-2.5939,-2.627,-2.6591,-2.6591,-2.6591,-2.6591,-2.6591,-2.6591,-2.6591,-2.6591,-2.6591,-2.6591,-2.6591,-2.6591,-2.6591,-2.6591,-2.693,-2.7334,-2.772,-2.8142,-2.8517,-2.892,-2.9005,-2.9005,0.0,0.0,0.0,0.0,0.0,0.0,0.0,0.0,0.0,0.0,0.0,0.0,0.0,-3.141,-3.141,-3.141,-3.141,-3.141,-3.141,-3.141,-3.141,-3.141,-3.141,-3.141,-3.141,-3.141,-3.141,-3.141,-3.141,-3.141,-3.141,-3.141,-3.141,-3.141,-3.141,-3.141,-3.141,-3.141,-3.141,-3.141,0.0,0.0,0.0,0.0,0.0,0.0,0.0,0.0,0.0,0.0,0.0,0.0,0.0,0.0,0.0,0.0,0.0,0.0,0.0,-2.0136,-2.0908,-2.0547,-2.1507,-2.2119,-2.2284,-2.1935,-2.2289,-2.3437,-2.3224,-2.3151,-2.3151,-2.334,-2.3565,-2.3785,-2.3785,-2.3938,-2.4202,-2.4202,-2.4202,-2.4202,-2.4202,-2.4202,-2.4202,0.0,0.0,0.0,0.0,0.0,0.0,0.0,0.0,0.0,-2.6178,-2.6416,-2.6591,-2.6591,-2.6591,-2.6591,-2.6591,-2.6591,-2.6591,-2.6591,-2.6591,-2.6591,-2.6591,-2.6591,-2.6591,-2.6591,-2.7059,-2.7518,-2.7757,-2.8271,0.0,-2.8968,-2.9005,-2.9005,0.0,0.0,0.0,0.0,0.0,0.0,0.0,0.0,0.0,0.0,0.0,0.0,0.0,-3.141,-3.141,-3.141,-3.141,-3.141,-3.141,-3.141,-3.141,-3.141,-3.141,-3.141,-3.141,-3.141,-3.141,-3.141,-3.141,-3.141,-3.141,-3.141,-3.141,-3.141,-3.141,-3.141,-3.141,-3.141,-3.141,-3.141,0.0,0.0,0.0,0.0,0.0,0.0,0.0,0.0,0.0,0.0,0.0,0.0,0.0,0.0,0.0,0.0,0.0,0.0,0.0,0.0,-2.1057,-2.0257,-2.1987,-2.3164,-2.3511,-2.2671,-2.2862,-2.4152,-2.3736,-2.3553,-2.3578,-2.4012,-2.4202,-2.4202,-2.4202,-2.4202,-2.4202,-2.4202,-2.4202,-2.4202,-2.4202,-2.422,-2.4257,-2.4257,0.0,0.0,0.0,0.0,0.0,0.0,0.0,0.0,-2.6463,-2.6591,-2.6591,-2.6591,-2.6591,-2.6591,-2.6591,-2.6591,-2.6591,-2.6591,-2.6591,-2.6591,-2.6591,-2.6591,-2.6591,-2.6591,-2.7243,-2.7793,-2.7793,-2.8454,-2.9005,-2.9005,-2.9005,0.0,0.0,0.0,0.0,0.0,0.0,0.0,0.0,0.0,0.0,0.0,0.0,0.0,0.0,-3.141,-3.141,-3.141,-3.141,-3.141,-3.141,-3.141,-3.141,0.0,-3.141,-3.141,-3.141,-3.141,-3.141,-3.141,-3.141,-3.141,-3.141,-3.141,-3.141,-3.141,-3.141,-3.141,-3.141,-3.141,-3.141,-3.141,0.0,0.0,0.0,0.0,0.0,0.0,0.0,0.0,0.0,0.0,0.0,0.0,0.0,0.0,0.0,0.0,0.0,0.0,0.0,0.0,-2.2153,-2.1979,-2.3015,-2.3662,-2.3727,-2.3327,-2.3381,-2.3879,-2.3788,-2.3851,-2.4048,-2.4165,-2.4202,-2.4202,-2.4202,-2.4202,-2.4202,-2.4202,-2.4202,-2.4202,-2.4202,-2.4404,-2.4672,-2.4672,-2.4929,0.0,0.0,0.0,0.0,0.0,0.0,0.0,-2.6554,-2.6591,-2.6591,-2.6591,-2.6591,-2.6591,-2.6591,-2.6591,-2.6591,-2.6591,-2.6591,-2.6591,-2.6591,-2.6591,-2.6591,-2.6591,-2.7243,-2.7793,-2.7793,-2.8454,-2.9005,-2.9005,-2.9005,0.0,0.0,0.0,0.0,0.0,0.0,0.0,0.0,0.0,0.0,0.0,0.0,0.0,-3.141,-3.141,-3.141,-3.141,-3.141,-3.141,-3.141,-3.141,-3.141,0.0,-3.141,-3.141,-3.141,-3.141,-3.141,-3.141,-3.141,-3.141,-3.141,-3.141,-3.141,-3.141,-3.141,-3.141,-3.141,-3.141,-3.141,-3.141,0.0,0.0,0.0,0.0,0.0,0.0,0.0,0.0,0.0,0.0,0.0,0.0,0.0,0.0,0.0,0.0,0.0,0.0,0.0,0.0,-2.2139,-2.3088,-2.2912,-2.3038,-2.3605,-2.2937,-2.2987,-2.3805,-2.3805,-2.3954,-2.4202,-2.4202,-2.4202,-2.4202,-2.4202,-2.4202,-2.4202,-2.4202,-2.4312,-2.4471,-2.4471,-2.4728,-2.5095,-2.5095,-2.5333,-2.5682,-2.5682,0.0,0.0,0.0,0.0,0.0,0.0,0.0,-2.6591,-2.6591,-2.6591,-2.6591,-2.6591,-2.6591,-2.6591,-2.6591,-2.6591,-2.6591,-2.6591,-2.6591,-2.6591,-2.6591,-2.7243,-2.7793,-2.7793,-2.8454,-2.9005,-2.9005,0.0,0.0,0.0,0.0,0.0,0.0,0.0,0.0,0.0,0.0,0.0,0.0,0.0,-3.141,-3.141,-3.141,-3.141,-3.141,-3.141,-3.141,-3.141,-3.141,-3.141,-3.141,-3.141,-3.141,-3.141,-3.141,-3.141,-3.141,-3.141,-3.141,-3.141,-3.141,-3.141,-3.141,-3.141,-3.141,-3.141,-3.141,-3.141,-3.141,0.0,0.0,0.0,0.0,0.0,0.0,0.0,0.0,0.0,0.0,0.0,0.0,0.0,0.0,0.0,0.0,0.0,0.0,0.0,0.0,0.0,-2.3655,-2.256,-2.2384,-2.3381,-2.2434,-2.2535,-2.3805,-2.3805,-2.3954,-2.4202,-2.4202,-2.4202,-2.4202,-2.4275,-2.4312,-2.4312,-2.4385,-2.4581,-2.4911,-2.4911,-2.515,-2.5499,-2.5499,-2.5737,-2.6086,-2.6086,-2.6325,-2.6591,-2.6591,0.0,0.0,0.0,0.0,-2.6591,-2.6591,-2.6591,-2.6591,-2.6591,-2.6591,-2.6591,-2.6591,-2.6591,-2.6591,-2.6591,-2.6591,-2.6591,-2.6591,-2.7243,-2.7793,-2.7793,-2.8454,-2.9005,-2.9005,0.0,0.0,0.0,0.0,0.0,0.0,0.0,0.0,0.0,0.0,0.0,0.0,0.0,-3.141,-3.141,-3.141,-3.141,-3.141,-3.141,-3.141,-3.141,-3.141,-3.141,-3.141,-3.141,-3.141,-3.141,-3.141,-3.141,-3.141,-3.141,-3.141,-3.141,-3.141,-3.141,-3.141,-3.141,-3.141,-3.141,-3.141,-3.141,-3.141,0.0,0.0,0.0,0.0,0.0,0.0,0.0,0.0,0.0,0.0,-1.7855,0.0,0.0,0.0,0.0,0.0,0.0,0.0,0.0,0.0,0.0,-2.3456,-2.3038,-2.3013,-2.3406,-2.3013,-2.3138,-2.3805,-2.3805,-2.3954,-2.4202,-2.4202,-2.4202,-2.422,-2.4562,-2.4728,-2.4746,-2.5095,-2.526,-2.5315,-2.5315,-2.5554,-2.5929,-2.5929,-2.6159,-2.6527,-2.6527,-2.6536,-2.6591,-2.6591,-2.6591,0.0,0.0,0.0,-2.6591,-2.6591,-2.6591,-2.6591,-2.6591,-2.6591,-2.6591,-2.6591,-2.6591,-2.6591,-2.6591,-2.6591,-2.6591,-2.6591,-2.7243,-2.7793,-2.7793,-2.8454,-2.9005,0.0,0.0,0.0,0.0,0.0,0.0,0.0,0.0,0.0,0.0,0.0,0.0,0.0,-3.141,-3.141,-3.141,-3.141,-3.141,-3.141,-3.141,-3.141,-3.141,-3.141,-3.141,-3.141,-3.141,-3.141,-3.141,-3.141,-3.141,-3.141,-3.141,-3.141,-3.141,-3.141,-3.141,-3.141,-3.141,-3.141,-3.141,-3.141,-3.141,-3.141,0.0,0.0,0.0,0.0,0.0,0.0,0.0,0.0,0.0,0.0,0.0,-1.8942,0.0,0.0,0.0,0.0,0.0,0.0,0.0,0.0,0.0,-2.2485,-2.2937,-2.3311,-2.3497,-2.3039,-2.3245,-2.4174,-2.3668,-2.3796,-2.4583,-2.4583,-2.4575,-2.4544,-2.4948,-2.5131,-2.515,-2.5315,-2.5517,-2.5737,-2.5737,-2.5976,-2.6343,-2.6343,-2.6453,-2.6591,-2.6591,-2.6591,-2.6591,-2.6591,-2.6591,-2.6591,-2.6591,0.0,0.0,0.0,-2.6591,-2.6591,-2.6591,-2.6591,-2.6591,-2.6591,-2.6591,-2.6591,-2.6591,-2.6591,-2.6591,-2.6591,-2.7243,-2.7793,-2.7793,-2.8454,-2.9005,0.0,0.0,0.0,0.0,0.0,0.0,0.0,0.0,0.0,0.0,0.0,0.0,0.0,-3.141,-3.141,-3.141,-3.141,-3.141,-3.141,-3.141,-3.141,-3.141,-3.141,-3.141,-3.141,-3.141,-3.141,-3.141,-3.141,-3.141,-3.141,-3.141,-3.141,-3.141,-3.141,-3.141,-3.141,-3.141,-3.1524,-3.1726,-3.1726,-3.1873,-3.2056,0.0,0.0,0.0,0.0,0.0,0.0,0.0,0.0,0.0,0.0,0.0,0.0,0.0,0.0,0.0,0.0,0.0,0.0,0.0,0.0,0.0,-2.2468,-2.3259,-2.3628,-2.3488,-2.3228,-2.3426,-2.4149,-2.3701,-2.3965,-2.4901,-2.493,-2.5005,-2.5113,-2.5347,-2.5423,-2.5423,-2.5532,-2.5786,-2.6141,-2.6141,-2.6325,-2.6591,-2.6591,-2.6591,-2.6591,-2.6591,-2.6591,-2.6591,-2.6591,-2.6591,-2.6591,-2.6591,-2.6591,0.0,0.0,0.0,-2.6591,-2.6591,-2.6591,-2.6591,-2.6591,-2.6591,-2.6591,-2.6591,-2.6591,-2.6591,-2.6591,-2.7169,-2.7683,-2.7775,-2.8454,-2.9005,0.0,0.0,0.0,0.0,0.0,0.0,0.0,0.0,0.0,0.0,0.0,0.0,0.0,-3.1355,-3.141,-3.141,-3.141,-3.141,-3.141,-3.141,-3.141,-3.141,-3.141,-3.141,-3.141,-3.141,-3.141,-3.141,-3.141,-3.141,-3.141,-3.141,-3.141,-3.1428,-3.152,-3.1543,-3.1543,-3.1685,-3.1873,-3.2148,-3.2148,-3.2349,-3.2588,0.0,0.0,0.0,0.0,0.0,0.0,0.0,0.0,0.0,0.0,0.0,0.0,0.0,0.0,-2.261,-2.2661,0.0,0.0,0.0,0.0,0.0,-2.4429,-2.4525,0.0,-2.3243,-2.4,-2.4,-2.3181,-2.4018,-2.4587,-2.4901,-2.5032,-2.5379,-2.5921,-2.5638,-2.5496,-2.5514,-2.5901,-2.6245,-2.6554,-2.6554,-2.6573,-2.6591,-2.6591,-2.6591,0.0,0.0,-2.6591,-2.6591,-2.6591,-2.6591,-2.6591,-2.6591,-2.6591,-2.6591,0.0,0.0,0.0,-2.6591,-2.6591,-2.6591,-2.6591,-2.6591,-2.6591,-2.6591,-2.6591,-2.6591,-2.6591,-2.6949,-2.7353,-2.772,-2.8454,-2.9005,0.0,0.0,0.0,0.0,0.0,0.0,0.0,0.0,0.0,0.0,0.0,0.0,0.0,-3.1189,-3.141,-3.141,-3.141,-3.141,-3.141,-3.141,-3.141,-3.141,-3.141,-3.141,-3.141,-3.141,-3.141,-3.141,-3.141,-3.141,-3.141,-3.141,-3.141,-3.1446,-3.1799,-3.1983,-3.2019,-3.2386,-3.2551,-3.257,-3.257,-3.257,-3.2588,0.0,0.0,0.0,0.0,0.0,0.0,0.0,0.0,0.0,0.0,0.0,0.0,0.0,-2.2079,-2.3268,-2.3084,-2.3817,0.0,0.0,0.0,0.0,-2.3807,-2.443,-2.4685,-2.4427,-2.3971,-2.3965,-2.4449,-2.4231,-2.4449,-2.5091,-2.5358,-2.5593,-2.5811,-2.5865,-2.6001,-2.6209,-2.6354,-2.6491,-2.6591,-2.6591,-2.6591,-2.6591,-2.6591,0.0,0.0,0.0,0.0,-2.6591,-2.6591,-2.6591,0.0,0.0,0.0,-2.6591,-2.6591,-2.6591,-2.6591,-2.6591,-2.6591,-2.6591,-2.6591,-2.6591,-2.6591,-2.6591,-2.6591,-2.6591,-2.6591,-2.693,-2.7334,-2.772,-2.8252,-2.8682,0.0,0.0,0.0,0.0,0.0,0.0,0.0,0.0,0.0,0.0,0.0,0.0,0.0,0.0,-3.141,-3.141,-3.141,-3.141,-3.141,-3.141,-3.141,-3.141,-3.141,-3.141,-3.141,-3.141,-3.141,-3.141,-3.141,-3.141,-3.1428,-3.1671,-3.1781,-3.1799,-3.1946,-3.2148,-3.2404,-3.2533,-3.2771,-3.2991,-3.2991,-3.3156,-3.3376,0.0,0.0,0.0,0.0,0.0,0.0,0.0,0.0,0.0,0.0,0.0,0.0,0.0,0.0,-2.3603,-2.4061,-2.4712,-2.4845,-2.4293,-2.4952,-2.5032,-2.4266,-2.4845,-2.5023,-2.4691,-2.4081,-2.4118,-2.4778,-2.4255,-2.4465,-2.5358,-2.5486,-2.5651,-2.5844,-2.5926,-2.6136,-2.6409,-2.6409,-2.6509,-2.6591,-2.6591,-2.6591,-2.6591,-2.6591,-2.6537,0.0,0.0,0.0,0.0,0.0,0.0,0.0,0.0,0.0,0.0,0.0,-2.6591,-2.6591,-2.6591,-2.6591,-2.6591,-2.6591,-2.6591,-2.6591,-2.6591,-2.6591,-2.6591,-2.6591,-2.6793,-2.7132,-2.7518,-2.794,-2.8352,0.0,0.0,0.0,0.0,0.0,0.0,0.0,0.0,0.0,0.0,0.0,0.0,0.0,0.0,0.0,-3.141,-3.141,-3.141,-3.141,-3.141,-3.141,-3.141,-3.141,-3.141,-3.141,-3.141,-3.141,-3.141,-3.141,-3.1451,-3.1598,-3.1891,-3.2001,-3.2019,-3.2294,-3.257,-3.2826,-3.2955,-3.3175,-3.3379,-3.3379,-3.3562,-3.3817,0.0,0.0,0.0,0.0,0.0,0.0,0.0,0.0,0.0,-2.071,0.0,0.0,0.0,0.0,0.0,-2.5561,-2.5953,-2.609,-2.609,-2.609,-2.6108,-2.6108,0.0,0.0,-2.3955,-2.4436,-2.4436,-2.3871,-2.4118,-2.4709,-2.5624,-2.5331,-2.5541,-2.6063,-2.5816,-2.5844,-2.609,-2.609,-2.63,-2.6591,-2.6591,-2.6591,-2.6591,-2.6591,-2.6382,0.0,-2.6482,-2.6382,0.0,-2.6491,0.0,0.0,0.0,0.0,0.0,0.0,0.0,-2.6591,0.0,0.0,0.0,-2.6591,-2.6591,-2.6591,-2.6591,-2.6591,-2.6591,-2.6591,-2.6591,-2.6719,-2.7132,-2.7518,-2.805,0.0,0.0,0.0,0.0,0.0,0.0,0.0,0.0,0.0,0.0,0.0,0.0,0.0,-3.0552,-3.0956,-3.1373,-3.141,-3.141,-3.141,-3.141,-3.141,-3.141,-3.141,-3.141,-3.141,-3.141,-3.141,-3.141,-3.141,-3.1616,-3.2001,-3.2019,-3.2038,-3.2111,-3.2866,-3.3196,-3.3251,-3.367,-3.3817,-3.3817,-3.3817,-3.3817,-3.3817,0.0,0.0,0.0,0.0,0.0,0.0,0.0,0.0,0.0,0.0,0.0,0.0,-2.3959,-2.4957,-2.5791,-2.63,-2.619,-2.609,-2.609,-2.5926,-2.5816,-2.5816,-2.5514,-2.5165,-2.4861,-2.482,-2.4278,-2.3255,-2.4371,-2.462,-2.4067,-2.5083,-2.5651,-2.5816,-2.5926,-2.6035,-2.609,-2.609,-2.63,-2.6591,-2.6591,-2.6591,-2.6591,-2.6591,-2.6537,0.0,0.0,-2.6537,-2.6482,0.0,-2.6591,-2.6591,0.0,0.0,0.0,0.0,0.0,0.0,-2.6591,0.0,0.0,0.0,0.0,0.0,0.0,0.0,-2.6591,-2.6591,-2.6591,-2.6719,-2.7132,-2.7298,-2.7628,0.0,0.0,0.0,0.0,0.0,0.0,0.0,0.0,0.0,0.0,0.0,0.0,0.0,-3.0418,-3.0846,-3.0937,-3.1263,-3.141,-3.141,-3.141,-3.141,-3.141,-3.141,-3.141,-3.141,-3.141,-3.141,-3.141,-3.141,-3.1616,-3.2019,-3.2313,-3.2606,-3.2866,-3.3104,-3.336,-3.367,-3.378,-3.3817,-3.3817,-3.3817,-3.3817,-3.3817,0.0,0.0,0.0,0.0,0.0,0.0,0.0,0.0,0.0,0.0,0.0,0.0,-2.4055,-2.5238,-2.6026,-2.6026,-2.5953,-2.5926,-2.5926,-2.5651,-2.5486,-2.5486,-2.521,-2.5017,-2.5017,-2.4713,-2.4338,-2.3927,-2.4652,-2.4707,-2.4178,-2.5193,-2.5706,-2.5706,-2.5844,-2.6081,-2.63,-2.6053,-2.619,-2.6591,-2.6591,-2.6591,-2.6591,-2.6591,-2.6491,0.0,0.0,0.0,-2.6245,-2.6537,-2.6591,0.0,0.0,0.0,0.0,0.0,0.0,0.0,0.0,0.0,0.0,0.0,0.0,0.0,-2.6591,-2.6591,-2.6591,0.0,-2.6591,-2.6664,-2.6912,-2.7096,-2.7353,0.0,0.0,0.0,0.0,0.0,0.0,0.0,0.0,0.0,0.0,-2.9225,-2.9427,-2.9592,-3.0198,-3.0681,-3.1011,-3.1281,-3.141,-3.141,-3.141,-3.141,-3.141,-3.141,-3.141,-3.141,-3.141,-3.141,-3.141,-3.141,-3.1689,-3.2258,-3.2496,-3.2918,-3.3434,-3.3434,-3.3596,-3.3817,-3.3817,-3.3817,-3.3817,-3.3817,-3.3817,-3.3817,0.0,0.0,0.0,0.0,0.0,0.0,0.0,-2.3676,0.0,0.0,-2.3899,-2.3648,-2.3424,-2.4584,-2.5331,0.0,-2.5541,-2.5706,-2.5706,-2.5376,-2.5193,-2.5248,-2.4989,-2.4868,-2.4896,-2.4497,-2.4535,-2.5,-2.4825,-2.4825,-2.5083,-2.5514,-2.5706,-2.5734,-2.5734,-2.6053,-2.6509,-2.5971,-2.6081,-2.6591,-2.6564,-2.6537,-2.6537,-2.6537,-2.6354,-2.6136,-2.6382,-2.6163,-2.5789,-2.6354,-2.6537,0.0,0.0,0.0,0.0,0.0,-2.6537,0.0,0.0,0.0,0.0,0.0,0.0,0.0,-2.6591,-2.6591,-2.6591,0.0,-2.6591,-2.6591,-2.6591,-2.6885,-2.7151,0.0,0.0,0.0,0.0,0.0,0.0,0.0,0.0,0.0,-2.9005,-2.9005,-2.9152,-2.9519,-2.9947,-3.0534,-3.13,-3.1391,-3.141,-3.141,-3.141,-3.141,-3.141,-3.141,-3.141,-3.141,-3.141,-3.141,-3.141,-3.141,-3.185,-3.2588,-3.2588,-3.3065,-3.3817,-3.3817,-3.3817,-3.3817,-3.3817,-3.3817,-3.3817,-3.3817,-3.3817,-3.3817,0.0,0.0,0.0,0.0,0.0,0.0,0.0,-2.334,-2.4011,-2.5193,-2.5706,-2.5971,-2.5916,-2.6163,-2.6218,0.0,-2.5789,-2.5706,-2.5706,-2.5173,-2.509,-2.5569,-2.5293,-2.5238,-2.5514,-2.5178,-2.4582,-2.376,-2.445,-2.4561,-2.4195,-2.5193,-2.5816,-2.6008,-2.6008,-2.6108,-2.619,-2.6081,-2.6245,-2.6591,-2.63,-2.6218,-2.6218,-2.6218,-2.6163,-2.6063,-2.5926,-2.5806,-2.5734,-2.6081,-2.6053,-2.5898,0.0,0.0,0.0,-2.6136,0.0,0.0,0.0,0.0,0.0,0.0,0.0,0.0,-2.6591,-2.6591,-2.6591,0.0,-2.6591,-2.6591,-2.6591,-2.6646,-2.6811,0.0,0.0,0.0,0.0,0.0,0.0,0.0,0.0,0.0,-2.9005,-2.9005,-2.9042,-2.9115,-2.9782,-3.0406,-3.0882,-3.1212,-3.141,-3.141,-3.141,-3.141,-3.141,-3.141,-3.141,-3.141,-3.141,-3.141,-3.141,-3.141,-3.185,-3.2588,-3.2588,-3.3065,-3.3817,-3.3817,-3.3817,-3.3817,-3.3817,-3.3817,-3.3817,-3.3817,-3.3817,-3.3817,0.0,0.0,0.0,0.0,0.0,0.0,0.0,0.0,-2.4612,-2.4778,-2.5431,-2.5898,-2.5898,-2.6163,-2.6272,-2.6118,0.0,0.0,0.0,-2.52,-2.4979,-2.5431,-2.5155,-2.5072,-2.5255,-2.509,-2.4768,-2.4289,-2.4934,-2.51,-2.4806,-2.5431,-2.5844,-2.6108,-2.5789,-2.5898,-2.6327,-2.6026,-2.5999,-2.6163,-2.63,-2.6354,-2.6354,-2.6354,-2.6354,-2.63,-2.6026,-2.5816,-2.5679,-2.5651,-2.5679,0.0,-2.5844,-2.5789,-2.5734,0.0,-2.5898,-2.5953,0.0,0.0,0.0,-2.6564,0.0,0.0,0.0,-2.6464,-2.6382,-2.6564,-2.6591,-2.6591,-2.6591,-2.6591,-2.6673,-2.6875,0.0,0.0,0.0,0.0,0.0,0.0,0.0,0.0,-2.9005,-2.9005,-2.9097,-2.9299,-2.9855,-3.0369,-3.0772,-3.1189,-3.141,-3.141,-3.141,-3.141,-3.141,-3.141,-3.141,-3.141,-3.141,-3.141,-3.141,-3.141,-3.185,-3.2588,-3.2588,-3.3065,-3.3817,-3.3817,-3.3817,-3.3817,-3.3817,-3.3817,-3.3817,-3.3817,-3.3817,-3.3817,-2.415,-2.5221,0.0,0.0,0.0,0.0,0.0,0.0,-2.5459,-2.4529,-2.5027,-2.5469,-2.5469,-2.5898,-2.619,-2.6108,-2.5898,0.0,0.0,-2.5366,-2.509,-2.5358,-2.5173,-2.509,-2.5162,-2.509,-2.5173,-2.5358,-2.5541,-2.5624,-2.5706,-2.5624,-2.5789,-2.6063,-2.5541,-2.5734,-2.6464,-2.5944,-2.5734,-2.5816,-2.63,-2.6409,-2.6327,-2.64,-2.6427,-2.6382,-2.6136,-2.5844,-2.5569,-2.5358,-2.5404,-2.5559,-2.5596,-2.5569,0.0,0.0,0.0,0.0,0.0,0.0,0.0,0.0,0.0,-2.6108,0.0,0.0,0.0,-2.6436,-2.6564,0.0,0.0,0.0,0.0,0.0,0.0,0.0,0.0,0.0,0.0,0.0,0.0,0.0,0.0,-2.9005,-2.9122,-2.9464,-2.9868,-3.0259,-3.0662,-3.1079,-3.1336,-3.141,-3.141,-3.141,-3.141,-3.141,-3.141,-3.141,-3.141,-3.141,-3.141,-3.141,-3.185,-3.2588,-3.2588,-3.3065,-3.3817,-3.3817,-3.3817,-3.3817,-3.3817,-3.3817,-3.3817,-3.3817,-3.3817,-3.3817,-2.2633,-2.3351,-2.4223,0.0,0.0,0.0,0.0,0.0,-2.6108,-2.6272,-2.6382,-2.6455,-2.6455,-2.6509,-2.6409,-2.6136,-2.6063,-2.5953,-2.5761,-2.5651,-2.5706,-2.5981,-2.5953,-2.6081,-2.64,-2.6108,-2.5953,-2.5981,-2.5514,-2.5404,-2.5679,-2.5404,-2.5569,-2.6108,-2.5761,-2.5816,-2.6136,-2.5816,-2.5844,-2.6063,-2.6136,-2.5844,0.0,-2.5679,-2.5789,-2.5806,-2.5761,-2.5541,-2.5303,0.0,-2.5311,-2.4951,0.0,-2.51,-2.4951,-2.5183,0.0,0.0,0.0,0.0,0.0,0.0,-2.5761,0.0,0.0,0.0,-2.6108,-2.6163,0.0,0.0,0.0,0.0,0.0,0.0,0.0,0.0,0.0,0.0,0.0,0.0,0.0,0.0,0.0,-2.9005,-2.9023,-2.9048,-2.9445,-2.9849,-3.0241,-3.0644,-3.1043,-3.1391,-3.141,-3.141,-3.141,-3.141,-3.141,-3.141,-3.141,-3.141,-3.141,-3.141,-3.185,-3.2588,-3.2588,-3.3065,-3.3817,-3.3817,-3.3817,-3.3817,-3.3817,-3.3817,-3.3817,-3.3817,-3.3817,-3.3817,-2.3911,-2.4623,-2.5459,0.0,0.0,0.0,0.0,0.0,-2.6108,-2.6081,-2.6218,-2.63,-2.63,-2.6482,-2.6537,-2.6382,-2.6218,-2.6136,-2.6218,-2.5871,0.0,-2.5844,-2.5679,-2.5569,-2.5559,-2.5421,-2.5404,-2.5596,-2.5331,-2.5441,-2.5926,-2.5624,-2.5706,-2.6108,-2.5816,-2.5844,-2.609,-2.5981,-2.6124,-2.646,-2.646,-2.6353,0.0,-2.6467,-2.6511,-2.637,-2.6183,-2.6014,-2.5929,0.0,-2.5929,0.0,0.0,0.0,0.0,-2.5003,0.0,0.0,0.0,0.0,0.0,0.0,0.0,0.0,-2.5651,0.0,-2.5679,0.0,0.0,0.0,0.0,0.0,0.0,0.0,-2.6508,0.0,0.0,0.0,0.0,0.0,0.0,0.0,0.0,0.0,0.0,0.0,-2.9372,-2.9794,-3.0185,-3.0571,-3.0974,-3.1391,-3.141,-3.141,-3.141,-3.141,-3.141,-3.141,-3.141,-3.141,-3.141,-3.141,-3.185,-3.2588,-3.2588,-3.3065,-3.3817,-3.3817,-3.3817,-3.3817,-3.3817,-3.3817,-3.3817,-3.3817,-3.3817,-3.3817,-2.5459,-2.5999,-2.6591,-2.6591,-2.6591,0.0,0.0,-2.6382,-2.6199,-2.6115,-2.6298,-2.6444,-2.6553,-2.6792,-2.693,-2.693,-2.6618,-2.6463,-2.6628,-2.6107,-2.5789,-2.5789,-2.5596,-2.5404,-2.5283,-2.5283,-2.5338,-2.5441,-2.5358,-2.5496,-2.5844,-2.5586,-2.5614,-2.5844,-2.5734,-2.5887,-2.617,-2.6225,-2.6487,-2.6875,-2.6875,-2.7042,-2.729,-2.7179,-2.7074,-2.6982,-2.6619,-2.6475,-2.6417,-2.6417,-2.6331,0.0,-2.5989,0.0,0.0,0.0,0.0,0.0,-2.5374,0.0,0.0,0.0,0.0,0.0,0.0,0.0,0.0,0.0,0.0,0.0,0.0,0.0,0.0,0.0,0.0,-2.6554,0.0,0.0,0.0,0.0,0.0,0.0,0.0,0.0,0.0,-2.9005,-2.928,-2.9666,-3.0167,-3.0479,-3.0864,-3.1391,-3.141,-3.141,-3.141,-3.141,-3.141,-3.141,-3.141,-3.141,-3.141,-3.1506,-3.1928,-3.2606,-3.2716,-3.3175,-3.3817,-3.3817,-3.3817,-3.3817,-3.3817,-3.3817,-3.3817,-3.3817,-3.3817,-3.3817,-2.6564,-2.6564,-2.6591,-2.6591,-2.6591,-2.6591,-2.6591,-2.6591,-2.6719,-2.7105,-2.716,-2.7306,-2.772,-2.7757,-2.7757,-2.7757,-2.7408,-2.703,-2.6723,-2.6306,-2.6108,-2.6108,0.0,-2.6218,-2.6537,-2.6537,-2.6382,-2.6063,-2.5816,-2.5541,-2.5221,-2.4951,-2.4979,-2.5248,-2.5569,-2.5919,-2.6313,-2.6565,-2.6901,-2.7279,-2.7279,-2.7716,-2.8246,0.0,-2.7079,-2.724,-2.6907,0.0,0.0,-2.6417,-2.6186,0.0,0.0,0.0,0.0,0.0,0.0,0.0,0.0,0.0,0.0,-2.4915,0.0,0.0,0.0,0.0,-2.5193,0.0,0.0,0.0,0.0,0.0,0.0,0.0,0.0,0.0,0.0,0.0,0.0,0.0,0.0,0.0,0.0,0.0,0.0,-2.9005,-2.9023,-2.936,-3.0167,-3.0204,-3.0571,-3.1373,-3.141,-3.141,-3.141,-3.141,-3.141,-3.141,-3.141,-3.141,-3.1428,-3.1799,-3.2203,-3.2625,-3.3028,-3.3431,-3.3817,-3.3817,-3.3817,-3.3817,-3.3817,-3.3817,-3.3817,-3.3817,-3.3817,-3.3817,-2.7389,-2.7389,-2.7224,-2.6683,-2.6591,-2.671,-2.6967,-2.7004,-2.7151,-2.7536,-2.7591,-2.7646,-2.7775,-2.7793,-2.7793,-2.7793,-2.7665,-2.7535,-2.745,-2.7294,-2.7137,-2.6883,-2.6883,-2.6662,0.0,-2.6142,-2.5851,-2.5228,-2.5145,-2.5128,-2.5193,-2.5321,-2.5599,-2.594,-2.6459,-2.6805,-2.6968,-2.7308,-2.7659,-2.8031,0.0,-2.8428,-2.84,0.0,0.0,-2.8061,-2.7718,-2.7689,0.0,-2.7777,-2.757,-2.7251,-2.7018,-2.6743,-2.6427,-2.6139,-2.607,0.0,0.0,0.0,-2.5749,-2.584,0.0,0.0,0.0,0.0,0.0,0.0,0.0,0.0,0.0,0.0,0.0,0.0,0.0,0.0,0.0,0.0,0.0,0.0,0.0,0.0,0.0,0.0,0.0,-2.8986,-2.9005,-2.9214,-2.9776,-3.0057,-3.0442,-3.1006,-3.1281,-3.141,-3.141,-3.141,-3.141,-3.141,-3.141,-3.141,-3.1428,-3.1818,-3.2221,-3.2625,-3.3046,-3.3415,-3.3817,-3.3817,-3.3817,-3.3817,-3.3817,-3.3817,-3.3817,-3.3817,-3.3817,-3.3817,-2.7793,-2.7793,-2.7628,-2.7132,-2.7041,-2.7114,-2.7371,-2.7408,-2.7555,-2.7958,-2.8014,-2.8069,-2.8215,-2.8234,-2.8234,-2.8234,-2.8105,-2.8014,-2.8014,-2.7771,-2.7565,-2.748,-2.7355,-2.7057,0.0,0.0,0.0,-2.5702,-2.5702,-2.574,-2.5807,-2.6021,-2.6257,-2.6533,-2.6901,-2.7249,-2.7524,-2.7755,-2.8136,-2.8627,0.0,-2.8874,0.0,0.0,-2.8312,-2.8307,0.0,-2.814,-2.8337,-2.8337,-2.817,-2.7966,-2.7748,-2.7381,-2.6972,-2.6729,-2.6572,-2.6479,-2.6603,-2.6364,0.0,-2.6192,-2.6041,0.0,-2.5634,0.0,0.0,0.0,0.0,0.0,0.0,0.0,0.0,0.0,0.0,0.0,0.0,-2.6591,0.0,0.0,0.0,0.0,0.0,0.0,-2.8553,-2.8986,-2.9005,-2.9188,0.0,0.0,-3.0387,-3.0772,-3.1208,-3.141,-3.141,-3.141,-3.141,-3.141,-3.141,-3.141,-3.1428,-3.1964,-3.2349,-3.2625,-3.3193,-3.3544,-3.3817,-3.3817,-3.3817,-3.3817,-3.3817,-3.3817,-3.3817,-3.3817,-3.3817,-3.3817,-2.7848,-2.7848,-2.7848,-2.7848,-2.783,-2.7793,-2.783,-2.783,-2.7977,-2.837,-2.8443,-2.859,-2.9005,-2.906,-2.9078,-2.9078,-2.87,-2.848,-2.848,-2.7806,-2.756,0.0,-2.7552,-2.7505,-2.7801,0.0,0.0,0.0,-2.7269,-2.7125,-2.6896,-2.6924,-2.6924,-2.6942,-2.6971,-2.7329,-2.7951,-2.7951,-2.8362,-2.9005,-2.9042,-2.9012,-2.9012,-2.903,-2.8642,-2.8073,-2.8067,-2.805,-2.805,-2.805,-2.805,-2.802,-2.802,-2.802,-2.799,-2.799,-2.7762,-2.7452,-2.7133,-2.6791,-2.6469,-2.608,0.0,0.0,0.0,0.0,-2.6018,0.0,0.0,0.0,0.0,0.0,0.0,0.0,0.0,0.0,0.0,0.0,0.0,0.0,0.0,0.0,0.0,-2.816,-2.8535,-2.8986,-2.9005,-2.917,0.0,0.0,-3.0369,-3.0754,-3.1189,-3.141,-3.141,-3.141,-3.141,-3.141,-3.141,-3.141,-3.1428,-3.2221,-3.2588,-3.2643,-3.345,-3.3817,-3.3817,-3.3817,-3.3817,-3.3817,-3.3817,-3.3817,-3.3817,-3.3817,-3.3817,-3.3817,-2.8693,-2.8693,-2.8693,-2.8693,-2.8197,-2.7903,-2.8215,-2.8271,-2.837,-2.8773,-2.9115,-2.9335,-2.9445,-2.969,-2.9892,-2.9892,-2.98,-2.9745,-2.9745,0.0,0.0,-2.9133,-2.8769,-2.8359,-2.7875,-2.7683,-2.7278,-2.6619,0.0,-2.659,-2.6533,-2.6993,-2.7355,-2.7672,-2.7904,-2.8286,-2.871,-2.871,-2.8824,-2.9042,-2.9335,-2.9313,-2.9137,0.0,-2.9628,-2.92,-2.8865,-2.8737,-2.8737,-2.8737,-2.8576,-2.8367,-2.8367,-2.8199,-2.799,-2.799,-2.796,-2.7834,-2.7776,-2.7502,-2.7227,-2.714,-2.6944,-2.6696,0.0,0.0,0.0,0.0,0.0,0.0,0.0,0.0,0.0,0.0,0.0,0.0,0.0,0.0,0.0,-2.6591,0.0,0.0,-2.7757,-2.7885,-2.8252,-2.8968,-2.9005,-2.906,0.0,0.0,0.0,-3.0351,-3.1011,-3.141,-3.141,-3.141,-3.141,-3.141,-3.141,-3.141,-3.1428,-3.2221,-3.2588,-3.2643,-3.345,-3.3817,-3.3817,-3.3817,-3.3817,-3.3817,-3.3817,-3.3817,-3.3817,-3.3817,-3.3817,-3.3817,-2.9525,-2.9525,-2.9525,-2.9525,-2.914,-2.8876,-2.8931,-2.9067,-2.9269,-2.9489,-2.9709,-2.9868,-2.9868,-3.0057,-3.0204,-3.0204,-3.0204,-3.0204,-3.0204,0.0,0.0,-2.9868,-2.9635,-2.9263,-2.8664,-2.8516,0.0,-2.7539,0.0,-2.7539,-2.7539,-2.7889,-2.8162,-2.8362,-2.841,-2.8655,-2.9023,-2.9188,-2.9372,-2.9525,-2.9764,-2.9763,0.0,-3.005,-3.008,-2.9883,-2.9611,-2.9525,-2.9507,-2.9356,-2.9173,-2.9022,-2.9022,-2.8778,-2.8529,-2.8473,-2.8389,-2.8232,-2.8043,-2.787,-2.7672,-2.7551,-2.7388,-2.7185,-2.6859,-2.6777,-2.6739,0.0,0.0,0.0,0.0,0.0,0.0,0.0,0.0,0.0,0.0,0.0,0.0,0.0,-2.7334,0.0,0.0,-2.8069,-2.8326,-2.8968,-2.9005,0.0,0.0,0.0,0.0,-3.0204,-3.0974,-3.141,-3.141,-3.141,-3.141,-3.141,-3.141,-3.141,-3.1428,-3.2221,-3.2588,-3.2643,-3.345,-3.3817,-3.3817,-3.3817,-3.3817,-3.3817,-3.3817,-3.3817,-3.3817,-3.3817,-3.3817,-3.3817,-3.0204,-3.0204,-3.0204,-3.0204,-3.0241,-3.0149,-2.9813,-3.0002,-3.0204,-3.0204,-3.0241,-3.0277,-3.0277,-3.0332,-3.0351,-3.0351,-3.0351,-3.0351,-3.0351,-3.0314,-3.0277,-3.0277,-3.0222,-3.002,-2.9684,-2.9654,-2.9458,0.0,0.0,-2.908,-2.908,-2.914,-2.917,-2.914,-2.8841,-2.8871,-2.9188,-2.9537,-2.9874,-3.0204,-3.0259,-3.0277,-3.0277,-3.0332,-3.0351,-3.0351,-3.0351,-3.0296,-3.0173,-2.9875,-2.9751,-2.9702,-2.9702,-2.9471,-2.9181,-2.9121,-2.889,-2.8587,-2.8268,-2.8179,-2.8071,-2.7729,-2.7651,-2.7561,-2.7285,-2.7224,-2.7267,-2.7521,-2.7111,-2.696,0.0,0.0,0.0,0.0,0.0,0.0,0.0,0.0,0.0,0.0,0.0,0.0,0.0,0.0,-2.8553,-2.8986,-2.9005,0.0,0.0,0.0,0.0,-3.0277,-3.1024,0.0,-3.141,0.0,-3.141,-3.141,-3.141,-3.1446,-3.1488,-3.2239,-3.2625,-3.2716,-3.3486,-3.3817,-3.3817,-3.3817,-3.3817,-3.3817,-3.3817,-3.3817,-3.3817,-3.3817,-3.3817,-3.3817,-3.0204,-3.0204,-3.0204,-3.0204,-3.0461,-3.0662,-3.0589,-3.0369,-3.0204,-3.0204,-3.0479,-3.0681,-3.0681,-3.0974,-3.1208,-3.1208,-3.1208,0.0,0.0,0.0,0.0,-3.0681,-3.0369,-3.0167,-3.0094,-2.9828,-2.9668,0.0,0.0,0.0,-2.9565,-2.9861,-2.9984,-2.9984,-2.9922,-2.9922,-2.9984,-3.0057,0.0,-3.0222,-3.0552,-3.0681,-3.0717,-3.1047,-3.1208,-3.1208,-3.1208,-3.0754,-3.0204,-3.0142,-2.9937,-2.9702,-2.9702,-2.9422,-2.911,-2.9101,-2.9066,-2.9004,-2.8995,-2.8995,-2.8906,-2.8508,-2.842,-2.8319,-2.794,-2.784,-2.787,-2.79,-2.7817,-2.7692,-2.7594,0.0,0.0,0.0,0.0,0.0,0.0,0.0,0.0,0.0,0.0,-2.8315,0.0,0.0,0.0,0.0,0.0,0.0,0.0,0.0,0.0,0.0,-3.1139,0.0,0.0,0.0,-3.141,-3.141,-3.141,-3.1561,-3.1909,-3.2386,-3.279,-3.3104,-3.358,-3.3817,-3.3817,-3.3817,-3.3817,-3.3817,-3.3817,-3.3817,-3.3817,-3.3817,-3.3817,-3.3817,-3.0809,-3.0992,-3.1066,-3.0846,-3.1322,-3.1653,-3.1451,-3.1433,-3.1286,-3.0864,-3.0974,-3.1134,-3.1134,-3.13,-3.141,-3.141,-3.141,-3.141,-3.141,-3.1226,-3.1134,-3.1134,-3.0951,-3.0717,-3.0516,-3.0341,-3.0169,-2.9969,0.0,0.0,0.0,0.0,-3.0204,-3.0204,-3.0204,-3.0314,-3.0497,0.0,0.0,-3.0827,-3.1011,-3.1134,-3.1121,-3.1336,-3.141,-3.141,-3.141,-3.1171,-3.0809,-3.0619,-3.0461,-3.0334,-3.0334,-3.0207,-3.0026,-2.9987,-2.987,-2.9677,-2.9493,-2.9315,-2.9075,-2.8742,-2.8628,-2.8592,-2.8412,-2.8377,-2.8338,-2.8326,-2.8321,-2.819,-2.7827,-2.7591,0.0,0.0,0.0,0.0,0.0,0.0,0.0,0.0,0.0,0.0,0.0,0.0,0.0,0.0,0.0,0.0,0.0,0.0,0.0,0.0,0.0,0.0,0.0,0.0,0.0,-3.141,-3.141,-3.1598,-3.2019,-3.2423,-3.2826,-3.3214,-3.3651,-3.3817,-3.3817,-3.3817,-3.3817,-3.3817,-3.3817,-3.3817,-3.3817,-3.3817,-3.3817,-3.3817,-3.1667,-3.1909,-3.2019,-3.1689,-3.2166,-3.2496,-3.2184,-3.2404,-3.2368,-3.1758,-3.1667,-3.1667,-3.1667,-3.1667,-3.1667,-3.1667,-3.1667,-3.1667,-3.1667,-3.1667,-3.163,-3.1538,-3.1538,-3.1355,-3.0951,-3.0951,-3.0754,0.0,0.0,0.0,0.0,0.0,0.0,0.0,0.0,0.0,0.0,0.0,-3.1134,-3.141,-3.141,-3.141,-3.141,-3.141,-3.141,-3.141,-3.141,-3.141,-3.1345,-3.1087,-3.0976,-3.0912,-3.0912,-3.0847,-3.0793,-3.0724,-3.0538,-3.0261,-3.0014,-2.9704,-2.9421,-2.9098,-2.9049,-2.9,-2.8832,-2.8797,-2.8772,-2.8721,-2.8711,-2.8653,-2.8503,-2.8137,0.0,0.0,0.0,0.0,0.0,0.0,0.0,0.0,0.0,0.0,-2.9005,0.0,0.0,0.0,0.0,0.0,0.0,0.0,0.0,0.0,0.0,-3.141,-3.141,0.0,-3.141,0.0,-3.1501,-3.1726,-3.2148,-3.2551,-3.2955,-3.3342,-3.3635,-3.3817,-3.3817,-3.3817,-3.3817,-3.3817,-3.3817,-3.3817,-3.3817,-3.3817,-3.3817,-3.3817,-3.2478,-3.2514,-3.2533,-3.2496,-3.2551,-3.2588,-3.2551,-3.257,-3.257,-3.2496,-3.2478,-3.2478,-3.2478,-3.2478,-3.2478,-3.2478,-3.2478,-3.2478,-3.2478,-3.2478,-3.2331,-3.1964,-3.1946,-3.1744,-3.1355,-3.1355,-3.1336,0.0,0.0,0.0,0.0,0.0,0.0,0.0,0.0,0.0,0.0,-3.1355,-3.1373,-3.141,-3.141,-3.141,-3.141,-3.141,-3.141,-3.141,-3.141,-3.141,-3.141,-3.1345,-3.1152,-3.0912,-3.0912,-3.0685,-3.0458,-3.0422,-3.0422,-3.0437,-3.0707,-3.0771,-3.0649,-3.0243,-3.0153,-2.995,-2.923,-2.9047,-2.9079,-2.9043,-2.9106,-2.9324,-2.9877,-2.9415,-2.907,0.0,0.0,0.0,0.0,0.0,-2.9005,-2.9005,0.0,0.0,0.0,-2.9005,0.0,0.0,0.0,0.0,0.0,0.0,0.0,-3.1336,0.0,-3.141,-3.141,-3.141,0.0,-3.141,-3.1763,-3.2148,-3.2551,-3.2973,-3.3342,-3.3762,-3.3798,-3.3817,-3.3817,-3.3817,-3.3817,-3.3817,-3.3817,-3.3817,-3.3817,-3.3817,-3.3817,-3.3817,-3.2588,-3.279,0.0,0.0,0.0,0.0,0.0,-3.3175,-3.3321,-3.3321,-3.29,-3.2588,-3.2588,-3.2588,-3.2588,-3.2588,-3.2588,-3.2588,-3.2588,-3.2588,-3.2533,-3.2368,-3.2368,-3.2276,-3.2111,-3.1873,-3.1763,0.0,0.0,0.0,0.0,0.0,0.0,0.0,0.0,-3.141,-3.141,-3.141,-3.141,-3.141,-3.141,-3.1524,-3.1763,-3.1763,-3.1909,-3.2111,-3.2111,-3.1964,-3.1763,-3.1763,-3.1514,-3.1184,-3.1184,-3.1106,-3.1009,-3.1009,-3.0847,-3.0717,-3.0879,-3.075,-3.0552,-3.0409,-3.0373,-3.032,-3.0205,-3.001,-2.986,-2.982,-2.9632,-2.9596,-2.9844,-2.9656,-2.9578,0.0,0.0,0.0,0.0,0.0,0.0,-2.9709,0.0,-2.9709,0.0,0.0,0.0,0.0,0.0,0.0,0.0,0.0,0.0,-3.1391,0.0,-3.141,-3.141,-3.141,-3.141,-3.141,-3.1799,-3.2221,-3.2606,-3.3028,-3.3397,-3.3817,-3.3817,-3.3817,-3.3817,-3.3817,-3.3817,-3.3817,-3.3817,-3.3817,-3.3817,-3.3817,-3.3817,-3.3817,-3.2955,0.0,-3.3303,0.0,-3.3431,-3.3725,-3.3397,-3.3633,-3.3817,-3.3817,-3.3303,-3.2955,-3.2955,-3.2955,-3.2955,-3.2955,-3.2955,-3.2955,-3.2955,-3.2955,-3.29,-3.279,-3.2771,0.0,-3.2606,-3.2331,-3.2184,-3.2184,-3.1873,0.0,0.0,0.0,0.0,0.0,-3.1744,-3.1744,-3.1744,-3.1744,-3.1744,-3.1744,-3.1744,-3.1909,-3.2184,-3.2184,-3.2349,-3.2588,-3.2588,-3.2423,-3.2184,-3.2184,-3.1983,-3.1689,-3.1483,-3.141,-3.141,-3.141,-3.1216,-3.1073,-3.1073,-3.0879,-3.0653,-3.0555,-3.0555,-3.0588,-3.0717,-3.0555,-3.0419,-3.0455,-3.0262,-3.0095,-3.0189,-3.008,-3.007,-3.0213,0.0,0.0,0.0,0.0,0.0,0.0,-3.0204,-3.0204,-3.0204,-3.0204,0.0,0.0,0.0,0.0,0.0,0.0,0.0,0.0,0.0,0.0,0.0,-3.141,-3.1465,-3.1561,-3.1983,-3.2386,-3.279,-3.3177,-3.3507,-3.3817,-3.3817,-3.3817,-3.3817,-3.3817,-3.3817,-3.3817,-3.3817,-3.3817,-3.3817,-3.3817,-3.3817,-3.3817,-3.3798,-3.3798,-3.3798,-3.3798,-3.3798,-3.3817,-3.3798,-3.3817,-3.3817,-3.3817,-3.3798,-3.3798,-3.3798,-3.3798,-3.3798,-3.3798,-3.3798,-3.3798,-3.3798,-3.3798,-3.3633,0.0,0.0,-3.3028,-3.2606,-3.2588,-3.2588,-3.2588,0.0,0.0,-3.2001,0.0,-3.2203,-3.2588,-3.2588,-3.2588,-3.2588,-3.2588,-3.2588,-3.2588,-3.2588,-3.2588,-3.2588,-3.2588,-3.2588,-3.2588,-3.2588,-3.2588,-3.2588,-3.2588,-3.2588,-3.2441,-3.1667,-3.141,-3.141,-3.141,-3.141,-3.1377,-3.1377,-3.1377,-3.1313,-3.0976,-3.0879,-3.0815,-3.0476,-3.0411,-3.049,-3.0815,-3.0894,-3.0991,-3.1327,-3.1047,-3.0696,-3.0348,0.0,0.0,0.0,0.0,0.0,-3.0204,-3.0204,-3.0204,-3.0204,-3.0204,0.0,0.0,0.0,0.0,0.0,0.0,0.0,-3.141,-3.141,0.0,-3.141,-3.141,-3.1579,-3.2001,-3.2404,-3.2808,-3.3196,-3.3633,-3.3817,-3.3817,-3.3817,-3.3817,-3.3817,-3.3817,-3.3817,-3.3817,-3.3817,-3.3817,-3.3817,-3.3817,-3.3817,-3.3817,-3.4606,-3.4606,-3.4606,-3.4606,-3.4606,-3.4606,-3.4606,-3.4606,-3.4606,-3.4606,-3.4606,-3.4606,-3.4606,-3.4147,-3.3817,0.0,-3.3817,-3.3817,0.0,-3.3817,-3.3727,-3.3599,-3.3633,-3.356,-3.3431,-3.3156,-3.3028,-3.3028,0.0,0.0,0.0,-3.2404,-3.2478,-3.2588,-3.2588,-3.2588,-3.2588,-3.2588,-3.2588,-3.2588,-3.2588,-3.2771,-3.3028,-3.3028,-3.3193,-3.3431,-3.3431,-3.3248,-3.3028,-3.3028,-3.2826,-3.2551,-3.2294,-3.2203,-3.2203,-3.2203,-3.2019,-3.1799,-3.1799,-3.1598,-3.1377,-3.1281,-3.1249,-3.1216,-3.1106,-3.0912,-3.0717,-3.0588,-3.075,-3.0944,-3.1041,-3.1157,-3.1162,-3.1066,-3.102,0.0,0.0,0.0,0.0,-3.1043,-3.1043,-3.1043,0.0,-3.1043,0.0,0.0,0.0,0.0,0.0,0.0,0.0,0.0,-3.141,0.0,-3.141,-3.141,-3.1579,-3.2019,-3.2404,-3.2955,-3.3599,-3.3762,-3.3817,-3.3817,-3.3817,-3.3817,-3.3817,-3.3817,-3.3817,-3.3817,-3.3817,-3.3817,-3.3817,-3.3817,-3.3817,-3.3817,-3.4991,-3.4991,-3.4991,-3.4991,-3.4991,-3.4991,-3.4991,-3.4991,-3.4991,-3.4991,-3.4991,-3.4991,-3.4991,-3.4533,0.0,-3.4055,-3.4037,-3.3982,-3.3817,-3.3817,-3.3817,-3.3817,-3.3817,-3.3817,-3.3817,0.0,0.0,-3.345,-3.3175,-3.3046,-3.3046,-3.3046,-3.3046,-3.3046,-3.3046,-3.3046,-3.3046,-3.3046,-3.3046,-3.3046,-3.3046,-3.3211,-3.345,-3.345,-3.3562,-3.3817,-3.3817,-3.3651,-3.345,-3.345,-3.3266,-3.3046,-3.3046,-3.3046,-3.2991,-3.268,-3.2423,-3.2221,-3.2221,-3.2038,-3.1869,-3.1869,-3.1726,-3.1612,-3.1446,-3.1249,-3.1041,-3.0815,-3.0944,-3.1106,-3.1106,-3.1249,-3.1345,-3.1216,-3.1313,-3.1345,-3.1216,0.0,0.0,0.0,0.0,0.0,0.0,-3.141,0.0,0.0,0.0,0.0,0.0,0.0,0.0,-3.141,-3.141,0.0,-3.141,-3.1543,-3.1818,-3.2239,-3.279,-3.3321,-3.3817,-3.3817,-3.3817,-3.3817,-3.3817,-3.3817,-3.3817,-3.3817,-3.3817,-3.3817,-3.3817,-3.3817,-3.3817,-3.3817,-3.3817,-3.3817,-3.5083,-3.5083,-3.5083,0.0,-3.5083,0.0,-3.5083,-3.5083,-3.5083,-3.5083,-3.5083,-3.5083,-3.5083,-3.5083,-3.4899,-3.4532,0.0,0.0,0.0,-3.3872,-3.3853,-3.3853,-3.38,-3.3817,-3.3817,-3.3817,-3.3817,-3.3817,-3.3817,-3.3817,-3.3817,-3.3817,-3.3817,-3.3817,-3.3817,-3.3817,-3.3817,-3.3817,-3.3817,-3.3817,-3.3817,-3.3817,-3.3817,-3.3817,-3.3817,-3.3817,-3.3817,-3.3817,-3.3817,-3.3817,-3.3817,-3.3817,-3.3817,-3.3817,-3.367,-3.29,-3.2661,-3.2643,-3.2643,-3.2625,-3.2588,-3.2588,-3.2313,-3.1946,-3.1575,-3.1501,-3.1501,-3.1501,-3.1465,-3.1446,-3.1446,-3.1428,-3.1313,-3.1009,-3.1184,-3.1281,-3.0976,0.0,0.0,0.0,0.0,0.0,0.0,-3.141,-3.141,0.0,0.0,0.0,0.0,0.0,-3.141,-3.141,-3.1428,-3.1446,-3.1446,-3.1836,-3.2239,-3.2643,-3.3431,-3.3817,-3.3817,-3.3817,-3.3817,-3.3817,-3.3817,-3.3817,-3.3817,-3.3817,-3.3817,-3.3817,-3.3817,-3.3817,-3.3817,-3.3817,-3.3817,-3.3817,0.0,0.0,-3.5925,-3.5925,-3.5925,-3.5925,-3.5925,-3.5925,-3.5925,-3.5925,-3.5925,-3.5925,-3.5925,-3.5925,-3.576,-3.5357,-3.5064,-3.4808,-3.4716,-3.444,-3.4257,-3.4257,-3.3982,-3.3817,-3.3817,-3.3817,-3.3817,-3.3817,-3.3817,-3.3817,-3.3817,-3.3817,-3.3817,-3.3817,-3.3817,-3.3817,-3.3817,-3.3817,-3.3817,-3.3817,-3.3817,-3.3817,-3.3817,-3.3817,-3.3817,-3.3817,-3.3817,-3.3817,-3.3817,-3.3817,-3.3817,-3.3817,-3.3817,-3.3817,-3.378,-3.3578,-3.3321,-3.3049,-3.3049,-3.2845,-3.2588,-3.2588,-3.2533,-3.2423,-3.2331,-3.2313,-3.2313,-3.2313,-3.2074,-3.1854,-3.1854,-3.163,-3.1377,-3.1281,-3.1345,-3.1377,-3.1281,-3.1345,0.0,0.0,-3.141,-3.141,-3.141,-3.141,-3.141,0.0,0.0,0.0,0.0,-3.141,-3.141,-3.141,-3.1689,-3.1854,-3.1854,-3.2258,-3.2661,-3.3049,-3.3544,-3.3817,-3.3817,-3.3817,-3.3817,-3.3817,-3.3817,-3.3817,-3.3817,-3.3817,-3.3817,-3.3817,-3.3817,-3.3817,-3.3817,-3.3817,-3.3817,-3.3747,-3.6201,-3.6201,-3.6201,-3.6201,-3.6201,-3.6201,-3.6201,-3.6201,-3.6201,-3.6201,-3.6201,-3.6201,-3.6201,-3.6201,-3.6127,-3.5907,-3.5486,-3.5192,-3.5009,-3.4825,-3.4661,-3.4661,-3.4477,-3.424,-3.4092,-3.4073,-3.4,-3.3817,-3.3817,-3.3817,-3.3817,-3.3817,-3.3817,-3.3817,-3.3817,-3.3817,-3.3817,-3.3817,-3.3817,-3.3817,-3.3817,-3.3817,-3.3817,-3.3817,-3.3817,-3.3817,-3.3817,-3.3817,-3.3817,-3.3817,-3.3817,-3.3817,-3.3817,-3.3817,-3.3817,-3.3817,-3.367,-3.3452,-3.3452,-3.3321,-3.3101,-3.2918,-3.2881,-3.2826,-3.2643,-3.2588,-3.2588,-3.2588,-3.2423,-3.2276,-3.2276,-3.2093,-3.1928,-3.1928,-3.1928,-3.1928,-3.1928,-3.1928,0.0,-3.1689,-3.1671,-3.1579,-3.1428,-3.141,-3.1483,-3.1653,0.0,0.0,-3.196,-3.1928,-3.1854,-3.1671,-3.1891,-3.2093,-3.2276,-3.268,-3.3083,-3.347,-3.3707,-3.3817,-3.3817,-3.3817,-3.3817,-3.3817,-3.3817,-3.3817,-3.3817,-3.3817,-3.3817,-3.3817,-3.3817,-3.3817,-3.3817,-3.3817,-3.3712,-3.3539,-3.6201,-3.6201,-3.6201,-3.6201,-3.6201,-3.6201,-3.6201,-3.6201,-3.6201,-3.6201,-3.6201,-3.6201,-3.6201,-3.6201,-3.6201,-3.6201,-3.5907,-3.5559,-3.5192,-3.5119,-3.5083,-3.5083,-3.5028,-3.4826,-3.4513,-3.4495,-3.4293,-3.3908,-3.3908,-3.3872,-3.3817,-3.3817,-3.3817,-3.3817,-3.3817,-3.3817,-3.3817,-3.3817,-3.3817,-3.3817,-3.3817,-3.3817,-3.3817,-3.3817,-3.3817,-3.3817,-3.3817,-3.3817,-3.3817,-3.3817,-3.3817,-3.3817,-3.3817,-3.3817,-3.3817,-3.3817,-3.3817,-3.3817,-3.3817,-3.3817,-3.3725,-3.336,-3.3287,-3.3196,-3.2863,-3.2771,-3.2771,-3.2771,-3.2735,-3.2698,-3.2698,-3.2643,-3.2588,-3.2588,-3.2588,-3.2588,-3.2588,0.0,-3.2478,-3.2129,-3.2093,-3.1964,-3.163,-3.1593,-3.1708,-3.2074,-3.2093,-3.2239,0.0,-3.2588,-3.2478,-3.2203,-3.2184,-3.2386,-3.2771,-3.3138,-3.3452,-3.3817,-3.3817,-3.3817,-3.3817,-3.3817,-3.3817,-3.3817,-3.3817,-3.3817,-3.3817,-3.3817,-3.3817,-3.3817,-3.3817,-3.3817,-3.3782,-3.3747,-3.3539,-3.3278,-3.6201,-3.6201,-3.6201,-3.6201,-3.6201,-3.6201,-3.6201,-3.6201,-3.6201,-3.6201,-3.6201,-3.6201,-3.6201,-3.6201,-3.6201,-3.6201,-3.6146,-3.6091,-3.6036,-3.5724,-3.5486,-3.5486,-3.5174,-3.4954,-3.4899,-3.4899,-3.4733,-3.4312,-3.4312,-3.4147,-3.3817,-3.3817,-3.3817,-3.3817,-3.3817,-3.3817,-3.3817,-3.3817,-3.3817,-3.3817,-3.3817,-3.3817,-3.3817,-3.3817,-3.3817,-3.3817,-3.3817,-3.3817,-3.3817,-3.3817,-3.3817,-3.3817,-3.3817,-3.3817,-3.3817,-3.3817,-3.3817,-3.3817,-3.3817,-3.3817,-3.3798,-3.3709,-3.3725,-3.3707,-3.3633,-3.3615,-3.3615,-3.3615,-3.3324,-3.312,-3.312,-3.2845,-3.2588,-3.2588,-3.2588,-3.2588,-3.2588,0.0,-3.257,-3.2514,-3.2496,-3.2478,-3.2423,-3.2404,-3.2423,-3.2496,-3.2496,-3.2533,-3.2588,-3.2588,-3.2735,-3.2994,-3.2994,-3.323,-3.3615,-3.3688,-3.3762,-3.3817,-3.3817,-3.3817,-3.3817,-3.3817,-3.3817,-3.3817,-3.3817,-3.3817,-3.3817,-3.3817,-3.3817,-3.3817,-3.3817,-3.3817,-3.3782,-3.3469,-3.333,-3.3191,-3.6201,-3.6201,-3.6201,-3.6201,-3.6201,-3.6201,-3.6201,-3.6201,-3.6201,-3.6201,-3.6201,-3.6201,-3.6201,-3.6201,-3.6201,-3.6201,-3.6201,-3.6201,-3.6201,-3.6036,-3.5925,-3.5925,-3.576,-3.5522,-3.5321,-3.5101,-3.4899,-3.4698,-3.4698,-3.4642,-3.4441,-3.4441,-3.4441,-3.4423,-3.4238,-3.4128,-3.411,-3.3908,-3.3817,-3.3817,-3.3817,-3.3817,-3.3817,-3.3817,-3.3817,-3.3817,-3.3817,-3.3817,-3.3817,-3.3817,-3.3817,-3.3817,-3.3817,-3.3817,-3.3817,-3.3817,-3.3817,-3.3817,-3.3817,-3.3817,-3.3817,-3.3817,-3.3817,-3.3817,-3.3817,-3.3817,-3.3817,-3.3817,-3.3635,-3.3507,-3.3507,-3.3376,-3.3248,-3.3248,-3.3248,0.0,0.0,-3.3248,-3.3175,-3.2955,-3.2936,-3.2845,-3.2625,-3.2588,-3.2698,-3.2918,-3.2936,-3.3028,-3.3248,-3.3248,-3.334,-3.3541,-3.3507,-3.3599,-3.3817,-3.3817,-3.3817,-3.3817,-3.3817,-3.3817,-3.3817,-3.3817,-3.3817,-3.3817,-3.3817,-3.3817,-3.3817,-3.3817,-3.3817,-3.3782,-3.3608,-3.3539,-3.3469,-3.3086,-3.2841,-3.2614,-3.6201,-3.6201,-3.6201,-3.6201,-3.6201,-3.6201,-3.6201,-3.6201,-3.6201,-3.6201,-3.6201,-3.6201,-3.6201,-3.6201,-3.6201,-3.6201,-3.6201,-3.6201,-3.6201,-3.6201,-3.6201,-3.6201,-3.6201,-3.6072,-3.576,-3.5431,-3.5229,-3.5138,-3.5138,-3.5083,-3.4991,-3.4991,-3.4991,-3.4973,-3.4697,-3.455,-3.4532,-3.422,-3.4092,-3.4092,-3.4092,-3.4092,-3.4092,-3.3982,-3.3945,-3.3945,-3.3853,-3.3817,-3.3817,-3.3817,-3.3817,-3.3817,-3.3817,-3.3817,-3.3817,-3.3817,-3.3817,-3.3817,-3.3817,-3.3817,-3.3817,-3.3817,-3.3817,-3.3817,-3.3817,-3.3817,-3.3817,-3.3817,-3.3817,-3.3817,-3.3817,-3.3817,-3.3817,-3.3817,0.0,0.0,0.0,-3.3817,-3.3707,-3.336,-3.3324,-3.323,-3.29,-3.2881,-3.301,-3.3306,-3.3324,-3.3452,-3.3798,-3.3817,-3.3817,-3.3817,-3.3817,-3.3817,-3.3817,-3.3817,-3.3817,-3.3817,-3.3817,-3.3817,-3.3817,-3.3817,-3.3817,-3.3817,-3.3817,-3.3817,-3.3782,-3.3712,-3.3678,-3.3643,-3.3295,-3.3174,-3.3086,-3.2701,-3.2368,-3.207,-3.6201,-3.6201,-3.6201,-3.6201,-3.6201,-3.6201,-3.6201,-3.6201,-3.6201,-3.6201,-3.6201,-3.6201,-3.6201,-3.6201,-3.6201,-3.6201,-3.6201,-3.6201,-3.6201,-3.6201,-3.6201,-3.6201,-3.6201,-3.6201,-3.6164,-3.6146,-3.5944,-3.5577,-3.5577,-3.5357,-3.4991,-3.4991,-3.4991,-3.4991,-3.4954,-3.4954,-3.4954,-3.4918,-3.4899,-3.4899,-3.4899,-3.4899,-3.4863,-3.4513,-3.4367,-3.4312,-3.3945,-3.3817,-3.3817,-3.3817,-3.3817,-3.3817,-3.3817,-3.3817,-3.3817,-3.3817,-3.3817,-3.3817,-3.3817,-3.3817,-3.3817,-3.3817,-3.3817,-3.3817,-3.3817,-3.3817,-3.3817,-3.3817,-3.3817,-3.3817,-3.3817,-3.3817,-3.3817,-3.3817,0.0,0.0,-3.3817,-3.3817,-3.3798,-3.378,-3.378,-3.3727,-3.3725,-3.3725,-3.3709,-3.3762,-3.378,-3.378,-3.3817,-3.3817,-3.3817,-3.3817,-3.3817,-3.3817,-3.3817,-3.3817,-3.3817,-3.3817,-3.3817,-3.3817,-3.3817,-3.3817,-3.3817,-3.3817,-3.3817,-3.3817,-3.3782,-3.3469,-3.3348,-3.3313,-3.2876,-3.2736,-3.2701,-3.2298,-3.214,-3.207,-3.6201,-3.6201,-3.6201,-3.6201,-3.6201,-3.6201,-3.6201,-3.6201,-3.6201,-3.6201,-3.6201,-3.6201,-3.6201,-3.6201,-3.6201,-3.6201,-3.6201,-3.6201,-3.6201,-3.6201,-3.6201,-3.6201,-3.6201,-3.6201,-3.6201,-3.6201,-3.6127,-3.5981,-3.5981,-3.5907,-3.576,-3.576,-3.576,-3.5742,-3.5467,-3.5357,-3.5339,-3.5101,-3.4991,-3.4991,-3.4991,-3.4991,-3.4973,-3.4808,-3.4753,-3.4734,-3.4588,-3.4368,-3.4183,-3.4183,-3.4018,-3.3817,-3.3817,-3.3817,-3.3817,-3.3817,-3.3817,-3.3817,-3.3817,-3.3817,-3.3817,-3.3817,-3.3817,-3.3817,-3.3817,-3.3817,-3.3817,-3.3817,-3.3817,-3.3817,-3.3817,-3.3817,-3.3817,-3.3817,0.0,-3.3817,-3.3817,-3.3817,-3.3817,-3.3817,-3.3817,-3.3817,-3.3817,-3.3817,-3.3817,-3.3817,-3.3817,-3.3817,-3.3817,-3.3817,-3.3817,-3.3817,-3.3817,-3.3817,-3.3817,-3.3817,-3.3817,-3.3817,-3.3817,-3.3817,-3.3782,-3.3573,-3.3469,-3.3469,-3.3225,-3.3121,-3.3121,-3.2981,-3.2929,-3.2876,-3.2474,-3.2333,-3.2263,-3.1912,-3.1806,-3.1771,-3.6201,-3.6201,-3.6201,-3.6201,-3.6201,-3.6201,-3.6201,-3.6201,-3.6201,-3.6201,-3.6201,-3.6201,-3.6201,-3.6201,-3.6201,-3.6201,-3.6201,-3.6201,-3.6201,-3.6201,-3.6201,-3.6201,-3.6201,-3.6201,-3.6201,-3.6201,-3.6201,-3.6201,-3.6201,-3.6201,-3.6201,-3.6201,-3.6201,-3.6201,-3.5925,-3.5797,-3.5779,-3.5486,-3.5357,-3.5357,-3.5357,-3.5357,-3.5357,-3.5229,-3.5174,-3.5156,-3.5046,-3.4808,-3.4605,-3.4605,-3.4422,-3.413,-3.4037,-3.3908,-3.3817,-3.3817,-3.3817,-3.3817,-3.3817,-3.3817,-3.3817,-3.3817,-3.3817,-3.3817,-3.3817,-3.3817,-3.3817,-3.3817,-3.3817,-3.3817,-3.3817,-3.3817,-3.3817,-3.3817,-3.3817,-3.3817,-3.3817,-3.3817,-3.3817,-3.3817,-3.3817,-3.3817,-3.3817,-3.3817,-3.3817,-3.3817,-3.3817,-3.3817,-3.3817,-3.3817,-3.3817,-3.3817,-3.3817,-3.3817,-3.3817,-3.3817,-3.3817,-3.3817,-3.3817,-3.3817,-3.3782,-3.3434,-3.3313,-3.3278,-3.2876,-3.2701,-3.2701,-3.2561,-3.2526,-3.2491,-3.2088,-3.193,-3.1912,-3.1665,-3.1595,-3.1595,-3.6201,-3.6201,-3.6201,-3.6201,-3.6201,-3.6201,-3.6201,-3.6201,-3.6201,-3.6201,-3.6201,-3.6201,-3.6201,-3.6201,-3.6201,-3.6201,-3.6201,-3.6201,-3.6201,-3.6201,-3.6201,-3.6201,-3.6201,-3.6201,-3.6201,-3.6201,-3.6201,-3.6201,-3.6201,-3.6201,-3.6201,-3.6201,-3.6201,-3.6201,-3.6201,-3.6201,-3.6201,-3.6201,-3.6201,-3.6201,-3.6201,-3.6201,-3.6164,-3.5779,-3.5596,-3.5541,-3.5138,-3.5009,-3.4991,-3.4991,-3.4991,-3.4918,-3.4532,-3.4147,-3.3817,-3.3817,-3.3817,-3.3817,-3.3817,-3.3817,-3.3817,-3.3817,-3.3817,-3.3817,-3.3817,-3.3817,-3.3817,-3.3817,-3.3817,-3.3817,-3.3817,-3.3817,-3.3817,-3.3817,-3.3817,-3.3817,-3.3817,-3.3817,-3.3817,-3.3817,-3.3817,-3.3817,-3.3817,-3.3817,-3.3817,-3.3817,-3.3817,-3.3817,-3.3817,-3.3817,-3.3817,-3.3817,-3.3817,-3.3817,-3.3817,-3.3817,-3.3817,-3.3817,-3.3817,-3.3817,-3.3782,-3.3434,-3.3313,-3.3278,-3.2894,-3.2701,-3.2666,-3.2263,-3.2105,-3.207,-3.1736,-3.1595,-3.1595,-3.1595,-3.1595,-3.1595,-3.6201,-3.6201,-3.6201,-3.6201,-3.6201,-3.6201,-3.6201,-3.6201,-3.6201,-3.6201,-3.6201,-3.6201,-3.6201,-3.6201,-3.6201,-3.6201,-3.6201,-3.6201,-3.6201,-3.6201,-3.6201,-3.6201,-3.6201,-3.6201,-3.6201,-3.6201,-3.6201,-3.6201,-3.6201,-3.6201,-3.6201,-3.6201,-3.6201,-3.6201,-3.6201,-3.6201,-3.6201,-3.6201,-3.6201,-3.6201,-3.6201,-3.6201,-3.6201,-3.6072,-3.6036,-3.6017,-3.5907,-3.5669,-3.5412,-3.5412,-3.5229,-3.4973,-3.4844,-3.4734,-3.457,-3.4312,-3.422,-3.4165,-3.389,-3.3817,-3.3817,-3.3817,-3.3817,-3.3817,-3.3817,-3.3817,-3.3817,-3.3817,-3.3817,-3.3817,-3.3817,-3.3817,-3.3817,-3.3817,-3.3817,-3.3817,-3.3817,-3.3817,-3.3817,-3.3817,-3.3817,-3.3817,-3.3817,-3.3817,-3.3817,-3.3817,-3.3817,-3.3817,-3.3817,-3.3817,-3.3817,-3.3817,-3.3817,-3.3817,-3.3817,-3.3817,-3.3817,-3.3817,-3.3817,-3.3678,-3.3434,-3.3051,-3.2736,-3.2439,-3.2088,-3.1929,-3.1912,-3.1806,-3.1736,-3.1736,-3.163,-3.1595,-3.1595,-3.1595,-3.1595,-3.1595,-3.6201,-3.6201,-3.6201,-3.6201,-3.6201,-3.6201,-3.6201,-3.6201,-3.6201,-3.6201,-3.6201,-3.6201,-3.6201,-3.6201,-3.6201,-3.6201,-3.6201,-3.6201,-3.6201,-3.6201,-3.6201,-3.6201,-3.6201,-3.6201,-3.6201,-3.6201,-3.6201,-3.6201,-3.6201,-3.6201,-3.6201,-3.6201,-3.6201,-3.6201,-3.6201,-3.6201,-3.6201,-3.6201,-3.6201,-3.6201,-3.6201,-3.6201,-3.6201,-3.6201,-3.6201,-3.6201,-3.6201,-3.6054,-3.5852,-3.5852,-3.5559,-3.5229,-3.5229,-3.5119,-3.4936,-3.4733,-3.4642,-3.457,-3.4331,-3.4183,-3.4055,-3.4055,-3.3927,-3.3817,-3.3817,-3.3817,-3.3817,-3.3817,-3.3817,-3.3817,-3.3817,-3.3817,-3.3817,-3.3817,-3.3817,-3.3817,-3.3817,-3.3817,-3.3817,-3.3817,-3.3817,-3.3817,-3.3817,-3.3817,-3.3817,-3.3817,-3.3817,-3.3817,-3.3817,-3.3817,-3.3817,-3.3817,-3.3817,-3.3817,-3.3817,-3.3817,-3.3817,-3.3817,-3.3678,-3.3504,-3.3278,-3.2736,-3.2333,-3.207,-3.1736,-3.1595,-3.1595,-3.1595,-3.1595,-3.1595,-3.1595,-3.1595,-3.1595,-3.1595,-3.1595,-3.1595,-3.6201,-3.6201,-3.6201,-3.6201,-3.6201,-3.6201,-3.6201,-3.6201,-3.6201,-3.6201,-3.6201,-3.6201,-3.6201,-3.6201,-3.6201,-3.6201,-3.6201,-3.6201,-3.6201,-3.6201,-3.6201,-3.6201,-3.6201,-3.6201,-3.6201,-3.6201,-3.6201,-3.6201,-3.6201,-3.6201,-3.6201,-3.6201,-3.6201,-3.6201,-3.6201,-3.6201,-3.6201,-3.6201,-3.6201,-3.6201,-3.6201,-3.6201,-3.6201,-3.6201,-3.6201,-3.6201,-3.6201,-3.6201,-3.6201,-3.6201,-3.5962,-3.5632,-3.5632,-3.5394,-3.5083,-3.5064,-3.5046,-3.5046,-3.5009,-3.4716,-3.4458,-3.4458,-3.4183,-3.3908,-3.3835,-3.3817,-3.3817,-3.3817,-3.3817,-3.3817,-3.3817,-3.3817,-3.3817,-3.3817,-3.3817,-3.3817,-3.3817,-3.3817,-3.3817,-3.3817,-3.3817,-3.3817,-3.3817,-3.3817,-3.3817,-3.3817,-3.3817,-3.3817,-3.3817,-3.3817,-3.3817,-3.3817,-3.3817,-3.3817,-3.3817,-3.3782,-3.3747,-3.3747,-3.3434,-3.3278,-3.3156,-3.2439,-3.207,-3.2035,-3.1736,-3.1595,-3.1595,-3.1595,-3.1595,-3.1595,-3.1595,-3.1595,-3.1595,-3.1595,-3.1595,-3.1595,-3.6201,-3.6201,-3.6201,-3.6201,-3.6201,-3.6201,-3.6201,-3.6201,-3.6201,-3.6201,-3.6201,-3.6201,-3.6201,-3.6201,-3.6201,-3.6201,-3.6201,-3.6201,-3.6201,-3.6201,-3.6201,-3.6201,-3.6201,-3.6201,-3.6201,-3.6201,-3.6201,-3.6201,-3.6201,-3.6201,-3.6201,-3.6201,-3.6201,-3.6201,-3.6201,-3.6201,-3.6201,-3.6201,-3.6201,-3.6201,-3.6201,-3.6201,-3.6201,-3.6201,-3.6201,-3.6201,-3.6201,-3.6201,-3.6201,-3.6201,-3.6146,-3.6072,-3.6072,-3.6017,-3.5889,-3.5541,-3.5449,-3.5394,-3.5083,-3.4936,-3.4863,-3.4863,-3.4789,-3.457,-3.3928,-3.3817,-3.3817,-3.3817,-3.3817,-3.3817,-3.3817,-3.3817,-3.3817,-3.3817,-3.3817,-3.3817,-3.3817,-3.3817,-3.3817,-3.3817,-3.3817,-3.3817,-3.3817,-3.3817,-3.3817,-3.3817,-3.3817,-3.3817,-3.3817,-3.3817,-3.3817,-3.3817,-3.3817,-3.3817,-3.3817,-3.3539,-3.34,-3.3418,-3.3348,-3.2981,-3.2351,-3.2175,-3.1982,-3.17,-3.163,-3.1595,-3.1595,-3.1595,-3.1595,-3.1595,-3.1595,-3.1595,-3.1595,-3.1595,-3.1595,-3.1595,-3.6201,-3.6201,-3.6201,-3.6201,-3.6201,-3.6201,-3.6201,-3.6201,-3.6201,-3.6201,-3.6201,-3.6201,-3.6201,-3.6201,-3.6201,-3.6201,-3.6201,-3.6201,-3.6201,-3.6201,-3.6201,-3.6201,-3.6201,-3.6201,-3.6201,-3.6201,-3.6201,-3.6201,-3.6201,-3.6201,-3.6201,-3.6201,-3.6201,-3.6201,-3.6201,-3.6201,-3.6201,-3.6201,-3.6201,-3.6201,-3.6201,-3.6201,-3.6201,-3.6201,-3.6201,-3.6201,-3.6201,-3.6201,-3.6201,-3.6201,-3.6201,-3.6201,-3.6201,-3.6201,-3.6164,-3.5962,-3.5907,-3.5852,-3.565,-3.5412,-3.5266,-3.5266,-3.5138,-3.4826,-3.4238,-3.4092,-3.4037,-3.3853,-3.3817,-3.3817,-3.3817,-3.3817,-3.3817,-3.3817,-3.3817,-3.3817,-3.3817,-3.3817,-3.3817,-3.3817,-3.3817,-3.3817,-3.3817,-3.3817,-3.3817,-3.3817,-3.3817,-3.3817,-3.3817,-3.3817,-3.3817,-3.3817,-3.3817,-3.3817,-3.3817,-3.3643,-3.3434,-3.3313,-3.2911,-3.2509,-3.2105,-3.193,-3.1771,-3.1595,-3.1595,-3.1595,-3.1595,-3.1595,-3.1595,-3.1595,-3.1595,-3.1595,-3.1595,-3.1595,-3.1595,-3.1595,-3.6201,-3.6201,-3.6201,-3.6201,-3.6201,-3.6201,-3.6201,-3.6201,-3.6201,-3.6201,-3.6201,-3.6201,-3.6201,-3.6201,-3.6201,-3.6201,-3.6201,-3.6201,-3.6201,-3.6201,-3.6201,-3.6201,-3.6201,-3.6201,-3.6201,-3.6201,-3.6201,-3.6201,-3.6201,-3.6201,-3.6201,-3.6201,-3.6201,-3.6201,-3.6201,-3.6201,-3.6201,-3.6201,-3.6201,-3.6201,-3.6201,-3.6201,-3.6201,-3.6201,-3.6201,-3.6201,-3.6201,-3.6201,-3.6201,-3.6201,-3.6201,-3.6201,-3.6201,-3.6201,-3.6201,-3.6201,-3.6201,-3.6201,-3.6201,-3.5962,-3.5687,-3.5687,-3.5431,-3.5083,-3.4697,-3.455,-3.4422,-3.4057,-3.3963,-3.3908,-3.3908,-3.3853,-3.3817,-3.3817,-3.3817,-3.3817,-3.3817,-3.3817,-3.3817,-3.3817,-3.3817,-3.3817,-3.3817,-3.3817,-3.3817,-3.3817,-3.3817,-3.3817,-3.3817,-3.3817,-3.3817,-3.3817,-3.3817,-3.3817,-3.3817,-3.3678,-3.3504,-3.3313,-3.2474,-3.2105,-3.207,-3.1736,-3.1595,-3.1595,-3.1595,-3.1595,-3.1595,-3.1595,-3.1595,-3.1595,-3.1595,-3.1595,-3.1595,-3.1595,-3.1595,-3.1595,-3.6201,-3.6201,-3.6201,-3.6201,-3.6201,-3.6201,-3.6201,-3.6201,-3.6201,-3.6201,-3.6201,-3.6201,-3.6201,-3.6201,-3.6201,-3.6201,-3.6201,-3.6201,-3.6201,-3.6201,-3.6201,-3.6201,-3.6201,-3.6201,-3.6201,-3.6201,-3.6201,-3.6201,-3.6201,-3.6201,-3.6201,-3.6201,-3.6201,-3.6201,-3.6201,-3.6201,-3.6201,-3.6201,-3.6201,-3.6201,-3.6201,-3.6201,-3.6201,-3.6201,-3.6201,-3.6201,-3.6201,-3.6201,-3.6201,-3.6201,-3.6201,-3.6201,-3.6201,-3.6201,-3.6201,-3.6201,-3.6201,-3.6201,-3.6201,-3.6164,-3.6127,-3.6127,-3.6091,-3.5944,-3.554,-3.5156,-3.4899,-3.4844,-3.4568,-3.433,-3.433,-3.4037,-3.3817,-3.3817,-3.3817,-3.3817,-3.3817,-3.3817,-3.3817,-3.3817,-3.3817,-3.3817,-3.3817,-3.3817,-3.3817,-3.3817,-3.3817,-3.3817,-3.3817,-3.3817,-3.3817,-3.3817,-3.3817,-3.3817,-3.3817,-3.3156,-3.2999,-3.3313,-3.2474,-3.2105,-3.207,-3.1736,-3.1595,-3.1595,-3.1595,-3.1595,-3.1595,-3.1595,-3.1595,-3.1595,-3.1595,-3.1595,-3.1595,-3.1595,-3.1595,-3.1595,-3.6201,-3.6201,-3.6201,-3.6201,-3.6201,-3.6201,-3.6201,-3.6201,-3.6201,-3.6201,-3.6201,-3.6201,-3.6201,-3.6201,-3.6201,-3.6201,-3.6201,-3.6201,-3.6201,-3.6201,-3.6201,-3.6201,-3.6201,-3.6201,-3.6201,-3.6201,-3.6201,-3.6201,-3.6201,-3.6201,-3.6201,-3.6201,-3.6201,-3.6201,-3.6201,-3.6201,-3.6201,-3.6201,-3.6201,-3.6201,-3.6201,-3.6201,-3.6201,-3.6201,-3.6201,-3.6201,-3.6201,-3.6201,-3.6201,-3.6201,-3.6201,-3.6201,-3.6201,-3.6201,-3.6201,-3.6201,-3.6201,-3.6201,-3.6201,-3.6201,-3.6201,-3.6201,-3.6201,-3.6164,-3.5981,-3.5815,-3.5522,-3.5083,-3.4844,-3.4752,-3.4752,-3.4422,-3.4147,-3.4147,-3.3963,-3.3817,-3.3817,-3.3817,-3.3817,-3.3817,-3.3817,-3.3817,-3.3817,-3.3817,-3.3817,-3.3817,-3.3817,-3.3817,-3.3817,-3.3817,-3.3817,-3.3817,-3.3817,-3.3817,-3.3817,-3.3469,-3.3295,-3.3313,-3.2701,-3.2333,-3.2105,-3.193,-3.1771,-3.1595,-3.1595,-3.1595,-3.1595,-3.1595,-3.1595,-3.1595,-3.1595,-3.1595,-3.1595,-3.1595,-3.1595,-3.1595]},{"header":{"parameterUnit":"m.s-1","parameterCategory":1,"la1":30.6,"la2":28.766,"lo1":-90.7593,"lo2":-88.6598,"dy":0.0162,"dx":0.0183,"nx":116,"ny":114,"refTime":"2023-03-24T12:00:00:Z","depth":0,"parameterNumber":3,"parameterNumberName":"V-component_of_WINDS"},"data":[0.0,0.0,0.0,0.0,0.0,0.0,0.0,0.0,0.0,0.0,0.0,0.0,0.0,0.0,0.0,0.0,0.0,0.0,0.0,0.0,0.0,0.0,0.0,0.0,0.0,0.0,0.0,0.0,0.0,0.0,0.0,0.0,0.0,0.0,0.0,0.0,0.0,0.0,0.0,0.0,0.0,0.0,0.0,0.0,0.0,0.0,0.0,0.0,0.0,0.0,0.0,0.0,0.0,0.0,0.0,0.0,0.0,0.0,0.0,0.0,0.0,0.0,0.0,0.0,0.0,0.0,0.0,0.0,0.0,0.0,0.0,0.0,0.0,0.0,0.0,0.0,0.0,0.0,0.0,0.0,0.0,0.0,0.0,0.0,0.0,0.0,0.0,0.0,0.0,0.0,0.0,0.0,0.0,0.0,0.0,0.0,0.0,0.0,0.0,0.0,0.0,0.0,0.0,0.0,0.0,0.0,0.0,0.0,0.0,0.0,0.0,0.0,0.0,0.0,0.0,0.0,0.0,0.0,0.0,0.0,0.0,0.0,0.0,0.0,0.0,0.0,0.0,0.0,0.0,0.0,0.0,0.0,0.0,0.0,0.0,0.0,0.0,0.0,0.0,0.0,0.0,0.0,0.0,0.0,0.0,0.0,0.0,0.0,0.0,0.0,0.0,0.0,0.0,0.0,0.0,0.0,0.0,0.0,0.0,0.0,0.0,0.0,0.0,0.0,0.0,0.0,0.0,0.0,0.0,0.0,0.0,0.0,0.0,0.0,0.0,0.0,0.0,0.0,0.0,0.0,0.0,0.0,0.0,0.0,0.0,0.0,0.0,0.0,0.0,0.0,0.0,0.0,0.0,0.0,0.0,0.0,0.0,0.0,0.0,0.0,0.0,0.0,0.0,0.0,0.0,0.0,0.0,0.0,0.0,0.0,0.0,0.0,0.0,0.0,0.0,0.0,0.0,0.0,0.0,0.0,0.0,0.0,0.0,0.0,0.0,0.0,0.0,0.0,0.0,0.0,0.0,0.0,0.0,0.0,0.0,0.0,0.0,0.0,0.0,0.0,0.0,0.0,0.0,0.0,0.0,0.0,0.0,0.0,0.0,0.0,0.0,0.0,0.0,0.0,0.0,0.0,0.0,0.0,0.0,0.0,0.0,0.0,0.0,0.0,0.0,0.0,0.0,0.0,0.0,0.0,0.0,0.0,0.0,0.0,0.0,0.0,0.0,0.0,0.0,0.0,0.0,0.0,0.0,0.0,0.0,0.0,0.0,0.0,0.0,0.0,0.0,0.0,0.0,0.0,0.0,0.0,0.0,0.0,0.0,0.0,0.0,0.0,0.0,0.0,0.0,0.0,0.0,0.0,0.0,0.0,0.0,0.0,0.0,0.0,0.0,0.0,0.0,0.0,0.0,0.0,0.0,0.0,0.0,0.0,0.0,0.0,0.0,0.0,0.0,0.0,0.0,0.0,0.0,0.0,0.0,0.0,0.0,0.0,0.0,0.0,0.0,0.0,0.0,0.0,0.0,0.0,0.0,0.0,0.0,0.0,0.0,0.0,0.0,0.0,0.0,0.0,0.0,0.0,0.0,0.0,0.0,0.0,0.0,0.0,0.0,0.0,0.0,0.0,0.0,0.0,0.0,0.0,0.0,0.0,0.0,0.0,0.0,0.0,0.0,0.0,0.0,0.0,0.0,0.0,0.0,0.0,0.0,0.0,0.0,0.0,0.0,0.0,0.0,0.0,0.0,0.0,0.0,0.0,0.0,0.0,0.0,0.0,0.0,0.0,0.0,0.0,0.0,0.0,0.0,0.0,0.0,0.0,0.0,0.0,0.0,0.0,0.0,0.0,0.0,0.0,0.0,0.0,0.0,0.0,0.0,0.0,0.0,0.0,0.0,0.0,0.0,0.0,0.0,0.0,0.0,0.0,0.0,0.0,0.0,0.0,0.0,0.0,0.0,0.0,0.0,0.0,0.0,0.0,0.0,0.0,0.0,0.0,0.0,0.0,0.0,0.0,0.0,0.0,0.0,0.0,0.0,0.0,0.0,0.0,0.0,0.0,0.0,0.0,0.0,0.0,0.0,0.0,0.0,0.0,0.0,0.0,0.0,0.0,0.0,0.0,0.0,0.0,0.0,0.0,0.0,0.0,0.0,0.0,0.0,0.0,0.0,0.0,0.0,0.0,0.0,0.0,0.0,0.0,0.0,0.0,0.0,0.0,0.0,0.0,0.0,0.0,0.0,0.0,0.0,0.0,0.0,0.0,0.0,0.0,0.0,0.0,0.0,0.0,0.0,0.0,0.0,0.0,0.0,0.0,0.0,0.0,0.0,0.0,0.0,0.0,0.0,0.0,0.0,0.0,0.0,0.0,0.0,0.0,0.0,0.0,0.0,0.0,0.0,0.0,0.0,0.0,0.0,0.0,0.0,0.0,0.0,0.0,0.0,0.0,0.0,0.0,0.0,0.0,0.0,0.0,0.0,0.0,0.0,0.0,0.0,0.0,0.0,0.0,0.0,0.0,0.0,0.0,0.0,0.0,0.0,0.0,0.0,0.0,0.0,0.0,0.0,0.0,0.0,0.0,0.0,0.0,0.0,0.0,0.0,0.0,0.0,0.0,0.0,0.0,0.0,0.0,0.0,0.0,0.0,0.0,0.0,0.0,0.0,0.0,0.0,0.0,0.0,0.0,0.0,0.0,0.0,0.0,0.0,0.0,0.0,0.0,0.0,0.0,0.0,0.0,0.0,0.0,0.0,0.0,0.0,0.0,0.0,0.0,0.0,0.0,0.0,0.0,0.0,0.0,0.0,0.0,0.0,0.0,0.0,0.0,0.0,0.0,0.0,0.0,0.0,0.0,0.0,0.0,0.0,0.0,0.0,0.0,0.0,0.0,0.0,0.0,0.0,0.0,0.0,0.0,0.0,0.0,0.0,0.0,0.0,0.0,0.0,0.0,0.0,0.0,0.0,0.0,0.0,0.0,0.0,0.0,0.0,0.0,0.0,0.0,0.0,0.0,0.0,0.0,0.0,0.0,0.0,0.0,0.0,0.0,0.0,0.0,0.0,0.0,0.0,0.0,0.0,0.0,0.0,0.0,0.0,0.0,0.0,0.0,0.0,0.0,0.0,0.0,0.0,0.0,0.0,0.0,0.0,0.0,0.0,0.0,0.0,0.0,0.0,0.0,0.0,0.0,0.0,0.0,0.0,0.0,0.0,0.0,0.0,0.0,0.0,0.0,0.0,0.0,0.0,0.0,0.0,0.0,0.0,0.0,0.0,0.0,0.0,0.0,0.0,0.0,0.0,0.0,0.0,0.0,0.0,0.0,0.0,0.0,0.0,0.0,0.0,0.0,0.0,0.0,0.0,0.0,0.0,0.0,0.0,0.0,0.0,0.0,0.0,0.0,0.0,0.0,0.0,0.0,0.0,0.0,0.0,0.0,0.0,0.0,0.0,0.0,0.0,0.0,0.0,0.0,0.0,0.0,0.0,0.0,0.0,0.0,0.0,0.0,0.0,0.0,0.0,0.0,0.0,0.0,0.0,0.0,0.0,0.0,0.0,0.0,0.0,0.0,0.0,0.0,0.0,0.0,0.0,0.0,0.0,0.0,0.0,0.0,0.0,0.0,0.0,0.0,0.0,0.0,0.0,0.0,0.0,0.0,0.0,0.0,0.0,0.0,0.0,0.0,0.0,0.0,0.0,0.0,0.0,0.0,0.0,0.0,0.0,0.0,0.0,0.0,0.0,0.0,0.0,0.0,0.0,0.0,0.0,0.0,0.0,0.0,0.0,0.0,0.0,0.0,0.0,0.0,0.0,0.0,0.0,0.0,0.0,0.0,0.0,0.0,0.0,0.0,0.0,0.0,0.0,0.0,0.0,0.0,0.0,0.0,0.0,0.0,0.0,0.0,0.0,0.0,0.0,0.0,0.0,0.0,0.0,0.0,0.0,0.0,0.0,0.0,0.0,0.0,0.0,0.0,0.0,0.0,0.0,0.0,0.0,0.0,0.0,0.0,0.0,0.0,0.0,0.0,0.0,0.0,0.0,0.0,0.0,0.0,0.0,0.0,0.0,0.0,0.0,0.0,0.0,0.0,0.0,0.0,0.0,0.0,0.0,0.0,0.0,0.0,0.0,0.0,0.0,0.0,0.0,0.0,0.0,0.0,0.0,0.0,0.0,0.0,0.0,0.0,0.0,0.0,0.0,0.0,0.0,0.0,0.0,0.0,0.0,0.0,0.0,0.0,0.0,0.0,0.0,0.0,0.0,0.0,0.0,0.0,0.0,0.0,0.0,0.0,0.0,0.0,0.0,0.0,0.0,0.0,0.0,0.0,0.0,0.0,0.0,0.0,0.0,0.0,0.0,0.0,0.0,0.0,0.0,0.0,0.0,0.0,0.0,0.0,0.0,0.0,0.0,0.0,0.0,0.0,0.0,0.0,0.0,0.0,0.0,0.0,0.0,0.0,0.0,0.0,0.0,0.0,0.0,0.0,0.0,0.0,0.0,0.0,0.0,0.0,0.0,0.0,0.0,0.0,0.0,0.0,0.0,0.0,0.0,0.0,0.0,0.0,0.0,0.0,0.0,0.0,0.0,0.0,0.0,0.0,0.0,0.0,0.0,0.0,0.0,0.0,0.0,0.0,0.0,0.0,0.0,0.0,0.0,0.0,0.0,0.0,0.0,0.0,0.0,0.0,0.0,0.0,0.0,0.0,0.0,0.0,0.0,0.0,0.0,0.0,0.0,0.0,0.0,0.0,0.0,0.0,0.0,0.0,0.0,0.0,0.0,0.0,0.0,0.0,0.0,0.0,0.0,0.0,0.0,0.0,0.0,0.0,0.0,0.0,0.0,0.0,0.0,0.0,0.0,0.0,0.0,0.0,0.0,0.0,0.0,0.0,0.0,0.0,0.0,0.0,0.0,0.0,0.0,0.0,0.0,0.0,0.0,0.0,0.0,0.0,0.0,0.0,0.0,0.0,0.0,0.0,0.0,0.0,0.0,0.0,0.0,0.0,0.0,0.0,0.0,0.0,0.0,0.0,0.0,0.0,0.0,0.0,0.0,0.0,0.0,0.0,0.0,0.0,0.0,0.0,0.0,0.0,0.0,0.0,0.0,0.0,0.0,0.0,0.0,0.0,0.0,0.0,0.0,0.0,0.0,0.0,0.0,0.0,0.0,0.0,0.0,0.0,0.0,0.0,0.0,0.0,0.0,0.0,0.0,0.0,0.0,0.0,0.0,0.0,0.0,0.0,0.0,0.0,0.0,0.0,0.0,0.0,0.0,0.0,0.0,0.0,0.0,0.0,0.0,0.0,0.0,0.0,0.0,0.0,0.0,0.0,0.0,0.0,0.0,0.0,0.0,0.0,0.0,0.0,0.0,0.0,0.0,0.0,0.0,0.0,0.0,0.0,0.0,0.0,0.0,0.0,0.0,0.0,0.0,0.0,0.0,0.0,0.0,0.0,0.0,0.0,0.0,0.0,0.0,0.0,0.0,0.0,0.0,0.0,0.0,0.0,0.0,0.0,0.0,0.0,0.0,0.0,0.0,0.0,0.0,0.0,0.0,0.0,0.0,0.0,0.0,0.0,0.0,0.0,0.0,0.0,0.0,0.0,0.0,0.0,0.0,0.0,0.0,0.0,0.0,0.0,0.0,0.0,0.0,0.0,0.0,0.0,0.0,0.0,0.0,0.0,0.0,0.0,0.0,0.0,0.0,0.0,0.0,0.0,0.0,0.0,0.0,0.0,0.0,0.0,0.0,0.0,0.0,0.0,0.0,0.0,0.0,0.0,0.0,0.0,0.0,0.0,0.0,0.0,0.0,0.0,0.0,0.0,0.0,0.0,0.0,0.0,0.0,0.0,0.0,0.0,0.0,0.0,0.0,0.0,0.0,0.0,0.0,0.0,0.0,0.0,0.0,0.0,0.0,0.0,0.0,0.0,0.0,0.0,0.0,0.0,0.0,0.0,0.0,0.0,0.0,0.0,0.0,0.0,0.0,0.0,0.0,0.0,0.0,0.0,0.0,0.0,0.0,0.0,0.0,0.0,0.0,0.0,0.0,0.0,0.0,0.0,0.0,0.0,0.0,0.0,0.0,0.0,3.6853,0.0,0.0,0.0,0.0,0.0,0.0,0.0,0.0,0.0,0.0,0.0,0.0,0.0,0.0,0.0,0.0,0.0,0.0,0.0,0.0,0.0,0.0,0.0,0.0,0.0,0.0,0.0,0.0,0.0,0.0,0.0,0.0,0.0,0.0,0.0,0.0,0.0,0.0,0.0,3.6693,3.6693,3.6705,3.7157,3.7363,3.7338,0.0,0.0,0.0,0.0,0.0,0.0,0.0,0.0,0.0,0.0,0.0,0.0,0.0,0.0,0.0,0.0,0.0,0.0,0.0,0.0,0.0,0.0,0.0,0.0,0.0,0.0,0.0,0.0,0.0,0.0,0.0,0.0,0.0,0.0,0.0,0.0,0.0,0.0,0.0,0.0,0.0,0.0,0.0,0.0,0.0,0.0,0.0,0.0,0.0,0.0,0.0,0.0,0.0,0.0,0.0,0.0,0.0,0.0,0.0,0.0,0.0,0.0,0.0,0.0,0.0,0.0,0.0,0.0,0.0,0.0,0.0,3.7441,0.0,0.0,0.0,0.0,0.0,0.0,0.0,0.0,0.0,0.0,0.0,0.0,0.0,0.0,0.0,0.0,0.0,0.0,0.0,0.0,0.0,0.0,0.0,0.0,3.6005,3.6005,3.6005,3.6287,0.0,0.0,0.0,0.0,0.0,0.0,0.0,3.791,3.791,3.791,3.791,3.791,3.791,3.791,3.7626,3.7166,3.7224,0.0,0.0,0.0,0.0,0.0,0.0,0.0,0.0,0.0,0.0,0.0,0.0,0.0,0.0,0.0,0.0,0.0,0.0,0.0,0.0,0.0,0.0,0.0,0.0,0.0,0.0,0.0,0.0,0.0,0.0,0.0,0.0,0.0,0.0,0.0,0.0,0.0,0.0,0.0,0.0,0.0,0.0,0.0,0.0,0.0,0.0,0.0,0.0,0.0,0.0,0.0,0.0,0.0,0.0,0.0,0.0,0.0,0.0,0.0,0.0,0.0,0.0,0.0,4.1095,4.1062,4.0968,4.107,4.1062,4.0894,3.9648,3.9122,3.9122,0.0,0.0,0.0,0.0,0.0,0.0,0.0,0.0,0.0,0.0,0.0,0.0,0.0,0.0,0.0,0.0,0.0,0.0,0.0,0.0,0.0,0.0,3.7212,3.7606,3.7606,3.7606,3.764,3.7753,0.0,0.0,0.0,0.0,0.0,3.791,3.791,3.791,3.791,3.791,3.791,3.791,3.791,3.8035,3.8259,3.7657,3.7669,3.8148,0.0,0.0,0.0,0.0,0.0,0.0,0.0,0.0,0.0,0.0,0.0,0.0,0.0,0.0,0.0,0.0,0.0,0.0,0.0,0.0,0.0,0.0,0.0,0.0,0.0,0.0,0.0,0.0,0.0,0.0,0.0,0.0,0.0,0.0,0.0,0.0,0.0,0.0,0.0,0.0,0.0,3.8168,3.8168,0.0,0.0,0.0,0.0,0.0,0.0,0.0,0.0,0.0,0.0,0.0,0.0,0.0,4.0838,4.0956,4.0956,4.0993,4.1095,4.1095,4.0892,4.0518,4.0918,4.0892,4.049,4.0707,0.0,4.0773,4.0773,0.0,0.0,0.0,0.0,0.0,0.0,0.0,0.0,0.0,0.0,0.0,0.0,0.0,0.0,0.0,0.0,0.0,0.0,0.0,0.0,0.0,3.7719,3.791,3.791,3.791,3.8079,3.8497,3.8531,0.0,0.0,0.0,3.9153,3.9153,3.9153,3.9153,3.9153,3.9153,3.9153,3.9153,3.9153,3.9229,3.9354,3.8616,3.8466,3.8798,3.898,0.0,0.0,0.0,0.0,0.0,0.0,0.0,0.0,0.0,0.0,0.0,0.0,0.0,0.0,0.0,0.0,0.0,0.0,0.0,0.0,0.0,0.0,0.0,0.0,0.0,0.0,0.0,0.0,0.0,0.0,0.0,0.0,0.0,0.0,0.0,0.0,0.0,0.0,0.0,3.8051,3.7835,3.8076,3.8642,3.8847,0.0,0.0,0.0,0.0,0.0,0.0,0.0,0.0,0.0,4.097,4.1225,4.1706,4.2313,4.2349,4.2575,4.3018,4.3018,4.2894,4.2725,4.2904,4.2894,4.2725,4.2904,4.3018,4.2912,4.1643,4.1095,4.1095,0.0,0.0,0.0,0.0,4.0333,4.0039,0.0,0.0,0.0,0.0,0.0,0.0,0.0,0.0,0.0,0.0,0.0,0.0,3.8193,3.8362,3.8464,3.8464,3.8464,3.87,3.9254,3.9288,3.9525,4.0079,4.0113,4.0113,4.0113,4.0113,4.0113,4.0113,4.0113,4.0113,4.0113,4.0113,4.0113,4.0079,3.9525,3.9258,3.9218,3.957,3.9244,3.8585,0.0,0.0,0.0,0.0,0.0,0.0,0.0,0.0,0.0,0.0,0.0,0.0,0.0,0.0,0.0,0.0,0.0,0.0,0.0,0.0,0.0,0.0,0.0,0.0,0.0,0.0,0.0,0.0,0.0,0.0,0.0,0.0,0.0,0.0,0.0,0.0,0.0,3.8367,3.8093,3.8527,3.9084,3.9283,0.0,0.0,0.0,0.0,0.0,0.0,4.0522,4.0929,4.1355,4.1802,4.2151,4.2735,4.3608,4.3775,4.4177,4.478,4.4983,4.5023,4.4922,4.5034,4.5023,4.4922,4.5034,4.5054,4.4895,4.293,4.2091,4.1976,4.223,4.2137,4.1877,4.1979,4.1874,4.169,0.0,0.0,0.0,0.0,0.0,0.0,0.0,0.0,0.0,0.0,0.0,3.8937,3.8937,3.9559,4.0011,4.0011,4.0011,4.0011,4.0045,4.0045,4.0079,4.0113,4.0113,4.0113,4.0113,4.0113,4.0113,4.0113,4.0113,4.0113,4.0113,4.0113,4.0113,4.0113,4.0079,3.9664,3.8991,3.8768,3.8721,3.8848,3.9785,0.0,0.0,0.0,0.0,0.0,0.0,0.0,0.0,0.0,0.0,0.0,0.0,0.0,0.0,0.0,0.0,0.0,0.0,0.0,0.0,0.0,0.0,0.0,0.0,0.0,0.0,0.0,0.0,0.0,0.0,0.0,0.0,0.0,0.0,0.0,0.0,0.0,0.0,3.9753,3.9789,0.0,0.0,0.0,0.0,4.0246,4.0642,4.1332,4.2505,4.2951,4.3522,4.4281,4.4338,4.4374,4.4424,4.5114,4.5494,4.553,4.6255,4.6377,4.6026,4.6401,4.6366,4.6039,4.6413,4.6599,4.6503,4.5436,4.471,4.4407,4.5311,4.4912,4.3899,4.4336,4.4048,4.3396,0.0,0.0,0.0,0.0,0.0,0.0,0.0,0.0,3.9322,3.9322,3.9525,3.9694,3.9694,3.9943,4.0113,4.0113,4.0113,4.0113,4.0113,4.0113,4.0113,4.0113,4.0113,4.0113,4.0113,4.0113,4.0113,4.0113,4.0574,4.0798,4.0832,4.1284,4.1521,4.1487,4.1001,4.0663,4.0396,4.0225,3.9903,3.9617,4.0324,4.0253,0.0,0.0,0.0,0.0,0.0,0.0,0.0,0.0,0.0,0.0,0.0,0.0,0.0,0.0,0.0,0.0,0.0,0.0,0.0,0.0,0.0,0.0,0.0,0.0,0.0,0.0,0.0,0.0,0.0,0.0,0.0,0.0,0.0,0.0,0.0,0.0,0.0,3.9392,4.0295,0.0,4.0552,4.1637,4.233,4.2193,4.23,4.2788,4.3674,4.412,4.4788,4.5813,4.611,4.6321,4.6567,4.6799,4.6938,4.6938,4.7217,4.7265,4.7128,4.7278,4.7265,4.7141,4.7278,4.7357,4.7326,4.7271,4.6642,4.5636,4.5513,4.5364,4.5241,4.5425,4.5296,4.5039,0.0,0.0,0.0,0.0,0.0,0.0,0.0,0.0,4.0113,4.0113,4.0113,4.0113,4.0113,4.0113,4.0113,4.0113,4.0113,4.0113,4.0113,4.0113,4.0113,4.0113,4.0113,4.0113,4.0113,4.0337,4.0472,4.0472,4.1204,4.1576,4.1576,4.2049,4.23,4.23,4.1779,4.1576,4.1568,4.152,4.0974,4.0204,4.0705,4.0613,4.0139,0.0,0.0,0.0,0.0,0.0,0.0,0.0,0.0,0.0,0.0,0.0,0.0,0.0,0.0,0.0,0.0,0.0,0.0,0.0,0.0,0.0,0.0,0.0,0.0,0.0,0.0,0.0,0.0,0.0,0.0,0.0,0.0,0.0,0.0,0.0,4.0019,4.0674,4.1542,4.2021,4.1904,4.3135,4.3957,4.3944,4.4195,4.4678,4.5402,4.5701,4.62,4.6941,4.7216,4.7472,4.7686,4.7962,4.8065,4.8065,4.8341,4.8479,4.8479,4.8479,4.8479,4.8479,4.8479,4.8479,4.8473,4.8499,4.8088,4.7371,4.6977,4.6918,4.7054,4.743,4.7535,4.7535,0.0,0.0,0.0,0.0,0.0,0.0,0.0,4.0113,4.0113,4.0113,4.0113,4.0113,4.0113,4.0113,4.0113,4.0113,4.0113,4.0113,4.0113,4.0113,4.0113,4.0113,4.0113,4.0113,4.0146,4.0832,4.1191,4.1225,4.1982,4.2333,4.2333,4.2367,4.2367,4.2367,4.2367,4.2333,4.2333,4.2453,4.1746,4.0568,4.0977,4.1047,4.0884,0.0,0.0,0.0,0.0,0.0,0.0,0.0,0.0,0.0,0.0,0.0,0.0,0.0,0.0,0.0,0.0,0.0,0.0,0.0,0.0,0.0,0.0,0.0,0.0,0.0,0.0,0.0,0.0,0.0,0.0,0.0,0.0,0.0,4.1987,4.2021,4.2467,4.3652,4.3491,4.3427,4.3839,4.4195,4.4712,4.5397,4.6203,4.6962,4.7686,4.772,4.7755,4.7789,4.7789,4.7789,4.7789,4.8479,4.8844,4.8858,4.9617,5.0011,5.0011,5.0011,5.0011,5.0011,5.0011,5.0011,4.9942,4.9169,4.9146,4.9649,4.984,4.9644,4.9329,5.0367,5.0762,5.0762,0.0,0.0,0.0,0.0,0.0,0.0,0.0,4.0113,4.0113,4.0113,4.0113,4.0113,4.0113,4.0113,4.0113,4.0113,4.0113,4.0113,4.0113,4.0113,4.0113,4.0113,4.0113,4.0337,4.0899,4.1102,4.1474,4.1982,4.276,4.3085,4.3118,4.3673,4.3958,4.3924,4.3369,4.3085,4.3051,4.2563,4.2181,4.1916,4.1576,4.1332,4.1151,0.0,0.0,0.0,0.0,0.0,0.0,0.0,0.0,0.0,0.0,0.0,0.0,0.0,0.0,0.0,0.0,0.0,0.0,0.0,0.0,0.0,0.0,0.0,0.0,0.0,0.0,0.0,0.0,0.0,0.0,0.0,0.0,4.2654,4.209,4.2516,4.3187,4.4073,4.4548,4.5083,4.5745,4.6401,4.6858,4.7065,4.7272,4.772,4.8479,4.8499,4.8755,4.9341,4.9375,4.9375,4.9375,4.9582,4.9651,4.9651,4.9893,5.0011,5.0011,5.0011,5.0011,5.0011,5.0011,5.0011,4.9976,4.9755,4.9752,4.9826,4.912,4.9004,4.9234,4.9541,4.9645,4.9645,0.0,0.0,0.0,0.0,0.0,0.0,0.0,4.0113,4.0113,4.0113,4.0113,4.0113,4.0113,4.0113,4.0113,4.0113,4.0113,4.0113,4.0113,4.0113,4.0113,4.0113,4.0405,4.0764,4.1204,4.18,4.2341,4.276,4.3538,4.4079,4.437,4.4823,4.5244,4.5481,4.4722,4.437,4.4302,4.3586,4.3105,4.2833,4.2519,4.1987,4.1381,4.0879,4.0871,4.1048,4.0883,4.07,4.0491,4.0262,0.0,0.0,0.0,0.0,0.0,0.0,0.0,0.0,0.0,0.0,0.0,0.0,0.0,0.0,0.0,0.0,0.0,0.0,0.0,0.0,0.0,0.0,0.0,0.0,4.3712,4.394,4.3492,4.3837,4.4527,4.5596,4.61,4.6548,4.7031,4.772,4.8169,4.8169,4.8479,4.8858,4.9272,4.9306,4.9513,5.0011,5.0011,5.0011,5.0011,5.0011,5.0011,5.0011,5.0011,5.0011,5.0011,5.0011,5.0011,0.0,5.0011,5.0011,5.0011,5.0011,5.0011,0.0,0.0,0.0,0.0,0.0,5.0196,5.0196,0.0,0.0,0.0,0.0,0.0,0.0,0.0,4.0113,4.0113,4.0113,4.0113,4.0113,4.0113,4.0113,4.0113,4.0113,4.0113,4.0113,4.0113,4.0113,4.0113,4.0113,4.0798,4.1238,4.1339,4.2679,4.3457,4.3524,4.4316,4.5074,4.5703,4.5805,4.6177,4.6766,4.6109,4.5771,4.5669,4.5007,4.4248,4.3524,4.3436,4.2738,4.1656,4.104,4.0744,4.0649,4.0678,4.0714,4.0738,4.0823,0.0,0.0,0.0,0.0,0.0,0.0,0.0,0.0,0.0,0.0,0.0,0.0,0.0,0.0,0.0,0.0,0.0,0.0,0.0,0.0,0.0,0.0,0.0,0.0,4.4768,4.5673,4.5776,4.5776,4.6293,4.7651,4.7824,4.7858,4.7962,4.8548,4.8962,4.8962,4.9582,5.0011,5.0011,0.0,0.0,0.0,0.0,5.0168,5.0252,5.0237,5.0237,5.0237,5.0237,5.0237,5.0237,5.0237,5.0237,5.0237,5.0237,5.0237,5.0237,5.0237,5.0203,5.0158,5.0558,5.0694,5.0762,5.1231,5.1411,0.0,0.0,0.0,0.0,0.0,0.0,0.0,0.0,4.0113,4.0113,4.0113,4.0113,4.0113,4.0113,4.0113,4.0113,4.0113,4.0113,4.0113,4.0113,4.0113,4.0113,4.0113,4.0798,4.1474,4.2049,4.2949,4.3727,4.4364,4.5128,4.5568,4.5689,4.6312,4.665,4.6786,4.665,4.6244,4.5703,4.5534,4.506,4.4296,4.3797,4.3083,4.2265,4.1656,4.1495,4.1466,4.0908,4.0714,4.068,4.075,4.075,4.0774,4.0859,4.0894,0.0,0.0,0.0,0.0,0.0,0.0,0.0,0.0,0.0,0.0,0.0,0.0,0.0,0.0,0.0,0.0,0.0,0.0,0.0,4.5941,4.6686,4.7479,4.8051,4.812,4.8258,4.8534,4.8582,4.8858,4.9479,4.9686,4.9769,4.9769,4.9893,5.0011,5.0011,5.0011,5.0272,5.0858,5.0893,5.1168,5.1755,5.1789,5.1789,5.1789,0.0,0.0,5.1789,5.1789,5.1789,5.1789,5.1789,5.1789,5.1789,5.1789,5.141,5.0838,5.0348,5.0149,5.0163,5.0277,5.032,5.032,0.0,0.0,0.0,0.0,0.0,0.0,0.0,4.0113,4.0113,4.0113,4.0113,4.0113,4.0113,4.0113,4.0113,4.0113,4.0113,4.0113,4.0113,4.0113,4.0113,4.0113,4.1149,4.1914,4.23,4.3403,4.4195,4.4615,4.4973,4.5548,4.6244,4.6616,4.7192,4.7868,4.7139,4.6583,4.621,4.5466,4.4939,4.4581,4.423,4.3885,4.3457,4.2422,4.1806,4.1443,4.1144,4.0842,4.0607,4.0702,4.0728,4.0799,4.0871,4.1159,4.1504,0.0,0.0,0.0,0.0,0.0,0.0,0.0,0.0,0.0,0.0,0.0,0.0,0.0,0.0,4.5561,4.5927,0.0,4.7134,4.7134,4.7789,4.8376,4.8755,4.9134,4.941,4.941,4.941,4.9548,4.9976,5.0011,5.0149,5.0513,5.0548,5.072,5.1065,5.1099,5.1272,5.1651,5.1651,5.1824,5.2203,5.2203,5.2203,5.2203,5.2203,5.2203,5.2203,5.2203,5.2203,5.2203,5.2203,5.2203,5.2203,5.2203,5.1996,5.1617,5.1237,5.0651,5.0011,5.0011,5.0011,5.0011,0.0,0.0,0.0,0.0,0.0,0.0,0.0,4.0011,4.0113,4.0113,4.0113,4.0113,4.0113,4.0113,4.0113,4.0113,4.0113,4.0113,4.0113,4.0113,4.0113,4.0113,4.1386,4.2151,4.23,4.3653,4.4432,4.4615,4.4736,4.5413,4.6583,4.6733,4.7428,4.8511,4.7327,4.6718,4.6515,4.5311,4.4736,4.4615,4.4615,4.4615,4.4479,4.3356,4.2291,4.1459,4.1431,4.1034,4.0485,4.0607,4.0807,4.1028,4.1076,4.1571,4.2226,4.2388,4.2896,0.0,0.0,0.0,0.0,0.0,0.0,0.0,0.0,4.5397,4.5432,4.5604,4.6134,4.6652,4.6789,4.741,4.7927,4.7927,4.8548,4.9031,4.9031,4.9582,5.0011,5.0011,5.0011,5.008,5.0203,5.0203,5.0513,5.1272,5.1306,5.1582,5.2168,5.2203,5.2272,5.2444,5.2444,5.2513,5.2651,5.2651,5.2651,5.2651,5.2651,5.2651,5.2651,5.2651,5.2651,5.2651,5.2651,5.2651,5.2651,5.2479,5.2444,5.241,5.2272,5.1479,5.0424,5.0272,5.0203,5.0168,0.0,0.0,0.0,0.0,0.0,0.0,0.0,0.0,4.0113,4.0113,4.0113,4.0113,4.0113,4.0113,4.0113,4.0113,4.0113,4.0113,4.0113,4.0113,4.0113,4.0113,4.0878,4.1644,4.23,4.3098,4.3876,4.4615,4.5263,4.5669,4.5838,4.6481,4.6902,4.7037,4.6868,4.6447,4.5805,4.5635,4.5196,4.4615,4.4615,4.4615,4.4567,4.4426,4.3532,4.2302,4.1763,4.1034,4.0337,4.0485,4.0892,4.1388,4.1626,4.2215,4.2962,4.379,4.4104,4.4298,4.4962,4.5169,4.5156,4.5272,4.5328,4.5397,0.0,4.5397,4.5604,4.6307,4.6548,4.6789,4.7445,4.8169,4.8686,4.8686,4.9341,4.9873,4.9873,4.9942,5.0011,5.0011,5.0011,5.0252,5.0893,5.0962,5.1272,5.203,5.2065,5.2099,5.2203,5.2203,5.2513,5.3253,5.3287,5.3598,5.4237,5.4237,5.4237,5.4237,5.4237,5.4237,5.4237,5.4237,5.4237,5.4237,5.4237,5.4237,5.4168,5.3529,5.3287,5.3184,5.2479,5.2099,5.1858,5.1203,5.0962,5.0893,0.0,0.0,0.0,0.0,0.0,0.0,0.0,0.0,0.0,4.0045,4.0113,4.0113,4.0113,4.0113,4.0113,4.0113,4.0113,4.0113,4.0113,4.0113,4.0113,4.0113,4.0798,4.1339,4.1644,4.2814,4.3558,4.391,4.4688,4.5263,4.5703,4.6007,4.638,4.68,4.6346,4.6007,4.5669,4.5229,4.4871,4.4615,4.4615,4.4615,4.4615,4.4615,4.3952,4.2996,4.2724,4.1946,0.0,4.1634,4.2064,4.2465,4.2565,4.3119,4.3773,4.4182,4.4609,4.4996,4.5328,4.5397,4.5397,4.5397,4.5397,4.55,4.5996,4.61,4.6307,4.7065,4.7582,4.7962,4.8272,4.8962,4.9513,4.9513,4.9789,5.0011,5.0011,5.0375,5.0651,5.0651,5.103,5.1237,5.1099,5.1479,5.2065,5.2823,5.2892,5.3099,5.3513,5.3548,5.3685,5.4046,5.4046,5.4184,5.4478,5.4478,5.4478,5.4478,5.4478,5.4478,5.4478,5.4478,5.4478,5.4478,5.4478,5.4478,5.4478,5.4184,5.4046,5.4011,5.3651,5.3548,5.3375,5.2168,5.1755,5.1686,0.0,0.0,0.0,0.0,0.0,0.0,0.0,0.0,0.0,0.0,3.9977,4.0113,4.0113,4.0113,4.0113,4.0113,4.0113,4.0113,4.0113,4.0113,4.0113,4.0113,4.0608,4.1001,4.1204,4.2239,4.2983,4.3389,4.3978,4.4654,4.5399,4.5399,4.5669,4.6157,4.5635,4.5399,4.5365,4.4838,4.4615,4.4567,4.4364,4.4262,4.4262,4.4025,4.3606,4.3132,4.3362,4.2751,4.1899,4.2458,4.2929,4.3254,4.3327,4.3881,4.4505,4.4544,4.4936,4.5397,4.5397,4.5397,4.5466,4.5673,4.5742,4.5927,4.672,4.6893,4.71,4.7858,4.8444,4.8858,4.91,4.9617,5.0011,5.0011,5.0011,5.008,5.0272,5.0755,5.1168,5.1375,5.2065,5.2306,5.1789,5.2203,5.2858,5.3616,5.3701,5.3942,5.4494,5.4478,5.4478,5.4478,5.4478,5.4478,5.4478,5.4478,5.4478,5.4478,5.4478,5.4478,5.4478,5.4478,5.4478,5.4478,5.4478,5.4478,5.4478,5.4478,5.4478,5.4478,5.4478,5.4478,5.4341,5.3237,5.272,5.2513,0.0,0.0,0.0,0.0,0.0,0.0,0.0,0.0,0.0,0.0,0.0,0.0,0.0,4.0113,4.0113,4.0113,4.0113,4.0113,4.0113,4.0113,4.0113,4.0113,4.0113,4.0472,4.117,4.1225,4.1969,4.3389,4.3423,4.3842,4.4635,4.4635,4.4649,4.4682,4.4635,4.4635,4.4635,4.4601,4.4615,4.4533,4.3761,4.3457,4.3355,4.2625,4.2367,4.2448,4.3281,4.3016,4.2292,4.2445,4.2901,4.3444,4.3627,4.4265,4.4981,4.5129,4.5283,4.5397,4.5397,4.5397,4.5569,4.6376,4.6548,4.6755,4.7514,4.7686,4.7893,4.8603,4.8775,4.9031,4.9824,4.9976,5.0011,5.0011,5.0011,5.0237,5.0962,5.1099,5.1375,5.2099,5.2858,5.3356,0.0,5.3356,5.3667,5.441,5.4494,5.4478,5.4478,5.4478,5.4478,5.4478,5.4478,5.4478,5.4478,5.4478,5.4478,5.4478,5.4478,5.4478,5.4478,5.4478,5.4478,5.4478,5.4478,5.4478,5.4478,5.4478,5.4478,5.4478,5.4478,5.4478,5.4478,5.446,5.3977,5.3253,0.0,0.0,0.0,0.0,0.0,0.0,0.0,0.0,0.0,0.0,0.0,0.0,0.0,0.0,0.0,0.0,4.0113,4.0113,4.0113,4.0113,4.0113,4.0113,4.0113,4.0214,4.0472,4.0933,4.1441,4.1935,4.2422,4.2807,4.3078,4.3078,4.3078,4.3078,4.3078,4.3078,4.3078,4.3078,4.3078,4.3044,4.276,4.2658,4.2692,4.2949,4.3017,4.3146,0.0,4.3899,4.3294,4.3844,4.4272,4.4598,4.4652,4.4965,4.5278,4.5331,4.5371,4.5397,4.5397,4.579,4.6272,4.6514,4.6962,4.7514,4.8272,4.8444,4.8651,4.9444,4.9582,4.9686,4.9927,5.0011,5.0011,5.0011,5.0011,5.0252,5.0996,5.1513,5.2134,5.2892,5.3667,0.0,0.0,0.0,0.0,5.4478,5.4478,5.4478,5.4478,5.4478,5.4478,5.4478,5.4961,5.5237,5.5237,5.577,5.6046,5.6046,5.6046,5.577,5.5237,5.5237,5.4961,5.4478,5.4478,5.4478,5.4478,5.4478,5.4478,5.4478,5.4478,5.4478,5.4478,5.4478,5.4356,5.4099,0.0,0.0,0.0,0.0,0.0,0.0,0.0,0.0,0.0,0.0,0.0,0.0,0.0,0.0,0.0,0.0,0.0,4.0113,4.0113,4.0113,4.0113,4.0113,4.0113,4.0113,4.0113,4.0574,4.0933,4.1204,4.1677,4.2049,4.23,4.23,4.23,4.23,4.23,4.23,4.23,4.23,4.23,4.23,4.2016,4.1914,4.1927,4.2204,4.2584,0.0,4.3736,4.4041,4.4191,4.4688,4.4995,4.5123,4.5123,4.5203,4.5344,4.5384,4.5397,4.5453,4.5641,4.6163,4.672,4.7169,4.7713,4.8307,4.9065,4.9238,4.9375,4.9893,5.0011,5.0011,5.0011,5.0011,5.008,5.0341,5.039,5.0755,5.1804,5.2341,5.2927,5.3701,5.4218,5.4478,0.0,0.0,0.0,5.4478,5.4478,5.4632,5.4892,5.4892,5.503,5.5322,5.5789,5.6046,5.6046,5.6529,5.6805,5.6805,5.6805,5.6529,5.6046,5.6046,5.577,5.5322,5.503,5.4892,5.4858,5.4616,5.4478,5.4478,5.4478,5.4478,5.4478,5.4478,5.4478,5.4478,0.0,0.0,0.0,0.0,0.0,0.0,0.0,0.0,0.0,0.0,0.0,0.0,0.0,0.0,0.0,0.0,0.0,0.0,4.0113,4.0113,4.0113,4.0113,4.0113,4.0113,4.0113,4.0113,4.0438,4.1136,4.1136,4.1508,4.2198,4.2198,4.2198,4.2198,4.2198,4.2198,4.2198,4.2198,4.2198,4.213,4.1441,4.1136,4.1094,4.0578,4.1163,4.2326,4.2526,4.3545,4.4845,4.4954,4.4974,4.5009,4.5036,4.5083,4.5217,4.5371,4.5432,4.5577,4.6165,4.6508,4.7038,4.8309,4.8759,4.9065,4.9838,5.0011,5.0011,5.0011,5.0011,5.0011,5.0011,5.0011,5.0252,5.0927,5.1065,5.1617,5.3149,5.3391,5.3667,5.441,5.4478,5.4478,5.4478,0.0,0.0,5.4547,0.0,5.4892,5.5616,5.5651,5.5996,5.6771,5.684,5.6874,5.6874,5.6874,5.6909,5.6909,5.6909,5.6874,5.6874,5.6874,5.684,5.6771,5.5996,5.5651,5.5616,5.4892,5.4582,5.4547,5.4547,5.4513,5.4478,5.4478,5.4478,5.4478,0.0,0.0,0.0,0.0,0.0,0.0,0.0,0.0,0.0,0.0,0.0,0.0,0.0,0.0,0.0,0.0,0.0,0.0,4.0113,4.0113,4.0113,4.0113,4.0113,4.0113,4.0113,4.0113,4.0168,4.0371,4.0371,4.0472,4.0654,4.0654,4.0654,4.0654,4.0654,4.0654,4.0654,4.0654,4.0654,4.0641,4.0472,4.0421,4.0578,4.0955,4.172,4.2683,4.342,4.4295,4.5056,4.4913,4.4927,4.5049,4.5238,4.523,4.5217,4.5371,4.5824,4.6341,4.6473,4.7348,4.8327,4.8664,4.9243,4.9755,4.9927,5.0011,5.0011,5.0011,5.0011,5.0011,5.0011,5.0011,5.008,5.0237,5.072,5.1444,5.2375,5.2996,5.3667,5.441,5.4478,5.4478,5.4478,5.4996,0.0,0.0,5.5306,5.5651,5.646,5.6495,5.6598,5.6805,5.7322,5.7633,5.7633,5.815,5.8461,5.8461,5.8461,5.8133,5.7633,5.7633,5.7322,5.6771,5.6598,5.6495,5.6495,5.6288,5.5874,5.5306,5.5306,5.4961,5.4478,5.4478,5.4478,5.4478,0.0,0.0,0.0,0.0,0.0,0.0,0.0,0.0,0.0,0.0,0.0,0.0,0.0,0.0,0.0,0.0,0.0,0.0,0.0,4.0113,4.0113,4.0113,4.0113,4.0113,4.0113,4.0113,4.0113,4.0113,4.0113,4.0113,4.0113,4.0113,4.0113,4.0113,4.0113,4.0113,4.0113,4.0113,4.0113,0.0,0.0,4.0201,4.0272,4.0877,4.1528,4.2266,4.3224,4.4263,4.5177,4.5103,4.5117,4.5211,4.5357,4.5357,4.5318,4.5384,4.5962,4.6638,4.6928,4.7871,4.8864,4.9117,4.9608,5.0011,5.0011,5.0011,5.0011,5.0011,5.0011,5.0011,5.0011,5.0011,5.0114,5.0424,5.1099,5.1858,5.2617,5.3375,5.4046,5.446,5.4478,5.4616,5.4961,5.5375,5.5892,0.0,5.6322,5.646,5.7253,5.7288,5.7426,5.7771,5.8168,5.8392,5.8392,5.8788,5.8995,5.8995,5.8995,5.8788,5.8392,5.8392,5.815,5.7771,0.0,5.7288,5.7253,5.6943,5.6529,5.615,5.615,5.5858,5.546,5.5099,5.4961,5.4927,0.0,0.0,0.0,0.0,0.0,0.0,0.0,0.0,0.0,0.0,0.0,0.0,0.0,0.0,0.0,0.0,0.0,0.0,0.0,0.0,4.0113,4.0113,4.0113,4.0113,4.0113,4.0113,4.0113,4.0113,4.0113,4.0113,4.0113,4.0113,4.0113,4.0113,4.0113,4.0113,4.0113,4.0125,4.0138,4.015,4.0263,4.0263,4.0226,0.0,4.1025,4.1639,4.2689,4.4001,4.523,4.5371,4.5384,4.5384,4.5397,4.5384,4.5384,4.5397,4.6031,4.6866,4.7395,4.8242,4.9091,4.9595,4.9874,5.0011,5.0011,5.0011,5.0011,5.0011,5.0011,5.0011,5.0011,5.0011,5.0218,5.0858,5.1651,5.2444,5.3149,5.3977,5.4478,5.4478,5.4478,5.4789,5.5513,5.5685,5.634,5.7805,5.7391,5.7357,5.8012,5.8047,5.8357,5.8961,5.8995,5.8995,5.8995,5.8995,5.8995,5.8995,5.8995,5.8995,5.8995,5.8995,5.8995,5.8961,0.0,0.0,5.8012,5.7357,5.7047,5.6943,5.6943,5.6874,5.6736,5.603,5.5754,5.5651,0.0,0.0,0.0,0.0,0.0,0.0,0.0,0.0,0.0,0.0,3.8215,3.8732,0.0,0.0,0.0,0.0,0.0,0.0,0.0,0.0,0.0,4.0113,4.0113,4.0113,4.0113,4.0113,4.0113,4.0113,4.0113,4.0113,4.0113,4.0113,4.0113,4.0113,4.0113,4.0113,4.0113,4.0213,4.0263,4.0275,4.0412,4.051,4.0583,4.0655,0.0,0.0,4.3523,4.4639,4.5371,4.5397,4.5331,4.5243,4.5371,4.5331,4.5278,4.5371,4.641,4.7548,4.7658,4.8706,4.9824,4.9933,4.9982,5.0011,5.0011,5.0011,5.0011,5.0011,5.0011,5.0011,5.0011,5.0011,5.0045,5.0183,5.1306,5.2237,5.2375,5.3616,5.4478,5.4478,5.4478,5.4789,5.5513,5.6219,0.0,0.0,5.8357,5.8651,5.8788,5.8788,5.8857,5.8995,5.8995,5.8995,5.8995,5.8995,5.8995,5.8995,5.8995,5.8995,5.8995,5.8995,5.8995,5.8995,5.8857,0.0,5.8788,5.8651,5.8237,5.7702,5.7702,5.7357,5.6771,5.6633,5.6598,5.6564,0.0,0.0,0.0,0.0,0.0,0.0,0.0,3.647,3.7077,3.8174,3.863,3.9243,4.0201,4.03,4.03,0.0,0.0,0.0,0.0,0.0,0.0,0.0,0.0,0.0,4.0201,4.0138,4.0113,4.0113,0.0,4.0201,4.0201,4.0201,4.0238,4.0313,4.0238,4.0238,4.0325,4.0375,4.0399,4.0412,4.0546,4.0595,4.0607,0.0,0.0,0.0,4.3448,4.4458,4.5397,4.5397,4.5371,4.5331,4.5384,4.5357,4.5331,4.5384,4.65,4.7686,4.7686,4.8824,5.0011,5.0011,5.0011,5.0011,5.0011,5.0011,5.0011,5.0011,5.0011,5.0011,5.0011,5.0011,5.0011,5.0011,5.1237,5.2203,5.2203,5.3513,5.4478,5.4478,5.4823,5.5375,5.615,5.6943,5.7667,5.8426,5.8788,5.8995,5.8995,5.8995,5.8995,5.8995,5.8995,5.8995,5.8995,5.8995,5.8995,5.8995,5.8995,5.8995,5.8995,5.8995,5.8995,5.8995,5.8995,0.0,5.8995,5.8995,5.8788,5.8478,5.8478,5.8254,5.7909,5.7529,5.7357,5.7322,0.0,0.0,0.0,0.0,0.0,0.0,0.0,3.7012,3.7669,3.854,3.9227,3.9857,4.0538,4.0461,4.0412,0.0,0.0,0.0,0.0,0.0,0.0,0.0,0.0,0.0,0.0,0.0,0.0,4.0201,4.0288,0.0,0.0,0.0,0.0,0.0,4.0387,4.0399,4.051,4.0534,4.0546,0.0,0.0,4.0667,0.0,0.0,0.0,0.0,0.0,4.4147,4.5397,4.5397,4.5397,4.5397,4.5397,4.5397,4.5432,4.5604,4.6652,4.772,4.7893,4.8962,5.0011,5.0011,5.0011,5.0011,5.0011,5.0011,5.0011,5.0011,5.0011,5.0011,5.0011,5.0011,5.0011,5.0011,5.1237,5.2203,5.2203,5.3513,5.4478,5.4478,5.5134,5.5927,5.6736,5.746,0.0,5.8926,5.8995,0.0,5.8995,5.8995,5.8995,5.8995,5.8995,5.8995,5.8995,5.8995,5.8995,5.8995,5.8995,5.8995,5.8995,5.8995,5.8995,5.8995,5.8995,0.0,0.0,5.8995,5.8995,5.8995,5.8995,5.8995,5.8926,5.834,5.815,5.8047,0.0,0.0,0.0,0.0,0.0,0.0,0.0,3.7433,3.8008,3.9411,3.9652,3.9997,4.079,4.0728,4.0607,0.0,0.0,0.0,0.0,0.0,0.0,0.0,0.0,0.0,0.0,0.0,0.0,4.0473,4.0485,0.0,0.0,0.0,0.0,0.0,0.0,4.0497,4.051,4.0619,0.0,0.0,0.0,0.0,0.0,0.0,0.0,0.0,0.0,4.4147,4.5397,4.5397,4.5397,4.5397,4.5397,4.5397,4.5535,4.6272,4.7065,4.7858,4.8499,4.9341,5.0011,5.0011,5.0011,5.0011,5.0011,5.0011,5.0011,5.0011,5.0011,5.0011,5.0011,5.0011,5.0011,5.0011,5.1237,5.2203,5.2203,5.3513,5.4478,5.4478,5.5134,5.5927,5.6736,5.746,5.8219,5.8926,0.0,0.0,5.8995,5.8995,5.8995,5.8995,5.8995,5.8995,5.8995,5.8995,5.8995,5.8995,5.8995,5.8995,5.8995,5.8995,5.8995,5.8995,5.8995,0.0,0.0,5.8995,5.8995,5.8995,5.8995,5.8995,5.8995,5.8926,5.8892,5.8892,0.0,0.0,0.0,0.0,0.0,0.0,3.8123,3.8537,3.9054,3.9629,4.0124,4.0538,4.086,4.0835,4.0787,4.074,0.0,0.0,0.0,0.0,0.0,0.0,0.0,0.0,0.0,0.0,4.051,4.051,4.0571,0.0,0.0,0.0,0.0,0.0,0.0,4.0655,4.074,4.0787,0.0,0.0,0.0,0.0,0.0,0.0,0.0,0.0,0.0,0.0,4.5397,4.5397,4.5397,4.5397,4.5397,4.5397,4.5569,4.6376,4.71,4.7858,4.8617,4.9375,5.0011,5.0011,5.0011,5.0011,5.0011,5.0011,5.0011,5.0011,5.0011,5.0011,5.0011,5.0011,5.0011,5.0011,5.1237,5.2203,5.2203,5.3513,5.4478,5.4478,5.5598,5.646,0.0,0.0,5.8685,5.8961,0.0,0.0,5.8995,5.8995,5.8995,5.8995,5.8995,5.8995,5.8995,5.8995,5.8995,5.8995,5.8995,5.8995,5.8995,5.8995,5.8995,5.8995,5.8995,0.0,0.0,5.8995,5.8995,5.8995,5.8995,5.8995,5.8995,5.8995,5.8995,5.8995,0.0,0.0,0.0,0.0,0.0,3.8841,3.8904,3.9478,3.9939,4.0032,4.0538,4.0894,4.0894,4.0894,4.0894,4.0894,4.0728,0.0,0.0,0.0,0.0,0.0,0.0,0.0,0.0,0.0,4.0619,4.0619,4.0704,4.0774,0.0,0.0,4.0799,4.0883,0.0,0.0,0.0,0.0,0.0,0.0,0.0,0.0,0.0,0.0,0.0,0.0,0.0,0.0,0.0,0.0,0.0,4.5397,4.5397,4.5397,4.5604,4.6617,4.7307,4.7927,4.8893,4.9582,5.0011,5.0011,5.0011,5.0011,5.0011,5.0011,5.0011,5.0011,5.0011,5.0011,5.0011,5.0011,5.0011,5.0011,5.1237,5.2203,5.2203,5.3513,5.4582,5.4789,5.5977,5.6874,5.7116,5.8237,5.8995,5.8995,0.0,0.0,5.8995,5.8995,5.8995,5.8995,5.8995,5.8995,5.8995,5.8995,5.8995,5.8995,5.8995,5.8995,5.8995,5.8995,5.8995,5.8995,0.0,0.0,0.0,5.8995,5.8995,5.8995,5.8995,5.8995,5.8995,5.8995,5.8995,5.8995,0.0,0.0,0.0,0.0,0.0,0.0,3.964,4.007,4.0517,4.085,4.0883,4.0894,4.0894,4.0894,4.0894,4.0894,4.0894,0.0,0.0,0.0,0.0,0.0,0.0,0.0,0.0,0.0,4.0883,4.0883,4.0883,4.0894,4.0894,4.0894,4.0894,4.0894,0.0,0.0,0.0,0.0,0.0,0.0,0.0,0.0,0.0,0.0,0.0,0.0,0.0,0.0,0.0,0.0,0.0,0.0,0.0,4.5397,4.5707,4.7238,4.7686,4.8031,4.9582,4.9996,5.0011,5.0011,5.0011,5.0011,5.0011,5.0011,5.0011,5.0011,5.0011,5.0011,5.0011,5.0011,5.0011,5.0011,5.1237,5.2203,5.2203,5.3513,5.4754,5.5513,5.6322,5.7081,5.784,5.8547,5.8995,0.0,0.0,0.0,5.8995,5.8995,5.8995,5.8995,5.8995,5.8995,5.8995,5.8995,5.8995,5.8995,5.8995,5.8995,5.8995,5.8995,5.8995,0.0,0.0,0.0,0.0,5.8995,5.8995,5.8995,5.8995,5.8995,5.8995,5.8995,5.8995,5.8995,0.0,0.0,0.0,0.0,0.0,0.0,0.0,4.0803,4.0862,4.1277,4.1059,4.0894,4.0894,4.0894,4.0894,4.0894,4.0894,0.0,0.0,0.0,0.0,0.0,0.0,0.0,0.0,0.0,4.0894,4.0894,4.0894,4.0894,4.0894,4.0894,4.0894,4.0894,4.0894,4.0894,0.0,0.0,0.0,0.0,0.0,0.0,0.0,0.0,0.0,0.0,0.0,0.0,0.0,0.0,0.0,0.0,0.0,0.0,0.0,4.741,4.7686,4.8031,4.9582,5.0011,5.0011,5.0011,5.0011,5.0011,5.0011,5.0011,5.0011,5.0011,5.0011,5.0011,5.0011,5.0011,5.0011,5.0011,5.1237,5.2203,5.2203,5.3513,5.4582,5.4823,5.6012,5.7288,0.0,0.0,5.8995,0.0,0.0,0.0,5.8995,5.8995,5.8995,5.8995,5.8995,5.8995,5.8995,5.8995,5.8995,5.8995,5.8995,5.8995,5.8995,5.8995,0.0,0.0,0.0,0.0,0.0,5.8995,5.8995,5.8995,5.8995,5.8995,5.8995,5.8995,5.8995,5.8995,0.0,0.0,0.0,0.0,0.0,0.0,0.0,4.1545,4.1401,4.1501,4.1152,4.0894,4.0894,4.0894,4.0894,4.0894,4.0894,0.0,0.0,0.0,0.0,0.0,0.0,0.0,0.0,4.0894,4.0894,4.0894,4.0894,4.0894,4.0894,4.0894,4.0894,4.0894,4.0894,4.0894,0.0,0.0,0.0,0.0,0.0,0.0,4.0917,0.0,0.0,0.0,0.0,0.0,0.0,0.0,0.0,0.0,0.0,0.0,0.0,0.0,4.7893,4.8376,4.9666,5.0011,5.0011,5.0011,5.0011,5.0011,5.0011,5.0011,5.0011,5.0011,5.0011,5.0011,5.0011,5.0011,5.0011,5.0011,5.1237,5.2203,5.2203,5.3513,5.4736,5.5322,5.646,0.0,0.0,5.8995,0.0,0.0,0.0,0.0,5.8995,5.8995,5.8995,5.8995,5.8995,5.8995,5.8995,5.8995,5.8995,5.8995,5.8995,5.8995,5.8995,5.8995,0.0,0.0,0.0,0.0,0.0,5.8995,5.8995,5.8995,5.8995,5.8995,5.8995,5.8995,5.8995,5.8995,0.0,0.0,0.0,0.0,0.0,0.0,0.0,4.2154,4.1977,4.1567,4.1152,4.0894,4.0894,4.0894,4.0894,4.0894,0.0,0.0,0.0,0.0,0.0,0.0,0.0,0.0,0.0,4.0894,4.0894,4.0894,4.0894,4.0894,4.0894,4.0894,4.0894,4.0894,4.0894,4.0894,0.0,0.0,0.0,0.0,0.0,0.0,0.0,0.0,0.0,0.0,0.0,0.0,0.0,0.0,0.0,0.0,0.0,0.0,0.0,0.0,0.0,0.0,0.0,5.0011,5.0011,5.0011,5.0011,5.0011,5.0011,5.0011,0.0,5.0011,5.0011,5.0011,5.0011,5.0011,5.0011,5.0011,5.1237,5.2203,5.2203,5.3513,5.5081,5.6633,5.7391,0.0,5.8926,5.8995,0.0,0.0,0.0,0.0,5.8995,5.8995,5.8995,5.8995,5.8995,5.8995,5.8995,5.8995,5.8995,5.8995,5.8995,5.8995,5.8995,5.8995,0.0,0.0,0.0,0.0,0.0,5.8995,5.8995,5.8995,5.8995,5.8995,5.8995,5.8995,5.8995,5.8995,0.0,0.0,0.0,0.0,0.0,0.0,0.0,0.0,0.0,0.0,4.1152,4.0894,4.0894,4.0894,4.0894,0.0,0.0,0.0,0.0,0.0,0.0,0.0,0.0,0.0,0.0,4.0894,4.0894,4.0894,4.0894,4.0894,4.0894,4.0894,4.0894,4.0894,4.0894,4.0894,0.0,0.0,0.0,0.0,0.0,0.0,0.0,0.0,0.0,0.0,4.4242,4.4768,0.0,0.0,0.0,0.0,0.0,0.0,0.0,0.0,4.8651,4.9755,4.9942,0.0,5.0011,5.0011,5.0011,5.0011,0.0,5.0011,5.0011,5.0011,5.0011,5.0011,5.0011,5.0011,5.0011,5.0011,5.1237,5.2203,5.2203,5.3513,5.5081,5.6633,5.6943,5.7564,5.8857,5.8995,0.0,0.0,0.0,5.8995,5.8995,5.8995,5.8995,5.8995,5.8995,5.8995,5.8995,5.8995,5.8995,5.8995,5.8995,5.8995,5.8995,5.8995,0.0,0.0,0.0,0.0,5.8995,5.8995,5.8995,5.8995,5.8995,5.8995,5.8995,5.8995,5.8995,5.8995,0.0,0.0,0.0,0.0,0.0,0.0,0.0,0.0,0.0,0.0,0.0,4.0894,4.0894,4.0894,0.0,0.0,0.0,0.0,0.0,0.0,0.0,0.0,0.0,4.0894,4.0894,4.0894,4.0894,4.0894,4.0894,4.0894,4.0894,4.0894,4.0894,4.0894,4.0894,4.0894,0.0,0.0,0.0,0.0,4.0894,0.0,0.0,0.0,0.0,0.0,4.4678,4.5065,0.0,4.5397,4.5397,4.5397,0.0,0.0,0.0,0.0,4.8789,5.0011,5.0011,5.0011,5.0011,5.0011,5.0011,5.0011,5.0011,5.0011,5.0011,5.0011,5.0011,5.0011,5.0011,5.0011,5.0114,5.0444,5.1444,5.2444,5.3168,5.4272,5.5444,5.6667,5.7116,5.7771,0.0,0.0,0.0,0.0,0.0,5.8995,5.8995,5.8995,5.8995,5.8995,5.8995,5.8995,5.8995,5.8995,5.8995,5.8995,5.8995,5.8995,5.8995,5.8995,5.8995,0.0,0.0,0.0,5.8995,5.8995,5.8995,5.8995,5.8995,5.8995,5.8995,5.8995,5.8995,5.8995,0.0,0.0,0.0,0.0,0.0,0.0,0.0,0.0,0.0,0.0,0.0,0.0,0.0,0.0,0.0,0.0,0.0,0.0,0.0,0.0,0.0,0.0,0.0,4.0894,4.0894,4.0894,4.0894,4.0894,4.0894,4.0894,4.0894,4.0894,4.0894,4.0894,4.0894,4.0894,0.0,0.0,0.0,0.0,4.1021,0.0,0.0,0.0,0.0,0.0,0.0,0.0,0.0,4.5397,4.5397,4.5432,4.5535,0.0,0.0,0.0,0.0,0.0,5.0011,5.0011,5.0011,5.0011,5.0011,5.0011,5.0011,5.0011,5.0011,5.0011,5.0011,5.0011,5.0011,5.0011,5.0252,5.0962,5.1824,5.2892,5.4306,5.503,5.5754,5.6702,5.7357,0.0,0.0,0.0,0.0,0.0,0.0,5.8995,5.8995,5.8995,5.8995,5.8995,5.8995,5.8995,5.8995,5.8995,5.8995,5.8995,5.8995,5.8995,5.8995,5.8995,5.8995,0.0,0.0,0.0,5.8995,5.8995,5.8995,5.8995,5.8995,5.8995,5.8995,5.8995,5.8995,5.8995,0.0,0.0,0.0,0.0,0.0,0.0,0.0,0.0,0.0,0.0,0.0,0.0,0.0,0.0,0.0,0.0,0.0,0.0,0.0,0.0,0.0,4.1389,4.1071,4.0894,4.0894,4.0894,4.0894,4.0894,4.0894,4.0894,4.0894,4.0894,4.0894,4.0894,4.0894,4.0894,4.0894,0.0,0.0,0.0,0.0,0.0,0.0,0.0,0.0,0.0,0.0,0.0,0.0,4.5397,4.5397,4.55,4.6203,0.0,0.0,0.0,0.0,0.0,5.0011,5.0011,5.0011,5.0011,5.0011,5.0011,5.0011,5.0011,5.0011,5.0011,5.0011,5.0011,5.0011,5.0011,5.0252,5.0962,5.2287,5.3529,0.0,0.0,5.5203,5.6633,0.0,0.0,0.0,0.0,0.0,0.0,0.0,5.8995,5.8995,5.8995,5.8995,5.8995,5.8995,5.8995,5.8995,5.8995,5.8995,5.8995,5.8995,5.8995,5.8995,5.8995,5.8995,0.0,0.0,5.8995,5.8995,5.8995,5.8995,5.8995,5.8995,5.8995,5.8995,5.8995,5.8995,5.8995,0.0,0.0,0.0,0.0,0.0,0.0,0.0,0.0,0.0,0.0,0.0,0.0,0.0,0.0,0.0,0.0,0.0,0.0,0.0,0.0,0.0,4.1186,4.1012,4.0894,4.0894,4.0894,4.0894,4.0894,4.0894,4.0894,4.0894,4.0894,4.0894,4.0894,4.0894,4.0894,4.0929,4.1343,0.0,0.0,0.0,0.0,0.0,0.0,0.0,0.0,0.0,0.0,0.0,0.0,4.5397,4.5535,4.6341,0.0,0.0,0.0,0.0,0.0,5.0011,5.0011,5.0011,5.0011,5.0011,5.0011,5.0011,5.0011,5.0011,5.0011,5.0011,5.0011,5.0011,5.0011,5.0375,5.1513,5.2996,5.4099,5.446,5.4823,5.5513,0.0,0.0,0.0,0.0,0.0,0.0,0.0,0.0,0.0,5.8995,5.8995,5.8995,5.8995,5.8995,5.8995,5.8995,5.8995,5.8995,5.8995,5.8995,5.8995,5.8995,5.8995,5.8995,5.8995,0.0,5.8995,5.8995,5.8995,5.8995,5.8995,5.8995,5.8995,5.8995,5.8995,5.8995,5.8995,0.0,0.0,0.0,0.0,0.0,0.0,0.0,0.0,0.0,0.0,0.0,0.0,0.0,0.0,0.0,0.0,0.0,0.0,0.0,0.0,4.1243,4.107,4.0953,4.0894,4.0894,4.0894,4.0894,4.0894,4.0894,4.0894,4.0894,4.0894,4.0894,4.0929,4.109,4.117,4.1193,4.1952,4.2263,0.0,0.0,0.0,0.0,0.0,0.0,0.0,0.0,0.0,0.0,0.0,0.0,0.0,0.0,0.0,0.0,4.8858,4.9513,5.0011,5.0011,5.0011,5.0011,5.0011,5.0011,5.0011,5.0011,5.0011,5.0011,5.0011,5.0011,5.0011,5.0011,5.0287,5.0927,5.2272,5.3616,5.4478,5.4478,5.4996,5.5685,5.6667,0.0,0.0,0.0,0.0,0.0,0.0,0.0,0.0,5.8995,5.8995,5.8995,5.8995,5.8995,5.8995,5.8995,5.8995,5.8995,5.8995,5.8995,5.8995,5.8995,5.8995,5.8995,5.8995,5.8995,5.8995,5.8995,5.8995,5.8995,5.8995,5.8995,5.8995,5.8995,5.8995,5.8995,5.8995,0.0,0.0,0.0,0.0,0.0,0.0,0.0,0.0,0.0,0.0,0.0,0.0,0.0,0.0,0.0,0.0,0.0,0.0,0.0,0.0,4.1082,4.1445,4.1082,4.0894,4.0894,4.0894,4.0894,4.0894,4.0894,4.0894,4.0894,4.0894,4.0894,4.0917,4.1607,4.1918,4.1952,4.2758,4.3103,4.3172,0.0,0.0,0.0,0.0,0.0,0.0,0.0,0.0,0.0,0.0,0.0,0.0,0.0,0.0,4.8893,4.9686,4.9927,5.0011,5.0011,5.0011,5.0011,5.0011,5.0011,5.0011,5.0011,5.0011,5.0011,5.0011,5.0011,5.0011,5.0011,5.1134,5.2306,5.3184,5.3977,5.4478,5.4478,0.0,5.515,0.0,0.0,0.0,0.0,0.0,0.0,0.0,0.0,0.0,5.8995,5.8995,5.8995,5.8995,5.8995,5.8995,5.8995,5.8995,5.8995,5.8995,5.8995,5.8995,5.8995,5.8995,5.8995,5.8995,5.8995,5.8995,5.8995,5.8995,5.8995,5.8995,5.8995,5.8995,5.8995,5.8995,5.8995,5.8995,0.0,0.0,0.0,0.0,0.0,0.0,0.0,0.0,0.0,0.0,0.0,0.0,0.0,0.0,0.0,0.0,0.0,0.0,0.0,4.1742,4.1357,4.1267,4.1266,4.1254,4.1254,4.1047,4.0894,4.0894,4.0894,4.0894,4.0894,4.0894,4.1136,4.1607,4.1883,4.2263,4.2792,4.3552,4.3897,4.3966,4.4699,0.0,0.0,0.0,0.0,0.0,0.0,0.0,0.0,0.0,4.5914,4.672,4.7479,4.8203,4.8962,4.9755,5.0011,5.0011,5.0011,5.0011,5.0011,5.0011,5.0011,5.0011,5.0011,5.0011,5.0011,5.0011,5.0011,5.0134,5.0582,5.1513,5.2444,5.3287,5.4011,5.4478,5.4478,5.4478,0.0,0.0,0.0,0.0,0.0,0.0,0.0,0.0,0.0,0.0,5.8995,5.8995,5.8995,5.8995,5.8995,5.8995,5.8995,5.8995,5.8995,5.8995,5.8995,5.8995,5.8995,5.8995,5.8995,5.8995,5.8995,5.8995,5.8995,5.8995,5.8995,5.8995,5.8995,5.8995,5.8995,5.8995,5.8995,5.8995,0.0,0.0,0.0,0.0,0.0,0.0,0.0,0.0,0.0,0.0,0.0,0.0,0.0,0.0,0.0,0.0,0.0,0.0,4.2348,4.1774,4.1458,4.1459,4.1368,4.1507,4.1863,4.1476,4.1207,4.1082,4.1207,4.1228,4.1228,4.1516,4.1895,4.2378,4.2608,4.3034,4.3586,4.4333,4.4643,4.4699,4.5203,4.5397,0.0,0.0,0.0,0.0,0.0,0.0,0.0,0.0,4.6307,4.7065,4.7824,4.8582,4.9272,4.9824,5.0011,5.0011,5.0011,5.0011,5.0011,5.0011,5.0011,5.0011,5.0011,5.0011,5.0011,5.0011,5.0183,5.0548,5.1306,5.2065,5.2823,0.0,5.4184,5.4478,5.4478,5.4478,0.0,0.0,0.0,0.0,0.0,0.0,0.0,0.0,0.0,0.0,0.0,5.8995,5.8995,5.8995,5.8995,5.8995,5.8995,5.8995,5.8995,5.8995,5.8995,5.8995,5.8995,5.8995,5.8995,5.8995,5.8995,5.8995,5.8995,5.8995,5.8995,5.8995,5.8995,5.8995,5.8995,5.8995,5.8995,5.8995,0.0,0.0,0.0,0.0,0.0,0.0,0.0,0.0,0.0,0.0,0.0,0.0,0.0,0.0,0.0,0.0,0.0,0.0,4.2185,4.1402,4.1335,4.2175,4.1379,4.1499,4.2682,4.2274,4.1846,4.1512,4.1834,4.2021,4.2021,4.2827,4.3207,4.3241,4.3966,4.4311,4.438,4.51,4.5397,4.5397,4.5397,4.5397,4.5397,0.0,0.0,0.0,0.0,0.0,0.0,0.0,4.71,4.7858,4.8582,4.9341,5.0011,5.0011,5.0011,5.0011,5.0011,5.0011,5.0011,5.0011,5.0011,5.0011,5.0011,5.0011,5.0011,5.0011,5.0582,5.1341,5.2065,5.2858,5.3632,5.4391,5.4478,5.4478,5.4478,0.0,0.0,0.0,0.0,0.0,0.0,0.0,0.0,0.0,0.0,0.0,0.0,5.8995,5.8995,5.8995,5.8995,5.8995,5.8995,5.8995,5.8995,5.8995,5.8995,5.8995,5.8995,5.8995,5.8995,5.8995,5.8995,5.8995,5.8995,5.8995,5.8995,5.8995,5.8995,5.8995,5.8995,5.8995,5.8995,5.8995,0.0,0.0,0.0,0.0,0.0,0.0,0.0,0.0,0.0,0.0,0.0,0.0,0.0,0.0,0.0,0.0,0.0,0.0,4.4463,4.3642,4.3276,4.3545,4.3161,4.3104,4.3489,4.336,4.3089,4.2689,4.2797,4.2827,4.2861,4.3069,4.3483,4.3966,4.4207,4.4574,4.51,4.5294,4.5397,4.5397,4.5397,4.5397,4.5397,0.0,0.0,0.0,0.0,0.0,0.0,0.0,0.0,0.0,4.872,4.9341,5.0011,5.0011,5.0011,5.0011,5.0011,5.0011,5.0011,5.0011,5.0011,5.0011,5.0011,5.0011,5.0011,5.0011,5.0582,5.1341,5.2065,5.2858,5.3632,5.4391,5.4478,5.4478,0.0,0.0,0.0,0.0,0.0,0.0,0.0,0.0,0.0,0.0,0.0,0.0,0.0,5.8995,5.8995,5.8995,5.8995,5.8995,5.8995,5.8995,5.8995,5.8995,5.8995,5.8995,5.8995,5.8995,5.8995,5.8995,5.8995,5.8995,5.8995,5.8995,5.8995,5.8995,5.8995,5.8995,5.8995,5.8995,5.8995,5.8995,0.0,0.0,0.0,0.0,0.0,0.0,0.0,0.0,0.0,0.0,0.0,0.0,0.0,0.0,0.0,0.0,0.0,0.0,0.0,4.444,4.4082,4.4251,4.3793,4.3706,4.3972,4.454,4.4582,4.4078,4.3793,4.3655,4.3655,4.3953,4.432,4.4734,4.4734,4.4962,4.5397,4.5397,4.5397,4.5397,4.5397,4.5397,4.5397,0.0,0.0,0.0,0.0,0.0,0.0,0.0,0.0,0.0,4.9169,4.9617,5.0011,5.0011,5.0011,5.0011,5.0011,5.0011,5.0011,5.0011,5.0011,5.0011,5.0011,5.0011,5.0011,5.0011,5.0824,5.1686,5.2134,5.3099,0.0,5.441,5.4478,5.4478,0.0,0.0,0.0,0.0,0.0,0.0,0.0,0.0,0.0,0.0,0.0,0.0,0.0,5.8995,5.8995,5.8995,5.8995,5.8995,5.8995,5.8995,5.8995,5.8995,5.8995,5.8995,5.8995,5.8995,5.8995,5.8995,5.8995,5.8995,5.8995,5.8995,5.8995,5.8995,5.8995,5.8995,5.8995,5.8995,5.8995,5.8995,0.0,0.0,0.0,0.0,0.0,0.0,0.0,0.0,0.0,0.0,0.0,0.0,0.0,0.0,0.0,0.0,0.0,0.0,0.0,0.0,4.4271,4.4643,4.386,4.3737,4.4393,4.5658,4.6043,4.5423,4.476,4.4414,4.4402,4.51,4.5397,4.5397,4.5397,4.5397,4.5397,4.5397,4.5397,4.5397,4.5397,4.5432,4.55,4.55,0.0,0.0,0.0,0.0,0.0,0.0,0.0,0.0,4.9769,5.0011,5.0011,5.0011,5.0011,5.0011,5.0011,5.0011,5.0011,5.0011,5.0011,5.0011,5.0011,5.0011,5.0011,5.0011,5.1168,5.2203,5.2203,5.3444,5.4478,5.4478,5.4478,0.0,0.0,0.0,0.0,0.0,0.0,0.0,0.0,0.0,0.0,0.0,0.0,0.0,0.0,5.8995,5.8995,5.8995,5.8995,5.8995,5.8995,5.8995,5.8995,0.0,5.8995,5.8995,5.8995,5.8995,5.8995,5.8995,5.8995,5.8995,5.8995,5.8995,5.8995,5.8995,5.8995,5.8995,5.8995,5.8995,5.8995,5.8995,0.0,0.0,0.0,0.0,0.0,0.0,0.0,0.0,0.0,0.0,0.0,0.0,0.0,0.0,0.0,0.0,0.0,0.0,0.0,0.0,4.5737,4.5822,4.5354,4.5152,4.5338,4.5721,4.5825,4.5567,4.5394,4.5273,4.5169,4.5328,4.5397,4.5397,4.5397,4.5397,4.5397,4.5397,4.5397,4.5397,4.5397,4.5776,4.6341,4.6341,4.6824,0.0,0.0,0.0,0.0,0.0,0.0,0.0,4.9942,5.0011,5.0011,5.0011,5.0011,5.0011,5.0011,5.0011,5.0011,5.0011,5.0011,5.0011,5.0011,5.0011,5.0011,5.0011,5.1168,5.2203,5.2203,5.3444,5.4478,5.4478,5.4478,0.0,0.0,0.0,0.0,0.0,0.0,0.0,0.0,0.0,0.0,0.0,0.0,0.0,5.8995,5.8995,5.8995,5.8995,5.8995,5.8995,5.8995,5.8995,5.8995,0.0,5.8995,5.8995,5.8995,5.8995,5.8995,5.8995,5.8995,5.8995,5.8995,5.8995,5.8995,5.8995,5.8995,5.8995,5.8995,5.8995,5.8995,5.8995,0.0,0.0,0.0,0.0,0.0,0.0,0.0,0.0,0.0,0.0,0.0,0.0,0.0,0.0,0.0,0.0,0.0,0.0,0.0,0.0,4.6351,4.593,4.6018,4.5955,4.571,4.6005,4.598,4.5607,4.5607,4.5528,4.5397,4.5397,4.5397,4.5397,4.5397,4.5397,4.5397,4.5397,4.5604,4.5962,4.5962,4.6445,4.7134,4.7134,4.7582,4.8238,4.8238,0.0,0.0,0.0,0.0,0.0,0.0,0.0,5.0011,5.0011,5.0011,5.0011,5.0011,5.0011,5.0011,5.0011,5.0011,5.0011,5.0011,5.0011,5.0011,5.0011,5.1168,5.2203,5.2203,5.3444,5.4478,5.4478,0.0,0.0,0.0,0.0,0.0,0.0,0.0,0.0,0.0,0.0,0.0,0.0,0.0,5.8995,5.8995,5.8995,5.8995,5.8995,5.8995,5.8995,5.8995,5.8995,5.8995,5.8995,5.8995,5.8995,5.8995,5.8995,5.8995,5.8995,5.8995,5.8995,5.8995,5.8995,5.8995,5.8995,5.8995,5.8995,5.8995,5.8995,5.8995,5.8995,0.0,0.0,0.0,0.0,0.0,0.0,0.0,0.0,0.0,0.0,0.0,0.0,0.0,0.0,0.0,0.0,0.0,0.0,0.0,0.0,0.0,4.5684,4.6191,4.6277,4.5825,4.6253,4.6204,4.5607,4.5607,4.5528,4.5397,4.5397,4.5397,4.5397,4.5535,4.5604,4.5604,4.5742,4.6169,4.6789,4.6789,4.7238,4.7893,4.7893,4.8341,4.8996,4.8996,4.9444,5.0011,5.0011,0.0,0.0,0.0,0.0,5.0011,5.0011,5.0011,5.0011,5.0011,5.0011,5.0011,5.0011,5.0011,5.0011,5.0011,5.0011,5.0011,5.0011,5.1168,5.2203,5.2203,5.3444,5.4478,5.4478,0.0,0.0,0.0,0.0,0.0,0.0,0.0,0.0,0.0,0.0,0.0,0.0,0.0,5.8995,5.8995,5.8995,5.8995,5.8995,5.8995,5.8995,5.8995,5.8995,5.8995,5.8995,5.8995,5.8995,5.8995,5.8995,5.8995,5.8995,5.8995,5.8995,5.8995,5.8995,5.8995,5.8995,5.8995,5.8995,5.8995,5.8995,5.8995,5.8995,0.0,0.0,0.0,0.0,0.0,0.0,0.0,0.0,0.0,0.0,4.7914,0.0,0.0,0.0,0.0,0.0,0.0,0.0,0.0,0.0,0.0,4.5787,4.5955,4.5968,4.5812,4.5968,4.5905,4.5607,4.5607,4.5528,4.5397,4.5397,4.5397,4.5432,4.6134,4.6445,4.6479,4.7134,4.7445,4.7548,4.7548,4.7996,4.8637,4.8637,4.9134,4.9824,4.9824,4.9907,5.0011,5.0011,5.0011,0.0,0.0,0.0,5.0011,5.0011,5.0011,5.0011,5.0011,5.0011,5.0011,5.0011,5.0011,5.0011,5.0011,5.0011,5.0011,5.0011,5.1168,5.2203,5.2203,5.3444,5.4478,0.0,0.0,0.0,0.0,0.0,0.0,0.0,0.0,0.0,0.0,0.0,0.0,0.0,5.8995,5.8995,5.8995,5.8995,5.8995,5.8995,5.8995,5.8995,5.8995,5.8995,5.8995,5.8995,5.8995,5.8995,5.8995,5.8995,5.8995,5.8995,5.8995,5.8995,5.8995,5.8995,5.8995,5.8995,5.8995,5.8995,5.8995,5.8995,5.8995,5.8995,0.0,0.0,0.0,0.0,0.0,0.0,0.0,0.0,0.0,0.0,0.0,4.7705,0.0,0.0,0.0,0.0,0.0,0.0,0.0,0.0,0.0,4.6228,4.6005,4.6123,4.6555,4.6783,4.6943,4.6999,4.7212,4.7147,4.6786,4.6786,4.6525,4.61,4.6858,4.7203,4.7238,4.7548,4.7927,4.8341,4.8341,4.8789,4.9479,4.9479,4.9686,5.0011,5.0011,5.0011,5.0011,5.0011,5.0011,5.0011,5.0011,0.0,0.0,0.0,5.0011,5.0011,5.0011,5.0011,5.0011,5.0011,5.0011,5.0011,5.0011,5.0011,5.0011,5.0011,5.1168,5.2203,5.2203,5.3444,5.4478,0.0,0.0,0.0,0.0,0.0,0.0,0.0,0.0,0.0,0.0,0.0,0.0,0.0,5.8995,5.8995,5.8995,5.8995,5.8995,5.8995,5.8995,5.8995,5.8995,5.8995,5.8995,5.8995,5.8995,5.8995,5.8995,5.8995,5.8995,5.8995,5.8995,5.8995,5.8995,5.8995,5.8995,5.8995,5.8995,5.9288,5.9668,5.9668,5.9944,6.0289,0.0,0.0,0.0,0.0,0.0,0.0,0.0,0.0,0.0,0.0,0.0,0.0,0.0,0.0,0.0,0.0,0.0,0.0,0.0,0.0,0.0,4.6973,4.6587,4.6751,4.7563,4.7691,4.7898,4.8238,4.846,4.833,4.7898,4.8147,4.7844,4.7169,4.7796,4.8066,4.8066,4.8273,4.8625,4.91,4.91,4.9444,5.0011,5.0011,5.0011,5.0011,5.0011,5.0011,5.0011,5.0011,5.0011,5.0011,5.0011,5.0011,0.0,0.0,0.0,5.0011,5.0011,5.0011,5.0011,5.0011,5.0011,5.0011,5.0011,5.0011,5.0011,5.0011,5.103,5.1996,5.2168,5.3444,5.4478,0.0,0.0,0.0,0.0,0.0,0.0,0.0,0.0,0.0,0.0,0.0,0.0,0.0,5.8892,5.8995,5.8995,5.8995,5.8995,5.8995,5.8995,5.8995,5.8995,5.8995,5.8995,5.8995,5.8995,5.8995,5.8995,5.8995,5.8995,5.8995,5.8995,5.8995,5.903,5.9202,5.9323,5.9323,5.9513,5.9944,6.0461,6.0461,6.084,6.1289,0.0,0.0,0.0,0.0,0.0,0.0,0.0,0.0,0.0,0.0,0.0,0.0,0.0,0.0,4.7468,4.7444,0.0,0.0,0.0,0.0,0.0,4.8009,4.8004,0.0,4.8594,4.8269,4.8269,4.8668,4.8304,4.806,4.7898,4.8798,4.9014,4.8686,4.8924,4.9042,4.9077,4.9756,5.0017,4.9942,4.9942,4.9976,5.0011,5.0011,5.0011,0.0,0.0,5.0011,5.0011,5.0011,5.0011,5.0011,5.0011,5.0011,5.0011,0.0,0.0,0.0,5.0011,5.0011,5.0011,5.0011,5.0011,5.0011,5.0011,5.0011,5.0011,5.0011,5.0617,5.1375,5.2065,5.3444,5.4478,0.0,0.0,0.0,0.0,0.0,0.0,0.0,0.0,0.0,0.0,0.0,0.0,0.0,5.8582,5.8995,5.8995,5.8995,5.8995,5.8995,5.8995,5.8995,5.8995,5.8995,5.8995,5.8995,5.8995,5.8995,5.8995,5.8995,5.8995,5.8995,5.8995,5.8995,5.9064,5.9806,6.0151,6.022,6.0909,6.122,6.1254,6.1254,6.1254,6.1289,0.0,0.0,0.0,0.0,0.0,0.0,0.0,0.0,0.0,0.0,0.0,0.0,0.0,4.8448,4.8106,4.8194,4.8229,0.0,0.0,0.0,0.0,4.8408,4.814,4.8317,4.906,4.9284,4.9547,4.992,5.0026,4.992,4.9644,4.9903,4.9959,4.9847,4.9819,4.9748,4.9683,4.9959,5.002,5.0011,5.0011,5.0011,5.0011,5.0011,0.0,0.0,0.0,0.0,5.0011,5.0011,5.0011,0.0,0.0,0.0,5.0011,5.0011,5.0011,5.0011,5.0011,5.0011,5.0011,5.0011,5.0011,5.0011,5.0011,5.0011,5.0011,5.0011,5.0582,5.1341,5.2065,5.3065,5.3942,0.0,0.0,0.0,0.0,0.0,0.0,0.0,0.0,0.0,0.0,0.0,0.0,0.0,0.0,5.8995,5.8995,5.8995,5.8995,5.8995,5.8995,5.8995,5.8995,5.8995,5.8995,5.8995,5.8995,5.8995,5.8995,5.8995,5.8995,5.903,5.9564,5.9771,5.9806,6.0082,6.0461,6.0944,6.1185,6.1634,6.2048,6.2048,6.2358,6.2772,0.0,0.0,0.0,0.0,0.0,0.0,0.0,0.0,0.0,0.0,0.0,0.0,0.0,0.0,4.9071,4.9197,4.8961,4.8893,4.9126,4.8839,4.8798,4.9139,4.8893,4.911,4.9932,4.9925,5.0211,5.0803,5.0709,5.0651,5.0516,5.0495,5.0411,5.0313,5.0271,5.0206,5.0063,5.0063,5.0054,5.0011,5.0011,5.0011,5.0011,5.0011,5.004,0.0,0.0,0.0,0.0,0.0,0.0,0.0,0.0,0.0,0.0,0.0,5.0011,5.0011,5.0011,5.0011,5.0011,5.0011,5.0011,5.0011,5.0011,5.0011,5.0011,5.0011,5.039,5.0962,5.1686,5.2479,5.3322,0.0,0.0,0.0,0.0,0.0,0.0,0.0,0.0,0.0,0.0,0.0,0.0,0.0,0.0,0.0,5.8995,5.8995,5.8995,5.8995,5.8995,5.8995,5.8995,5.8995,5.8995,5.8995,5.8995,5.8995,5.8995,5.8995,5.915,5.9426,5.9978,6.0185,6.022,6.0737,6.1254,6.1737,6.1979,6.2393,6.2859,6.2859,6.3204,6.36,0.0,0.0,0.0,0.0,0.0,0.0,0.0,0.0,0.0,4.9769,0.0,0.0,0.0,0.0,0.0,5.037,5.0257,5.0186,5.0186,5.0186,5.022,5.022,0.0,0.0,5.1153,5.0101,5.0101,5.1192,5.0211,4.9967,5.0425,5.053,5.0467,5.02,5.0327,5.0313,5.0186,5.0186,5.012,5.0011,5.0011,5.0011,5.0011,5.0011,5.0077,0.0,5.0068,5.0077,0.0,5.002,0.0,0.0,0.0,0.0,0.0,0.0,0.0,5.0011,0.0,0.0,0.0,5.0011,5.0011,5.0011,5.0011,5.0011,5.0011,5.0011,5.0011,5.0252,5.0962,5.1686,5.2686,0.0,0.0,0.0,0.0,0.0,0.0,0.0,0.0,0.0,0.0,0.0,0.0,0.0,5.746,5.8219,5.8926,5.8995,5.8995,5.8995,5.8995,5.8995,5.8995,5.8995,5.8995,5.8995,5.8995,5.8995,5.8995,5.8995,5.9461,6.0185,6.022,6.0254,6.0392,6.1893,6.2514,6.2618,6.3324,6.36,6.36,6.36,6.36,6.36,0.0,0.0,0.0,0.0,0.0,0.0,0.0,0.0,0.0,0.0,0.0,0.0,5.0373,5.0192,5.0077,5.012,5.0178,5.0186,5.0186,5.0271,5.0327,5.0327,5.0481,5.0612,5.0762,5.0608,5.0828,5.1475,5.0739,5.0619,5.1101,5.0653,5.0411,5.0327,5.0271,5.0214,5.0186,5.0186,5.012,5.0011,5.0011,5.0011,5.0011,5.0011,5.004,0.0,0.0,5.004,5.0068,0.0,5.0011,5.0011,0.0,0.0,0.0,0.0,0.0,0.0,5.0011,0.0,0.0,0.0,0.0,0.0,0.0,0.0,5.0011,5.0011,5.0011,5.0252,5.0962,5.1272,5.1892,0.0,0.0,0.0,0.0,0.0,0.0,0.0,0.0,0.0,0.0,0.0,0.0,0.0,5.7133,5.8012,5.8185,5.872,5.8995,5.8995,5.8995,5.8995,5.8995,5.8995,5.8995,5.8995,5.8995,5.8995,5.8995,5.8995,5.9461,6.022,6.0771,6.1323,6.1893,6.2342,6.2825,6.3324,6.3531,6.36,6.36,6.36,6.36,6.36,0.0,0.0,0.0,0.0,0.0,0.0,0.0,0.0,0.0,0.0,0.0,0.0,5.1149,5.062,5.0263,5.0263,5.0257,5.0271,5.0271,5.0411,5.0495,5.0495,5.0633,5.0729,5.0729,5.053,5.0669,5.1166,5.0473,5.0446,5.1048,5.0598,5.0383,5.0383,5.0313,5.0235,5.012,5.0249,5.0178,5.0011,5.0011,5.0011,5.0011,5.0011,5.002,0.0,0.0,0.0,5.0149,5.004,5.0011,0.0,0.0,0.0,0.0,0.0,0.0,0.0,0.0,0.0,0.0,0.0,0.0,0.0,5.0011,5.0011,5.0011,0.0,5.0011,5.0149,5.0548,5.0893,5.1375,0.0,0.0,0.0,0.0,0.0,0.0,0.0,0.0,0.0,0.0,5.4892,5.5272,5.5582,5.672,5.7702,5.8323,5.8754,5.8995,5.8995,5.8995,5.8995,5.8995,5.8995,5.8995,5.8995,5.8995,5.8995,5.8995,5.8995,5.9599,6.0668,6.1116,6.191,6.2963,6.2963,6.3186,6.36,6.36,6.36,6.36,6.36,6.36,6.36,0.0,0.0,0.0,0.0,0.0,0.0,0.0,5.1283,0.0,0.0,5.1179,5.1296,5.1398,5.0897,5.053,0.0,5.0467,5.0383,5.0383,5.0551,5.0598,5.0571,5.0743,5.0846,5.0832,5.0157,5.0096,5.0694,4.9996,4.9996,5.0653,5.0481,5.0383,5.0369,5.0369,5.0249,5.0054,5.0291,5.0235,5.0011,5.0025,5.004,5.004,5.004,5.0092,5.0206,5.0077,5.0192,5.0341,5.0092,5.004,0.0,0.0,0.0,0.0,0.0,5.004,0.0,0.0,0.0,0.0,0.0,0.0,0.0,5.0011,5.0011,5.0011,0.0,5.0011,5.0011,5.0011,5.0562,5.0996,0.0,0.0,0.0,0.0,0.0,0.0,0.0,0.0,0.0,5.4478,5.4478,5.4754,5.5444,5.6322,5.7426,5.8788,5.8961,5.8995,5.8995,5.8995,5.8995,5.8995,5.8995,5.8995,5.8995,5.8995,5.8995,5.8995,5.8995,5.9823,6.1289,6.1289,6.2186,6.36,6.36,6.36,6.36,6.36,6.36,6.36,6.36,6.36,6.36,0.0,0.0,0.0,0.0,0.0,0.0,0.0,5.1437,5.1127,5.0598,5.0383,5.0291,5.032,5.0192,5.0163,0.0,5.0341,5.0383,5.0383,5.0696,5.0737,5.0453,5.0592,5.062,5.0481,5.0431,5.0681,5.1244,5.0832,5.0778,5.1083,5.0598,5.0327,5.0228,5.0228,5.022,5.0178,5.0235,5.0149,5.0011,5.012,5.0163,5.0163,5.0163,5.0192,5.02,5.0271,5.0376,5.0369,5.0235,5.0249,5.0285,0.0,0.0,0.0,5.0206,0.0,0.0,0.0,0.0,0.0,0.0,0.0,0.0,5.0011,5.0011,5.0011,0.0,5.0011,5.0011,5.0011,5.0114,5.0424,0.0,0.0,0.0,0.0,0.0,0.0,0.0,0.0,0.0,5.4478,5.4478,5.4547,5.4685,5.6012,5.7185,5.8081,5.8702,5.8995,5.8995,5.8995,5.8995,5.8995,5.8995,5.8995,5.8995,5.8995,5.8995,5.8995,5.8995,5.9823,6.1289,6.1289,6.2186,6.36,6.36,6.36,6.36,6.36,6.36,6.36,6.36,6.36,6.36,0.0,0.0,0.0,0.0,0.0,0.0,0.0,0.0,5.0884,5.0803,5.0523,5.0285,5.0285,5.0192,5.0135,5.0171,0.0,0.0,0.0,5.0682,5.0792,5.0523,5.0661,5.0702,5.0655,5.0737,5.0851,5.0995,5.077,5.0688,5.0789,5.0523,5.0313,5.022,5.0341,5.0285,5.0106,5.0263,5.0277,5.0192,5.012,5.0092,5.0092,5.0092,5.0092,5.012,5.0263,5.0327,5.0397,5.0411,5.0397,0.0,5.0313,5.0341,5.0369,0.0,5.0285,5.0257,0.0,0.0,0.0,5.0025,0.0,0.0,0.0,5.0034,5.0077,5.0025,5.0011,5.0011,5.0011,5.0011,5.01,5.0479,0.0,0.0,0.0,0.0,0.0,0.0,0.0,0.0,5.4478,5.4478,5.4651,5.503,5.615,5.7116,5.7874,5.8582,5.8995,5.8995,5.8995,5.8995,5.8995,5.8995,5.8995,5.8995,5.8995,5.8995,5.8995,5.8995,5.9823,6.1289,6.1289,6.2186,6.36,6.36,6.36,6.36,6.36,6.36,6.36,6.36,6.36,6.36,5.1061,5.0585,0.0,0.0,0.0,0.0,0.0,0.0,5.0509,5.0924,5.0681,5.046,5.046,5.0285,5.0178,5.022,5.0285,0.0,0.0,5.0599,5.0737,5.0516,5.0696,5.0737,5.0745,5.0737,5.0696,5.0516,5.0467,5.0425,5.0383,5.0425,5.0341,5.02,5.0467,5.0369,5.0034,5.0306,5.0369,5.0327,5.012,5.0063,5.0106,5.0112,5.0097,5.0077,5.0206,5.0313,5.0453,5.0516,5.0537,5.0502,5.0439,5.0453,0.0,0.0,0.0,0.0,0.0,0.0,0.0,0.0,0.0,5.022,0.0,0.0,0.0,5.0048,5.0025,0.0,0.0,0.0,0.0,0.0,0.0,0.0,0.0,0.0,0.0,0.0,0.0,0.0,0.0,5.4478,5.477,5.534,5.6099,5.6909,5.7667,5.8375,5.8857,5.8995,5.8995,5.8995,5.8995,5.8995,5.8995,5.8995,5.8995,5.8995,5.8995,5.8995,5.9823,6.1289,6.1289,6.2186,6.36,6.36,6.36,6.36,6.36,6.36,6.36,6.36,6.36,6.36,5.1666,5.1388,5.107,0.0,0.0,0.0,0.0,0.0,5.022,5.0135,5.0077,5.0083,5.0083,5.0054,5.0063,5.0206,5.02,5.0257,5.0355,5.0411,5.0383,5.0242,5.0257,5.0235,5.0112,5.022,5.0257,5.0242,5.0481,5.0537,5.0397,5.0537,5.0453,5.022,5.0355,5.0327,5.0206,5.0327,5.0313,5.02,5.0206,5.0313,0.0,5.0397,5.0341,5.0376,5.0355,5.0467,5.0543,0.0,5.0627,5.0805,0.0,5.0688,5.0805,5.0647,0.0,0.0,0.0,0.0,0.0,0.0,5.0355,0.0,0.0,0.0,5.022,5.0192,0.0,0.0,0.0,0.0,0.0,0.0,0.0,0.0,0.0,0.0,0.0,0.0,0.0,0.0,0.0,5.4478,5.4513,5.4632,5.5306,5.6065,5.6874,5.7633,5.8306,5.8961,5.8995,5.8995,5.8995,5.8995,5.8995,5.8995,5.8995,5.8995,5.8995,5.8995,5.9823,6.1289,6.1289,6.2186,6.36,6.36,6.36,6.36,6.36,6.36,6.36,6.36,6.36,6.36,5.1131,5.0835,5.0509,0.0,0.0,0.0,0.0,0.0,5.022,5.0235,5.0163,5.012,5.012,5.0068,5.004,5.0077,5.0163,5.0206,5.0163,5.0299,0.0,5.0313,5.0397,5.0453,5.0502,5.0572,5.0537,5.0439,5.053,5.0474,5.0271,5.0425,5.0383,5.022,5.0327,5.0313,5.0186,5.0242,5.052,5.083,5.083,5.1237,0.0,5.1046,5.12,5.1755,5.1806,5.1891,5.1934,0.0,5.1934,0.0,0.0,0.0,0.0,5.091,0.0,0.0,0.0,0.0,0.0,0.0,0.0,0.0,5.0411,0.0,5.0397,0.0,0.0,0.0,0.0,0.0,0.0,0.0,4.9789,0.0,0.0,0.0,0.0,0.0,0.0,0.0,0.0,0.0,0.0,0.0,5.5168,5.5961,5.6771,5.7495,5.8254,5.8961,5.8995,5.8995,5.8995,5.8995,5.8995,5.8995,5.8995,5.8995,5.8995,5.8995,5.9823,6.1289,6.1289,6.2186,6.36,6.36,6.36,6.36,6.36,6.36,6.36,6.36,6.36,6.36,5.0509,5.0277,5.0011,5.0011,5.0011,0.0,0.0,5.0077,5.0261,5.0569,5.0518,5.053,5.0737,5.0655,5.0582,5.0582,5.0526,5.0432,5.0345,5.0353,5.0341,5.0341,5.0439,5.0537,5.0641,5.0641,5.0613,5.0474,5.0516,5.0446,5.0313,5.0488,5.0474,5.0313,5.0369,5.0466,5.054,5.0512,5.0948,5.1627,5.1627,5.2156,5.2775,5.1865,5.2008,5.2671,5.2811,5.2884,5.2912,5.2912,5.2956,0.0,5.234,0.0,0.0,0.0,0.0,0.0,5.1032,0.0,0.0,0.0,0.0,0.0,0.0,0.0,0.0,0.0,0.0,0.0,0.0,0.0,0.0,0.0,0.0,4.9942,0.0,0.0,0.0,0.0,0.0,0.0,0.0,0.0,0.0,5.4478,5.4996,5.572,5.6736,5.7322,5.8047,5.8961,5.8995,5.8995,5.8995,5.8995,5.8995,5.8995,5.8995,5.8995,5.8995,5.9254,6.0047,6.1323,6.153,6.2393,6.36,6.36,6.36,6.36,6.36,6.36,6.36,6.36,6.36,6.36,5.0025,5.0025,5.0011,5.0011,5.0011,5.0011,5.0011,5.0011,5.0252,5.0976,5.108,5.1356,5.2065,5.2134,5.2134,5.2134,5.1479,5.1104,5.1266,5.0602,5.022,5.022,0.0,5.0163,5.004,5.004,5.0077,5.02,5.0327,5.0467,5.0585,5.0805,5.0792,5.0571,5.0453,5.0801,5.1433,5.1304,5.1745,5.2473,5.2473,5.2818,5.3333,0.0,5.2577,5.2538,5.2665,0.0,0.0,5.2912,5.3027,0.0,0.0,0.0,0.0,0.0,0.0,0.0,0.0,0.0,0.0,5.1084,0.0,0.0,0.0,0.0,5.0598,0.0,0.0,0.0,0.0,0.0,0.0,0.0,0.0,0.0,0.0,0.0,0.0,0.0,0.0,0.0,0.0,0.0,0.0,5.4478,5.4513,5.5219,5.6736,5.6805,5.7495,5.8926,5.8995,5.8995,5.8995,5.8995,5.8995,5.8995,5.8995,5.8995,5.903,5.9806,6.0565,6.1358,6.2117,6.2875,6.36,6.36,6.36,6.36,6.36,6.36,6.36,6.36,6.36,6.36,5.1444,5.1444,5.1134,5.0183,5.0011,5.0168,5.0651,5.072,5.0996,5.172,5.1824,5.1927,5.2168,5.2203,5.2203,5.2203,5.1961,5.1854,5.1899,5.1672,5.1578,5.1711,5.1711,5.1561,0.0,5.1169,5.1011,5.0668,5.071,5.0675,5.0598,5.0578,5.0788,5.1185,5.0963,5.1355,5.2151,5.1973,5.2363,5.3138,0.0,5.4033,5.4267,0.0,0.0,5.4048,5.4181,5.4196,0.0,5.415,5.4256,5.4286,5.3748,5.3711,5.3736,5.3224,5.3084,0.0,0.0,0.0,5.272,5.2327,0.0,0.0,0.0,0.0,0.0,0.0,0.0,0.0,0.0,0.0,0.0,0.0,0.0,0.0,0.0,0.0,0.0,0.0,0.0,0.0,0.0,0.0,0.0,5.4444,5.4478,5.4943,5.5927,5.6529,5.7253,5.8237,5.8754,5.8995,5.8995,5.8995,5.8995,5.8995,5.8995,5.8995,5.903,5.984,6.0599,6.1358,6.2151,6.2928,6.36,6.36,6.36,6.36,6.36,6.36,6.36,6.36,6.36,6.36,5.2203,5.2203,5.1892,5.0962,5.0789,5.0927,5.141,5.1479,5.1755,5.2513,5.2617,5.272,5.2996,5.303,5.303,5.303,5.2789,5.2617,5.2617,5.2436,5.2324,5.2369,5.2478,5.2324,0.0,0.0,0.0,5.148,5.148,5.1417,5.1339,5.1275,5.1462,5.1935,5.1745,5.2137,5.2874,5.2753,5.3126,5.3839,0.0,5.4592,0.0,0.0,5.4314,5.4888,0.0,5.493,5.4873,5.4873,5.4915,5.4887,5.4385,5.4396,5.4469,5.3979,5.3882,5.3841,5.3431,5.3462,0.0,5.3112,5.3098,0.0,5.2558,0.0,0.0,0.0,0.0,0.0,0.0,0.0,0.0,0.0,0.0,0.0,0.0,5.0011,0.0,0.0,0.0,0.0,0.0,0.0,5.3701,5.4444,5.4478,5.4823,0.0,0.0,5.715,5.7874,5.8616,5.8995,5.8995,5.8995,5.8995,5.8995,5.8995,5.8995,5.903,6.0116,6.084,6.1358,6.2427,6.317,6.36,6.36,6.36,6.36,6.36,6.36,6.36,6.36,6.36,6.36,5.2306,5.2306,5.2306,5.2306,5.2272,5.2203,5.2272,5.2272,5.2548,5.3356,5.3494,5.377,5.4478,5.4582,5.4616,5.4616,5.3977,5.3563,5.3563,5.2991,5.2591,0.0,5.2507,5.2487,5.2287,0.0,0.0,0.0,5.2523,5.2597,5.2715,5.27,5.27,5.2735,5.272,5.3063,5.3621,5.3621,5.3979,5.4478,5.4547,5.4563,5.4563,5.4598,5.4802,5.5096,5.5011,5.4976,5.4976,5.4976,5.4976,5.4992,5.4992,5.4992,5.5007,5.5007,5.5079,5.5059,5.4345,5.4253,5.4194,5.3471,0.0,0.0,0.0,0.0,5.3197,0.0,0.0,0.0,0.0,0.0,0.0,0.0,0.0,0.0,0.0,0.0,0.0,0.0,0.0,0.0,0.0,5.2892,5.3667,5.4444,5.4478,5.4789,0.0,0.0,5.7116,5.784,5.8582,5.8995,5.8995,5.8995,5.8995,5.8995,5.8995,5.8995,5.903,6.0599,6.1289,6.1392,6.291,6.36,6.36,6.36,6.36,6.36,6.36,6.36,6.36,6.36,6.36,6.36,5.3892,5.3892,5.3892,5.3892,5.2961,5.241,5.2996,5.3099,5.3356,5.4115,5.4685,5.5099,5.5306,5.5839,5.6219,5.6219,5.6046,5.5943,5.5943,0.0,0.0,5.472,5.425,5.376,5.3264,5.332,5.3177,5.2811,0.0,5.2826,5.2855,5.2621,5.283,5.337,5.3249,5.3621,5.4281,5.4281,5.4353,5.4547,5.5099,5.5421,5.5601,0.0,5.6314,5.6317,5.5082,5.462,5.462,5.462,5.4749,5.4857,5.4857,5.49,5.5007,5.5007,5.5022,5.4998,5.4809,5.486,5.4909,5.4734,5.4788,5.4735,0.0,0.0,0.0,0.0,0.0,0.0,0.0,0.0,0.0,0.0,0.0,0.0,0.0,0.0,0.0,5.0011,0.0,0.0,5.2134,5.2375,5.3065,5.441,5.4478,5.4582,0.0,0.0,0.0,5.7081,5.8323,5.8995,5.8995,5.8995,5.8995,5.8995,5.8995,5.8995,5.903,6.0599,6.1289,6.1392,6.291,6.36,6.36,6.36,6.36,6.36,6.36,6.36,6.36,6.36,6.36,6.36,5.5529,5.5529,5.5529,5.5529,5.4805,5.4237,5.4341,5.4667,5.5046,5.546,5.5874,5.6099,5.6099,5.6529,5.6805,5.6805,5.6805,5.6805,5.6805,0.0,0.0,5.6099,5.5736,5.5182,5.4482,5.456,0.0,5.3614,0.0,5.3614,5.3614,5.3433,5.3598,5.3979,5.3998,5.4178,5.4513,5.4823,5.5168,5.5529,5.5977,5.6199,0.0,5.6665,5.6871,5.6798,5.5837,5.5529,5.5495,5.5575,5.5671,5.575,5.575,5.5876,5.5916,5.5506,5.5417,5.5409,5.5111,5.5068,5.5124,5.5184,5.5309,5.5278,5.4916,5.4826,5.4671,0.0,0.0,0.0,0.0,0.0,0.0,0.0,0.0,0.0,0.0,0.0,0.0,0.0,5.1341,0.0,0.0,5.272,5.3203,5.441,5.4478,0.0,0.0,0.0,0.0,5.6805,5.8254,5.8995,5.8995,5.8995,5.8995,5.8995,5.8995,5.8995,5.903,6.0599,6.1289,6.1392,6.291,6.36,6.36,6.36,6.36,6.36,6.36,6.36,6.36,6.36,6.36,6.36,5.6805,5.6805,5.6805,5.6805,5.6874,5.6702,5.5996,5.6426,5.6805,5.6805,5.6874,5.6943,5.6943,5.7047,5.7081,5.7081,5.7081,5.7081,5.7081,5.7012,5.6943,5.6943,5.684,5.646,5.5754,5.577,5.5476,0.0,0.0,5.4836,5.4836,5.4805,5.4789,5.4805,5.4963,5.4947,5.4823,5.5478,5.6184,5.6805,5.6909,5.6943,5.6943,5.7047,5.7081,5.7081,5.7081,5.6978,5.6822,5.6934,5.6999,5.6981,5.6981,5.7145,5.7118,5.6315,5.617,5.6105,5.5479,5.5305,5.5316,5.5314,5.5309,5.5354,5.5404,5.5433,5.5369,5.5199,5.4749,5.4519,0.0,0.0,0.0,0.0,0.0,0.0,0.0,0.0,0.0,0.0,0.0,0.0,0.0,0.0,5.3701,5.4444,5.4478,0.0,0.0,0.0,0.0,5.6943,5.8271,0.0,5.8995,0.0,5.8995,5.8995,5.8995,5.9064,5.9219,6.0634,6.1358,6.153,6.2979,6.36,6.36,6.36,6.36,6.36,6.36,6.36,6.36,6.36,6.36,6.36,5.6805,5.6805,5.6805,5.6805,5.7288,5.7667,5.7529,5.7116,5.6805,5.6805,5.7322,5.7702,5.7702,5.8254,5.8616,5.8616,5.8616,0.0,0.0,0.0,0.0,5.7702,5.7116,5.6736,5.6598,5.6694,5.669,0.0,0.0,0.0,5.6568,5.6457,5.6391,5.6391,5.6424,5.6424,5.6391,5.6529,0.0,5.684,5.746,5.7702,5.7771,5.8392,5.8616,5.8616,5.8616,5.784,5.6805,5.6838,5.6902,5.6981,5.6981,5.7126,5.7286,5.7115,5.7045,5.7077,5.6906,5.6906,5.6732,5.6102,5.5928,5.5804,5.5207,5.5083,5.5068,5.5053,5.4963,5.4939,5.5119,0.0,0.0,0.0,0.0,0.0,0.0,0.0,0.0,0.0,0.0,5.3253,0.0,0.0,0.0,0.0,0.0,0.0,0.0,0.0,0.0,0.0,5.8564,0.0,0.0,0.0,5.8995,5.8995,5.8995,5.9357,6.0013,6.0909,6.1668,6.2342,6.3239,6.36,6.36,6.36,6.36,6.36,6.36,6.36,6.36,6.36,6.36,6.36,5.7943,5.8288,5.8426,5.8012,5.8909,5.953,5.915,5.9116,5.884,5.8047,5.8254,5.8478,5.8478,5.8788,5.8995,5.8995,5.8995,5.8995,5.8995,5.8651,5.8478,5.8478,5.8133,5.7771,5.7391,5.744,5.7266,5.6885,0.0,0.0,0.0,0.0,5.6805,5.6805,5.6805,5.7012,5.7357,0.0,0.0,5.7978,5.8323,5.8478,5.853,5.8857,5.8995,5.8995,5.8995,5.8547,5.7943,5.8044,5.8127,5.8193,5.8193,5.8259,5.8221,5.7758,5.7686,5.7698,5.7265,5.7225,5.7216,5.6946,5.6873,5.6803,5.6369,5.6299,5.6144,5.5668,5.5583,5.5475,5.5133,5.4815,0.0,0.0,0.0,0.0,0.0,0.0,0.0,0.0,0.0,0.0,0.0,0.0,0.0,0.0,0.0,0.0,0.0,0.0,0.0,0.0,0.0,0.0,0.0,0.0,0.0,5.8995,5.8995,5.9426,6.022,6.0978,6.1737,6.2549,6.3289,6.36,6.36,6.36,6.36,6.36,6.36,6.36,6.36,6.36,6.36,6.36,5.9478,6.0013,6.022,5.9599,6.0496,6.1116,6.053,6.0944,6.0875,5.965,5.9478,5.9478,5.9478,5.9478,5.9478,5.9478,5.9478,5.9478,5.9478,5.9478,5.9409,5.9237,5.9237,5.8892,5.8133,5.8133,5.784,0.0,0.0,0.0,0.0,0.0,0.0,0.0,0.0,0.0,0.0,0.0,5.8478,5.8995,5.8995,5.8995,5.8995,5.8995,5.8995,5.8995,5.8995,5.8995,5.903,5.9166,5.9268,5.9302,5.9302,5.9336,5.9232,5.8474,5.8351,5.8363,5.7656,5.7596,5.7741,5.773,5.7711,5.7691,5.7514,5.7444,5.7238,5.652,5.6349,5.6159,5.549,5.537,0.0,0.0,0.0,0.0,0.0,0.0,0.0,0.0,0.0,0.0,5.4478,0.0,0.0,0.0,0.0,0.0,0.0,0.0,0.0,0.0,0.0,5.8995,5.8995,0.0,5.8995,0.0,5.9168,5.9668,6.0461,6.122,6.1979,6.279,6.3342,6.36,6.36,6.36,6.36,6.36,6.36,6.36,6.36,6.36,6.36,6.36,6.1082,6.1151,6.1185,6.1116,6.122,6.1289,6.122,6.1254,6.1254,6.1116,6.1082,6.1082,6.1082,6.1082,6.1082,6.1082,6.1082,6.1082,6.1082,6.1082,6.0806,6.0116,6.0082,5.9702,5.8892,5.8892,5.8857,0.0,0.0,0.0,0.0,0.0,0.0,0.0,0.0,0.0,0.0,5.8892,5.8926,5.8995,5.8995,5.8995,5.8995,5.8995,5.8995,5.8995,5.8995,5.8995,5.8995,5.903,5.9132,5.9302,5.9302,5.9419,5.9536,5.9467,5.9467,5.9415,5.9144,5.9111,5.8954,5.8329,5.8155,5.7996,5.7444,5.7318,5.7302,5.7232,5.72,5.7089,5.6713,5.6206,5.5769,0.0,0.0,0.0,0.0,0.0,5.4478,5.4478,0.0,0.0,0.0,5.4478,0.0,0.0,0.0,0.0,0.0,0.0,0.0,5.8857,0.0,5.8995,5.8995,5.8995,0.0,5.8995,5.9737,6.0461,6.122,6.2013,6.279,6.3496,6.3565,6.36,6.36,6.36,6.36,6.36,6.36,6.36,6.36,6.36,6.36,6.36,6.1289,6.1668,0.0,0.0,0.0,0.0,0.0,6.2393,6.2668,6.2668,6.1875,6.1289,6.1289,6.1289,6.1289,6.1289,6.1289,6.1289,6.1289,6.1289,6.1185,6.0875,6.0875,6.0703,6.0392,5.9944,5.9737,0.0,0.0,0.0,0.0,0.0,0.0,0.0,0.0,5.8995,5.8995,5.8995,5.8995,5.8995,5.8995,5.9288,5.9737,5.9737,6.0013,6.0392,6.0392,6.0116,5.9737,5.9737,5.9426,5.9115,5.9115,5.92,5.9251,5.9251,5.9336,5.9403,5.9319,5.9386,5.94,5.9122,5.9053,5.8949,5.8568,5.8581,5.8525,5.7976,5.7457,5.708,5.6951,5.6741,5.6517,0.0,0.0,0.0,0.0,0.0,0.0,5.5874,0.0,5.5874,0.0,0.0,0.0,0.0,0.0,0.0,0.0,0.0,0.0,5.8961,0.0,5.8995,5.8995,5.8995,5.8995,5.8995,5.9806,6.0599,6.1323,6.2117,6.2894,6.36,6.36,6.36,6.36,6.36,6.36,6.36,6.36,6.36,6.36,6.36,6.36,6.36,6.1979,0.0,6.2634,0.0,6.2875,6.3427,6.2894,6.3255,6.36,6.36,6.2634,6.1979,6.1979,6.1979,6.1979,6.1979,6.1979,6.1979,6.1979,6.1979,6.1875,6.1668,6.1634,0.0,6.1323,6.0806,6.053,6.053,5.9944,0.0,0.0,0.0,0.0,0.0,5.9702,5.9702,5.9702,5.9702,5.9702,5.9702,5.9702,6.0013,6.053,6.053,6.084,6.1289,6.1289,6.0978,6.053,6.053,6.0151,5.9599,5.9133,5.8995,5.8995,5.8995,5.9098,5.9217,5.9217,5.9319,5.9436,5.9486,5.9486,5.947,5.9403,5.9486,5.938,5.8659,5.8055,5.7657,5.7608,5.7401,5.7229,5.7198,0.0,0.0,0.0,0.0,0.0,0.0,5.6805,5.6805,5.6805,5.6805,0.0,0.0,0.0,0.0,0.0,0.0,0.0,0.0,0.0,0.0,0.0,5.8995,5.9099,5.9357,6.0151,6.0909,6.1668,6.248,6.3101,6.36,6.36,6.36,6.36,6.36,6.36,6.36,6.36,6.36,6.36,6.36,6.36,6.36,6.3565,6.3565,6.3565,6.3565,6.3565,6.36,6.3565,6.36,6.36,6.36,6.3565,6.3565,6.3565,6.3565,6.3565,6.3565,6.3565,6.3565,6.3565,6.3565,6.3255,0.0,0.0,6.2117,6.1323,6.1289,6.1289,6.1289,0.0,0.0,6.0185,0.0,6.0565,6.1289,6.1289,6.1289,6.1289,6.1289,6.1289,6.1289,6.1289,6.1289,6.1289,6.1289,6.1289,6.1289,6.1289,6.1289,6.1289,6.1289,6.1289,6.1013,5.9478,5.8995,5.8995,5.8995,5.8995,5.9012,5.9012,5.9012,5.9047,5.9268,5.9319,5.9352,5.9571,5.9604,5.952,5.9352,5.9267,5.9217,5.8995,5.8392,5.7959,5.8142,0.0,0.0,0.0,0.0,0.0,5.6805,5.6805,5.6805,5.6805,5.6805,0.0,0.0,0.0,0.0,0.0,0.0,0.0,5.8995,5.8995,0.0,5.8995,5.8995,5.9392,6.0185,6.0944,6.1703,6.2514,6.3255,6.36,6.36,6.36,6.36,6.36,6.36,6.36,6.36,6.36,6.36,6.36,6.36,6.36,6.36,6.5171,6.5171,6.5171,6.5171,6.5171,6.5171,6.5171,6.5171,6.5171,6.5171,6.5171,6.5171,6.5171,6.422,6.36,0.0,6.36,6.36,0.0,6.36,6.3515,6.3273,6.3255,6.3117,6.2875,6.2358,6.2117,6.2117,0.0,0.0,0.0,6.0944,6.1082,6.1289,6.1289,6.1289,6.1289,6.1289,6.1289,6.1289,6.1289,6.1634,6.2117,6.2117,6.2427,6.2875,6.2875,6.253,6.2117,6.2117,6.1737,6.122,6.0737,6.0565,6.0565,6.0565,6.022,5.9806,5.9806,5.9426,5.9012,5.9064,5.9081,5.9098,5.92,5.9302,5.9403,5.947,5.9386,5.9285,5.9234,5.8908,5.8685,5.8736,5.8495,0.0,0.0,0.0,0.0,5.8306,5.8306,5.8306,0.0,5.8306,0.0,0.0,0.0,0.0,0.0,0.0,0.0,0.0,5.8995,0.0,5.8995,5.8995,5.9392,6.022,6.0944,6.1979,6.3273,6.3496,6.36,6.36,6.36,6.36,6.36,6.36,6.36,6.36,6.36,6.36,6.36,6.36,6.36,6.36,6.5895,6.5895,6.5895,6.5895,6.5895,6.5895,6.5895,6.5895,6.5895,6.5895,6.5895,6.5895,6.5895,6.5033,0.0,6.4048,6.4014,6.391,6.36,6.36,6.36,6.36,6.36,6.36,6.36,0.0,0.0,6.291,6.2393,6.2151,6.2151,6.2151,6.2151,6.2151,6.2151,6.2151,6.2151,6.2151,6.2151,6.2151,6.2151,6.2461,6.291,6.291,6.3204,6.36,6.36,6.3289,6.291,6.291,6.2565,6.2151,6.2151,6.2151,6.2048,6.1461,6.0978,6.0599,6.0599,6.0254,5.9857,5.9857,5.9668,5.9375,5.9064,5.9081,5.9234,5.9352,5.9285,5.92,5.92,5.9081,5.903,5.9098,5.9047,5.903,5.9098,0.0,0.0,0.0,0.0,0.0,0.0,5.8995,0.0,0.0,0.0,0.0,0.0,0.0,0.0,5.8995,5.8995,0.0,5.8995,5.9323,5.984,6.0634,6.1668,6.2668,6.36,6.36,6.36,6.36,6.36,6.36,6.36,6.36,6.36,6.36,6.36,6.36,6.36,6.36,6.36,6.36,6.6068,6.6068,6.6068,0.0,6.6068,0.0,6.6068,6.6068,6.6068,6.6068,6.6068,6.6068,6.6068,6.6068,6.5723,6.4945,0.0,0.0,0.0,6.3703,6.3669,6.3669,6.3653,6.36,6.36,6.36,6.36,6.36,6.36,6.36,6.36,6.36,6.36,6.36,6.36,6.36,6.36,6.36,6.36,6.36,6.36,6.36,6.36,6.36,6.36,6.36,6.36,6.36,6.36,6.36,6.36,6.36,6.36,6.36,6.3324,6.1875,6.1427,6.1392,6.1392,6.1358,6.1289,6.1289,6.0771,6.0082,5.9306,5.9168,5.9168,5.9168,5.9099,5.9064,5.9064,5.903,5.9047,5.9251,5.9115,5.9064,5.9268,0.0,0.0,0.0,0.0,0.0,0.0,5.8995,5.8995,0.0,0.0,0.0,0.0,0.0,5.8995,5.8995,5.903,5.9064,5.9064,5.9875,6.0634,6.1392,6.2875,6.36,6.36,6.36,6.36,6.36,6.36,6.36,6.36,6.36,6.36,6.36,6.36,6.36,6.36,6.36,6.36,6.36,0.0,0.0,6.7566,6.7566,6.7566,6.7566,6.7566,6.7566,6.7566,6.7566,6.7566,6.7566,6.7566,6.7566,6.7256,6.6497,6.5945,6.555,6.5378,6.4772,6.4427,6.4427,6.391,6.36,6.36,6.36,6.36,6.36,6.36,6.36,6.36,6.36,6.36,6.36,6.36,6.36,6.36,6.36,6.36,6.36,6.36,6.36,6.36,6.36,6.36,6.36,6.36,6.36,6.36,6.36,6.36,6.36,6.36,6.36,6.3531,6.3151,6.2668,6.2238,6.2238,6.1772,6.1289,6.1289,6.1185,6.0978,6.0806,6.0771,6.0771,6.0771,6.0323,5.9909,5.9909,5.9409,5.9012,5.9064,5.903,5.9012,5.9064,5.903,0.0,0.0,5.8995,5.8995,5.8995,5.8995,5.8995,0.0,0.0,0.0,0.0,5.8995,5.8995,5.8995,5.9599,5.9909,5.9909,6.0668,6.1427,6.2238,6.317,6.36,6.36,6.36,6.36,6.36,6.36,6.36,6.36,6.36,6.36,6.36,6.36,6.36,6.36,6.36,6.36,6.3637,6.8083,6.8083,6.8083,6.8083,6.8083,6.8083,6.8083,6.8083,6.8083,6.8083,6.8083,6.8083,6.8083,6.8083,6.7945,6.7532,6.6827,6.6275,6.593,6.5497,6.5274,6.5274,6.4841,6.4481,6.4117,6.4083,6.3945,6.36,6.36,6.36,6.36,6.36,6.36,6.36,6.36,6.36,6.36,6.36,6.36,6.36,6.36,6.36,6.36,6.36,6.36,6.36,6.36,6.36,6.36,6.36,6.36,6.36,6.36,6.36,6.36,6.36,6.3324,6.2997,6.2997,6.2668,6.2255,6.191,6.1841,6.1737,6.1392,6.1289,6.1289,6.1289,6.0978,6.0703,6.0703,6.0358,6.0047,6.0047,6.0047,6.0047,6.0047,6.0047,0.0,5.9599,5.9564,5.9392,5.903,5.8995,5.9133,5.953,0.0,0.0,6.003,6.0047,5.9909,5.9564,5.9978,6.0358,6.0703,6.1461,6.222,6.3032,6.3393,6.36,6.36,6.36,6.36,6.36,6.36,6.36,6.36,6.36,6.36,6.36,6.36,6.36,6.36,6.36,6.3655,6.3747,6.8083,6.8083,6.8083,6.8083,6.8083,6.8083,6.8083,6.8083,6.8083,6.8083,6.8083,6.8083,6.8083,6.8083,6.8083,6.8083,6.7532,6.6876,6.6275,6.6137,6.6068,6.6068,6.5964,6.5585,6.491,6.4876,6.4496,6.3772,6.3772,6.3703,6.36,6.36,6.36,6.36,6.36,6.36,6.36,6.36,6.36,6.36,6.36,6.36,6.36,6.36,6.36,6.36,6.36,6.36,6.36,6.36,6.36,6.36,6.36,6.36,6.36,6.36,6.36,6.36,6.36,6.36,6.3427,6.2825,6.2687,6.2514,6.1806,6.1634,6.1634,6.1634,6.1565,6.1496,6.1496,6.1392,6.1289,6.1289,6.1289,6.1289,6.1289,0.0,6.1082,6.0427,6.0358,6.0116,5.9409,5.934,5.9633,6.0323,6.0358,6.0634,0.0,6.1289,6.1082,6.0565,6.053,6.0909,6.1634,6.2324,6.2997,6.36,6.36,6.36,6.36,6.36,6.36,6.36,6.36,6.36,6.36,6.36,6.36,6.36,6.36,6.36,6.3618,6.3637,6.3747,6.3927,6.8083,6.8083,6.8083,6.8083,6.8083,6.8083,6.8083,6.8083,6.8083,6.8083,6.8083,6.8083,6.8083,6.8083,6.8083,6.8083,6.798,6.7876,6.7773,6.7187,6.6827,6.6827,6.624,6.5826,6.5723,6.5723,6.5324,6.4531,6.4531,6.422,6.36,6.36,6.36,6.36,6.36,6.36,6.36,6.36,6.36,6.36,6.36,6.36,6.36,6.36,6.36,6.36,6.36,6.36,6.36,6.36,6.36,6.36,6.36,6.36,6.36,6.36,6.36,6.36,6.36,6.36,6.3565,6.348,6.3427,6.3393,6.3255,6.322,6.322,6.322,6.2756,6.2289,6.2289,6.1772,6.1289,6.1289,6.1289,6.1289,6.1289,0.0,6.1254,6.1151,6.1116,6.1082,6.0978,6.0944,6.0978,6.1116,6.1116,6.1185,6.1289,6.1289,6.1565,6.2135,6.2135,6.2496,6.322,6.3358,6.3496,6.36,6.36,6.36,6.36,6.36,6.36,6.36,6.36,6.36,6.36,6.36,6.36,6.36,6.36,6.36,6.3618,6.3783,6.3856,6.3929,6.8083,6.8083,6.8083,6.8083,6.8083,6.8083,6.8083,6.8083,6.8083,6.8083,6.8083,6.8083,6.8083,6.8083,6.8083,6.8083,6.8083,6.8083,6.8083,6.7773,6.7566,6.7566,6.7256,6.6896,6.6516,6.6102,6.5723,6.5343,6.5343,6.5152,6.486,6.486,6.486,6.4826,6.4393,6.4186,6.4152,6.3772,6.36,6.36,6.36,6.36,6.36,6.36,6.36,6.36,6.36,6.36,6.36,6.36,6.36,6.36,6.36,6.36,6.36,6.36,6.36,6.36,6.36,6.36,6.36,6.36,6.36,6.36,6.36,6.36,6.36,6.36,6.3342,6.3101,6.3101,6.2772,6.253,6.253,6.253,0.0,0.0,6.253,6.2393,6.1979,6.1944,6.1772,6.1358,6.1289,6.1496,6.191,6.1944,6.2117,6.253,6.253,6.2703,6.3082,6.3101,6.3273,6.36,6.36,6.36,6.36,6.36,6.36,6.36,6.36,6.36,6.36,6.36,6.36,6.36,6.36,6.36,6.3618,6.371,6.3747,6.3783,6.3983,6.4109,6.4181,6.8083,6.8083,6.8083,6.8083,6.8083,6.8083,6.8083,6.8083,6.8083,6.8083,6.8083,6.8083,6.8083,6.8083,6.8083,6.8083,6.8083,6.8083,6.8083,6.8083,6.8083,6.8083,6.8083,6.7842,6.7256,6.6723,6.6344,6.6171,6.6171,6.6068,6.5895,6.5895,6.5895,6.5861,6.5255,6.4979,6.4945,6.4358,6.4117,6.4117,6.4117,6.4117,6.4117,6.391,6.3841,6.3841,6.3669,6.36,6.36,6.36,6.36,6.36,6.36,6.36,6.36,6.36,6.36,6.36,6.36,6.36,6.36,6.36,6.36,6.36,6.36,6.36,6.36,6.36,6.36,6.36,6.36,6.36,6.36,6.36,0.0,0.0,0.0,6.36,6.3393,6.2825,6.2756,6.2496,6.1875,6.1841,6.2082,6.2721,6.2756,6.2997,6.3565,6.36,6.36,6.36,6.36,6.36,6.36,6.36,6.36,6.36,6.36,6.36,6.36,6.36,6.36,6.36,6.36,6.36,6.3618,6.3655,6.3673,6.3692,6.3874,6.3981,6.3983,6.418,6.4305,6.4411,6.8083,6.8083,6.8083,6.8083,6.8083,6.8083,6.8083,6.8083,6.8083,6.8083,6.8083,6.8083,6.8083,6.8083,6.8083,6.8083,6.8083,6.8083,6.8083,6.8083,6.8083,6.8083,6.8083,6.8083,6.8014,6.798,6.7601,6.6911,6.6911,6.6585,6.5895,6.5895,6.5895,6.5895,6.5826,6.5826,6.5826,6.5757,6.5723,6.5723,6.5723,6.5723,6.5654,6.491,6.4634,6.4531,6.3841,6.36,6.36,6.36,6.36,6.36,6.36,6.36,6.36,6.36,6.36,6.36,6.36,6.36,6.36,6.36,6.36,6.36,6.36,6.36,6.36,6.36,6.36,6.36,6.36,6.36,6.36,6.36,0.0,0.0,6.36,6.36,6.3565,6.3531,6.3531,6.3515,6.3427,6.3427,6.348,6.3496,6.3531,6.3531,6.36,6.36,6.36,6.36,6.36,6.36,6.36,6.36,6.36,6.36,6.36,6.36,6.36,6.36,6.36,6.36,6.36,6.36,6.3618,6.3783,6.3891,6.3909,6.4091,6.4162,6.418,6.434,6.4376,6.4411,6.8083,6.8083,6.8083,6.8083,6.8083,6.8083,6.8083,6.8083,6.8083,6.8083,6.8083,6.8083,6.8083,6.8083,6.8083,6.8083,6.8083,6.8083,6.8083,6.8083,6.8083,6.8083,6.8083,6.8083,6.8083,6.8083,6.7945,6.7669,6.7669,6.7532,6.7256,6.7256,6.7256,6.7221,6.6792,6.6585,6.6551,6.6102,6.5895,6.5895,6.5895,6.5895,6.5861,6.555,6.5447,6.5412,6.5136,6.4722,6.4289,6.4289,6.3979,6.36,6.36,6.36,6.36,6.36,6.36,6.36,6.36,6.36,6.36,6.36,6.36,6.36,6.36,6.36,6.36,6.36,6.36,6.36,6.36,6.36,6.36,6.36,0.0,6.36,6.36,6.36,6.36,6.36,6.36,6.36,6.36,6.36,6.36,6.36,6.36,6.36,6.36,6.36,6.36,6.36,6.36,6.36,6.36,6.36,6.36,6.36,6.36,6.36,6.3618,6.3728,6.3783,6.3783,6.391,6.3965,6.3965,6.4037,6.4108,6.4091,6.4252,6.4323,6.4358,6.4533,6.4585,6.4602,6.8083,6.8083,6.8083,6.8083,6.8083,6.8083,6.8083,6.8083,6.8083,6.8083,6.8083,6.8083,6.8083,6.8083,6.8083,6.8083,6.8083,6.8083,6.8083,6.8083,6.8083,6.8083,6.8083,6.8083,6.8083,6.8083,6.8083,6.8083,6.8083,6.8083,6.8083,6.8083,6.8083,6.8083,6.7566,6.7325,6.729,6.6827,6.6585,6.6585,6.6585,6.6585,6.6585,6.6344,6.624,6.6206,6.5999,6.555,6.5083,6.5083,6.4738,6.4274,6.4014,6.3772,6.36,6.36,6.36,6.36,6.36,6.36,6.36,6.36,6.36,6.36,6.36,6.36,6.36,6.36,6.36,6.36,6.36,6.36,6.36,6.36,6.36,6.36,6.36,6.36,6.36,6.36,6.36,6.36,6.36,6.36,6.36,6.36,6.36,6.36,6.36,6.36,6.36,6.36,6.36,6.36,6.36,6.36,6.36,6.36,6.36,6.36,6.3618,6.3801,6.3909,6.3927,6.4091,6.418,6.418,6.4251,6.4269,6.4287,6.4446,6.448,6.4533,6.4654,6.4689,6.4689,6.8083,6.8083,6.8083,6.8083,6.8083,6.8083,6.8083,6.8083,6.8083,6.8083,6.8083,6.8083,6.8083,6.8083,6.8083,6.8083,6.8083,6.8083,6.8083,6.8083,6.8083,6.8083,6.8083,6.8083,6.8083,6.8083,6.8083,6.8083,6.8083,6.8083,6.8083,6.8083,6.8083,6.8083,6.8083,6.8083,6.8083,6.8083,6.8083,6.8083,6.8083,6.8083,6.8014,6.729,6.7034,6.693,6.6171,6.593,6.5895,6.5895,6.5895,6.5757,6.4945,6.422,6.36,6.36,6.36,6.36,6.36,6.36,6.36,6.36,6.36,6.36,6.36,6.36,6.36,6.36,6.36,6.36,6.36,6.36,6.36,6.36,6.36,6.36,6.36,6.36,6.36,6.36,6.36,6.36,6.36,6.36,6.36,6.36,6.36,6.36,6.36,6.36,6.36,6.36,6.36,6.36,6.36,6.36,6.36,6.36,6.36,6.36,6.3618,6.3801,6.3909,6.3927,6.4126,6.418,6.4198,6.4358,6.4393,6.4411,6.462,6.4689,6.4689,6.4689,6.4689,6.4689,6.8083,6.8083,6.8083,6.8083,6.8083,6.8083,6.8083,6.8083,6.8083,6.8083,6.8083,6.8083,6.8083,6.8083,6.8083,6.8083,6.8083,6.8083,6.8083,6.8083,6.8083,6.8083,6.8083,6.8083,6.8083,6.8083,6.8083,6.8083,6.8083,6.8083,6.8083,6.8083,6.8083,6.8083,6.8083,6.8083,6.8083,6.8083,6.8083,6.8083,6.8083,6.8083,6.8083,6.7842,6.7773,6.7738,6.7532,6.7083,6.6689,6.6689,6.6344,6.5861,6.5619,6.5412,6.5102,6.4531,6.4358,6.4255,6.3738,6.36,6.36,6.36,6.36,6.36,6.36,6.36,6.36,6.36,6.36,6.36,6.36,6.36,6.36,6.36,6.36,6.36,6.36,6.36,6.36,6.36,6.36,6.36,6.36,6.36,6.36,6.36,6.36,6.36,6.36,6.36,6.36,6.36,6.36,6.36,6.36,6.36,6.36,6.36,6.36,6.3673,6.3801,6.4001,6.4162,6.427,6.4446,6.4568,6.4533,6.4585,6.462,6.462,6.4672,6.4689,6.4689,6.4689,6.4689,6.4689,6.8083,6.8083,6.8083,6.8083,6.8083,6.8083,6.8083,6.8083,6.8083,6.8083,6.8083,6.8083,6.8083,6.8083,6.8083,6.8083,6.8083,6.8083,6.8083,6.8083,6.8083,6.8083,6.8083,6.8083,6.8083,6.8083,6.8083,6.8083,6.8083,6.8083,6.8083,6.8083,6.8083,6.8083,6.8083,6.8083,6.8083,6.8083,6.8083,6.8083,6.8083,6.8083,6.8083,6.8083,6.8083,6.8083,6.8083,6.7807,6.7428,6.7428,6.6965,6.6344,6.6344,6.6137,6.5792,6.5324,6.5152,6.5102,6.4653,6.4289,6.4048,6.4048,6.3807,6.36,6.36,6.36,6.36,6.36,6.36,6.36,6.36,6.36,6.36,6.36,6.36,6.36,6.36,6.36,6.36,6.36,6.36,6.36,6.36,6.36,6.36,6.36,6.36,6.36,6.36,6.36,6.36,6.36,6.36,6.36,6.36,6.36,6.36,6.36,6.3673,6.3765,6.3927,6.4162,6.4323,6.4411,6.462,6.4689,6.4689,6.4689,6.4689,6.4689,6.4689,6.4689,6.4689,6.4689,6.4689,6.4689,6.8083,6.8083,6.8083,6.8083,6.8083,6.8083,6.8083,6.8083,6.8083,6.8083,6.8083,6.8083,6.8083,6.8083,6.8083,6.8083,6.8083,6.8083,6.8083,6.8083,6.8083,6.8083,6.8083,6.8083,6.8083,6.8083,6.8083,6.8083,6.8083,6.8083,6.8083,6.8083,6.8083,6.8083,6.8083,6.8083,6.8083,6.8083,6.8083,6.8083,6.8083,6.8083,6.8083,6.8083,6.8083,6.8083,6.8083,6.8083,6.8083,6.8083,6.7635,6.7103,6.7103,6.6654,6.6068,6.6033,6.5999,6.5999,6.593,6.5378,6.4807,6.4807,6.4289,6.3772,6.3634,6.36,6.36,6.36,6.36,6.36,6.36,6.36,6.36,6.36,6.36,6.36,6.36,6.36,6.36,6.36,6.36,6.36,6.36,6.36,6.36,6.36,6.36,6.36,6.36,6.36,6.36,6.36,6.36,6.36,6.36,6.3618,6.3637,6.3637,6.3801,6.3927,6.3947,6.427,6.4411,6.4428,6.462,6.4689,6.4689,6.4689,6.4689,6.4689,6.4689,6.4689,6.4689,6.4689,6.4689,6.4689,6.8083,6.8083,6.8083,6.8083,6.8083,6.8083,6.8083,6.8083,6.8083,6.8083,6.8083,6.8083,6.8083,6.8083,6.8083,6.8083,6.8083,6.8083,6.8083,6.8083,6.8083,6.8083,6.8083,6.8083,6.8083,6.8083,6.8083,6.8083,6.8083,6.8083,6.8083,6.8083,6.8083,6.8083,6.8083,6.8083,6.8083,6.8083,6.8083,6.8083,6.8083,6.8083,6.8083,6.8083,6.8083,6.8083,6.8083,6.8083,6.8083,6.8083,6.798,6.7842,6.7842,6.7738,6.7497,6.693,6.6758,6.6654,6.6068,6.5792,6.5654,6.5654,6.5516,6.5102,6.3894,6.36,6.36,6.36,6.36,6.36,6.36,6.36,6.36,6.36,6.36,6.36,6.36,6.36,6.36,6.36,6.36,6.36,6.36,6.36,6.36,6.36,6.36,6.36,6.36,6.36,6.36,6.36,6.36,6.36,6.36,6.3747,6.382,6.3854,6.3891,6.4037,6.427,6.4358,6.4498,6.4637,6.4672,6.4689,6.4689,6.4689,6.4689,6.4689,6.4689,6.4689,6.4689,6.4689,6.4689,6.4689,6.8083,6.8083,6.8083,6.8083,6.8083,6.8083,6.8083,6.8083,6.8083,6.8083,6.8083,6.8083,6.8083,6.8083,6.8083,6.8083,6.8083,6.8083,6.8083,6.8083,6.8083,6.8083,6.8083,6.8083,6.8083,6.8083,6.8083,6.8083,6.8083,6.8083,6.8083,6.8083,6.8083,6.8083,6.8083,6.8083,6.8083,6.8083,6.8083,6.8083,6.8083,6.8083,6.8083,6.8083,6.8083,6.8083,6.8083,6.8083,6.8083,6.8083,6.8083,6.8083,6.8083,6.8083,6.8014,6.7635,6.7532,6.7428,6.7049,6.6689,6.6413,6.6413,6.6171,6.5585,6.4393,6.4117,6.4014,6.3669,6.36,6.36,6.36,6.36,6.36,6.36,6.36,6.36,6.36,6.36,6.36,6.36,6.36,6.36,6.36,6.36,6.36,6.36,6.36,6.36,6.36,6.36,6.36,6.36,6.36,6.36,6.36,6.3692,6.3801,6.3909,6.4073,6.4234,6.4393,6.448,6.4602,6.4689,6.4689,6.4689,6.4689,6.4689,6.4689,6.4689,6.4689,6.4689,6.4689,6.4689,6.4689,6.4689,6.8083,6.8083,6.8083,6.8083,6.8083,6.8083,6.8083,6.8083,6.8083,6.8083,6.8083,6.8083,6.8083,6.8083,6.8083,6.8083,6.8083,6.8083,6.8083,6.8083,6.8083,6.8083,6.8083,6.8083,6.8083,6.8083,6.8083,6.8083,6.8083,6.8083,6.8083,6.8083,6.8083,6.8083,6.8083,6.8083,6.8083,6.8083,6.8083,6.8083,6.8083,6.8083,6.8083,6.8083,6.8083,6.8083,6.8083,6.8083,6.8083,6.8083,6.8083,6.8083,6.8083,6.8083,6.8083,6.8083,6.8083,6.8083,6.8083,6.7635,6.7206,6.7206,6.6723,6.6068,6.5255,6.4979,6.4738,6.4136,6.3876,6.3772,6.3772,6.3669,6.36,6.36,6.36,6.36,6.36,6.36,6.36,6.36,6.36,6.36,6.36,6.36,6.36,6.36,6.36,6.36,6.36,6.36,6.36,6.36,6.36,6.36,6.36,6.3673,6.3765,6.3909,6.4252,6.4393,6.4411,6.462,6.4689,6.4689,6.4689,6.4689,6.4689,6.4689,6.4689,6.4689,6.4689,6.4689,6.4689,6.4689,6.4689,6.4689,6.8083,6.8083,6.8083,6.8083,6.8083,6.8083,6.8083,6.8083,6.8083,6.8083,6.8083,6.8083,6.8083,6.8083,6.8083,6.8083,6.8083,6.8083,6.8083,6.8083,6.8083,6.8083,6.8083,6.8083,6.8083,6.8083,6.8083,6.8083,6.8083,6.8083,6.8083,6.8083,6.8083,6.8083,6.8083,6.8083,6.8083,6.8083,6.8083,6.8083,6.8083,6.8083,6.8083,6.8083,6.8083,6.8083,6.8083,6.8083,6.8083,6.8083,6.8083,6.8083,6.8083,6.8083,6.8083,6.8083,6.8083,6.8083,6.8083,6.8014,6.7945,6.7945,6.7876,6.7601,6.6842,6.6206,6.5723,6.5619,6.5014,6.4565,6.4565,6.4014,6.36,6.36,6.36,6.36,6.36,6.36,6.36,6.36,6.36,6.36,6.36,6.36,6.36,6.36,6.36,6.36,6.36,6.36,6.36,6.36,6.36,6.36,6.36,6.3947,6.4072,6.3909,6.4252,6.4393,6.4411,6.462,6.4689,6.4689,6.4689,6.4689,6.4689,6.4689,6.4689,6.4689,6.4689,6.4689,6.4689,6.4689,6.4689,6.4689,6.8083,6.8083,6.8083,6.8083,6.8083,6.8083,6.8083,6.8083,6.8083,6.8083,6.8083,6.8083,6.8083,6.8083,6.8083,6.8083,6.8083,6.8083,6.8083,6.8083,6.8083,6.8083,6.8083,6.8083,6.8083,6.8083,6.8083,6.8083,6.8083,6.8083,6.8083,6.8083,6.8083,6.8083,6.8083,6.8083,6.8083,6.8083,6.8083,6.8083,6.8083,6.8083,6.8083,6.8083,6.8083,6.8083,6.8083,6.8083,6.8083,6.8083,6.8083,6.8083,6.8083,6.8083,6.8083,6.8083,6.8083,6.8083,6.8083,6.8083,6.8083,6.8083,6.8083,6.8014,6.7669,6.7359,6.6896,6.6068,6.5619,6.5359,6.5359,6.4738,6.422,6.422,6.3876,6.36,6.36,6.36,6.36,6.36,6.36,6.36,6.36,6.36,6.36,6.36,6.36,6.36,6.36,6.36,6.36,6.36,6.36,6.36,6.36,6.3783,6.3874,6.3909,6.418,6.4323,6.4393,6.448,6.4602,6.4689,6.4689,6.4689,6.4689,6.4689,6.4689,6.4689,6.4689,6.4689,6.4689,6.4689,6.4689,6.4689]}]]